Date StartTime U_cm/s V_cm/s W_cm/s Ustd_cm/s Vstd_cm/s Wstd_cm/s Uvar_(cm/s)^2 Vvar_(cm/s)^2 Wvar_(cm/s)^2 KE_(m/s)^2 TurbulentKE_(m/s)^2 HorizWindSpeed_cm/s FrictionSpeec_cm/s DragCoef SpeedOfSound_m/s SonicTemperature_C Pressure_mb 
08/10/2014  00:00:00      -94.882      -34.282       -9.168       28.920       30.850       19.644      836.352      951.697      385.876        0.622        0.109      100.885       17.778        0.031      344.784       21.847      864.138
08/10/2014  00:01:00      -85.901      -25.267       -5.430       24.047       21.310       14.850      578.247      454.101      220.522        0.465        0.063       89.540       13.023        0.021      344.728       21.754      864.126
08/10/2014  00:02:00     -111.386       -4.396      -14.160       21.374       21.117       10.925      456.853      445.929      119.363        0.682        0.051      111.473        5.726        0.003      344.754       21.796      864.119
08/10/2014  00:03:00      -94.604      -35.657       -4.485       40.853       26.280       15.315     1668.972      690.653      234.559        0.642        0.130      101.101       19.278        0.036      344.690       21.687      864.116
08/10/2014  00:04:00      -21.848      -32.121        9.764       32.624       24.010       19.379     1064.330      576.496      375.557        0.181        0.101       38.847       18.805        0.234      344.712       21.725      864.129
08/10/2014  00:05:00      -29.925      -68.151        6.214       24.237       42.059       13.782      587.416     1768.993      189.957        0.406        0.127       74.431       13.546        0.033      344.759       21.805      864.152
08/10/2014  00:06:00      -40.565     -151.178       -6.851       30.299       33.148       20.215      918.009     1098.804      408.647        1.349        0.121      156.526       15.056        0.009      344.738       21.769      864.177
08/10/2014  00:07:00      -41.025      -91.161        3.617       35.969       37.476       25.471     1293.735     1404.473      648.750        0.668        0.167       99.967       19.817        0.039      344.653       21.625      864.187
08/10/2014  00:08:00      -23.264      -24.082       -2.869       28.188       31.130       19.359      794.566      969.098      374.770        0.163        0.107       33.483        2.537        0.006      344.588       21.514      864.199
08/10/2014  00:09:00      -21.293      -70.372        2.260       43.796       31.829       22.671     1918.064     1013.069      513.996        0.443        0.172       73.523       15.379        0.044      344.594       21.523      864.212
08/10/2014  00:10:00      -49.890      -27.108       -2.137       38.662       19.710       16.571     1494.727      388.498      274.596        0.269        0.108       56.779       11.816        0.043      344.600       21.533      864.222
08/10/2014  00:11:00      -27.194      -40.175        3.505       28.912       24.488       11.978      835.914      599.671      143.469        0.197        0.079       48.514       11.692        0.058      344.604       21.541      864.224
08/10/2014  00:12:00      -61.469      -44.666       -1.492       25.888       28.118       18.069      670.201      790.607      326.505        0.378        0.089       75.984       16.866        0.049      344.617       21.562      864.239
08/10/2014  00:13:00      -42.770      -49.342       21.614       48.011       34.506       28.667     2305.021     1190.635      821.817        0.452        0.216       65.299       25.666        0.154      344.523       21.403      864.239
08/10/2014  00:14:00      -93.490      -51.126        1.458       32.265       23.753       19.354     1041.061      564.194      374.579        0.667        0.099      106.556       12.094        0.013      344.551       21.450      864.247
08/10/2014  00:15:00      -56.587      -85.598        1.978       31.144       32.886       18.832      969.948     1081.507      354.653        0.647        0.120      102.612       19.414        0.036      344.557       21.460      864.267
08/10/2014  00:16:00      -23.718     -113.652        6.154       21.218       32.833       17.464      450.204     1078.027      304.977        0.767        0.092      116.100       13.501        0.014      344.629       21.584      864.305
08/10/2014  00:17:00      -65.089     -106.137        3.104       30.207       49.287       23.512      912.448     2429.229      552.797        0.970        0.195      124.505       17.599        0.020      344.611       21.553      864.331
08/10/2014  00:18:00      -46.959      -56.615        0.712       34.753       28.976       20.866     1207.773      839.592      435.394        0.395        0.124       73.555       15.633        0.045      344.546       21.440      864.351
08/10/2014  00:19:00      -65.896      -62.333       -6.638       33.144       22.089       16.582     1098.529      487.945      274.973        0.507        0.093       90.707        9.054        0.010      344.562       21.469      864.364
08/10/2014  00:20:00      -92.856      -83.837       -3.713       29.905       39.456       21.895      894.327     1556.805      479.403        0.930        0.147      125.103       15.588        0.016      344.548       21.445      864.374
08/10/2014  00:21:00      -76.283      -61.852       -5.748       29.845       35.180       18.177      890.751     1237.618      330.407        0.607        0.123       98.208       14.034        0.020      344.503       21.368      864.388
08/10/2014  00:22:00      -92.178      -42.117       -6.858       40.518       27.570       18.223     1641.717      760.119      332.089        0.653        0.137      101.344       15.663        0.024      344.463       21.299      864.393
08/10/2014  00:23:00     -103.051      -52.385       -3.353       41.285       35.813       23.252     1704.475     1282.599      540.674        0.845        0.176      115.601       22.966        0.039      344.412       21.210      864.396
08/10/2014  00:24:00      -96.186      -34.736        6.577       46.298       38.095       24.143     2143.462     1451.207      582.869        0.734        0.209      102.266       23.207        0.051      344.364       21.130      864.400
08/10/2014  00:25:00     -140.361      -29.991        0.024       28.817       26.528       22.079      830.402      703.722      487.476        1.131        0.101      143.529       17.783        0.015      344.395       21.184      864.412
08/10/2014  00:26:00     -107.221      -34.083        5.717       44.154       39.138       27.465     1949.545     1531.755      754.353        0.846        0.212      112.508       24.282        0.047      344.306       21.031      864.420
08/10/2014  00:27:00      -49.161      -23.394       10.208       39.003       31.877       21.805     1521.268     1016.149      475.459        0.304        0.151       54.444       21.778        0.160      344.256       20.945      864.429
08/10/2014  00:28:00      -87.361      -42.398        0.932       33.117       30.028       17.483     1096.763      901.697      305.666        0.587        0.115       97.106       17.617        0.033      344.289       21.004      864.428
08/10/2014  00:29:00     -116.366      -60.265       -1.888       35.616       32.651       21.275     1268.466     1066.114      452.617        0.998        0.139      131.046       20.167        0.024      344.279       20.983      864.427
08/10/2014  00:30:00     -106.220      -16.526        3.506       44.782       32.802       22.969     2005.436     1075.974      527.554        0.759        0.180      107.498       22.884        0.045      344.174       20.805      864.430
08/10/2014  00:31:00     -107.939      -17.810        1.350       50.575       30.816       24.355     2557.872      949.648      593.160        0.803        0.205      109.399       26.410        0.058      344.055       20.604      864.424
08/10/2014  00:32:00     -110.689      -13.307        1.848       42.139       38.577       26.574     1775.709     1488.182      706.164        0.820        0.199      111.486       25.003        0.050      344.027       20.553      864.420
08/10/2014  00:33:00     -120.405      -19.044       -7.838       35.465       32.506       19.554     1257.738     1056.653      382.366        0.881        0.135      121.902       17.075        0.020      344.059       20.611      864.418
08/10/2014  00:34:00      -90.846      -14.721      -10.576       35.609       21.147       18.712     1267.999      447.206      350.147        0.532        0.103       92.031       13.548        0.022      344.072       20.632      864.413
08/10/2014  00:35:00     -107.922        0.276       -9.898       25.774       33.333       19.271      664.317     1111.100      371.355        0.695        0.107      107.922       13.899        0.017      343.956       20.433      864.415
08/10/2014  00:36:00     -105.751        4.919       -6.314       43.714       39.485       27.580     1910.906     1559.044      760.669        0.774        0.212      105.866       28.666        0.073      343.942       20.407      864.415
08/10/2014  00:37:00     -101.141       -3.592      -10.636       35.434       38.923       21.058     1255.595     1514.977      443.425        0.678        0.161      101.204       22.842        0.051      343.881       20.305      864.413
08/10/2014  00:38:00      -62.230        5.492       -4.083       29.674       30.443       19.086      880.518      926.774      364.278        0.305        0.109       62.472       13.416        0.046      343.862       20.274      864.417
08/10/2014  00:39:00      -65.204      -30.797       -5.612       46.154       38.156       22.458     2130.223     1455.866      504.349        0.466        0.205       72.111       26.089        0.131      343.844       20.241      864.426
08/10/2014  00:40:00      -86.672      -12.002       -9.059       39.898       53.166       23.564     1591.860     2826.669      555.284        0.636        0.249       87.499       22.506        0.066      343.821       20.202      864.440
08/10/2014  00:41:00     -101.957       -6.994       -7.243       31.114       37.032       28.051      968.068     1371.345      786.876        0.681        0.156      102.197       15.216        0.022      343.840       20.235      864.459
08/10/2014  00:42:00      -63.342      -29.038      -11.456       41.269       33.743       21.860     1703.165     1138.557      477.843        0.415        0.166       69.681       19.150        0.076      343.817       20.195      864.465
08/10/2014  00:43:00      -84.871      -35.593       -4.250       41.852       36.099       17.984     1751.586     1303.167      323.433        0.593        0.169       92.032       11.642        0.016      343.804       20.174      864.464
08/10/2014  00:44:00      -74.560      -22.135       -5.155       23.623       40.441       21.871      558.042     1635.511      478.347        0.437        0.134       77.776        8.077        0.011      343.776       20.127      864.465
08/10/2014  00:45:00      -85.041      -17.449      -12.830       37.791       37.887       17.286     1428.139     1435.400      298.802        0.543        0.158       86.813        7.818        0.008      343.745       20.072      864.456
08/10/2014  00:46:00     -106.042      -10.780      -14.253       47.053       45.739       18.604     2213.982     2092.089      346.109        0.811        0.233      106.588       20.230        0.036      343.756       20.091      864.441
08/10/2014  00:47:00     -121.386       -6.532      -20.028       26.671       36.735       23.648      711.328     1349.451      559.227        0.890        0.131      121.562       19.151        0.025      343.731       20.050      864.421
08/10/2014  00:48:00     -120.013      -40.917      -12.171       41.786       38.301       26.889     1746.062     1466.951      723.000        1.008        0.197      126.796       24.116        0.036      343.642       19.897      864.408
08/10/2014  00:49:00     -119.388      -29.071       -5.089       42.951       45.945       21.327     1844.793     2110.986      454.840        0.977        0.221      122.876       13.499        0.012      343.632       19.879      864.409
08/10/2014  00:50:00     -111.654       22.100      -15.449       40.652       35.845       25.655     1652.587     1284.874      658.191        0.839        0.180      113.820       20.800        0.033      343.718       20.027      864.408
08/10/2014  00:51:00     -103.126       21.473      -11.296       33.003       26.073       17.891     1089.179      679.788      320.104        0.666        0.104      105.338       15.572        0.022      343.718       20.025      864.416
08/10/2014  00:52:00      -67.847      -22.619       -6.411       45.839       29.150       20.111     2101.206      849.700      404.461        0.425        0.168       71.518       18.002        0.063      343.688       19.974      864.424
08/10/2014  00:53:00      -92.397      -18.342      -13.482       37.000       39.608       23.327     1368.991     1568.754      544.135        0.627        0.174       94.200       22.587        0.057      343.710       20.012      864.433
08/10/2014  00:54:00     -138.292      -27.359      -12.138       33.242       29.513       21.415     1105.061      870.995      458.586        1.123        0.122      140.972       15.723        0.012      343.631       19.879      864.421
08/10/2014  00:55:00     -143.409      -23.632       -7.447       43.496       41.741       24.872     1891.863     1742.295      618.613        1.272        0.213      145.343       25.442        0.031      343.588       19.804      864.392
08/10/2014  00:56:00     -154.169      -46.183       -3.511       41.931       50.842       22.705     1758.212     2584.874      515.532        1.538        0.243      160.938       20.671        0.016      343.604       19.832      864.367
08/10/2014  00:57:00     -126.439      -35.488        0.784       56.176       43.425       24.349     3155.710     1885.741      592.886        1.144        0.282      131.325       24.379        0.034      343.595       19.817      864.356
08/10/2014  00:58:00     -138.276      -33.703       -7.099       59.257       37.306       26.915     3511.442     1391.746      724.433        1.297        0.281      142.324       31.095        0.048      343.644       19.900      864.346
08/10/2014  00:59:00     -102.749      -25.377       -2.044       46.862       29.838       24.857     2196.034      890.316      617.862        0.745        0.185      105.837       25.191        0.057      343.671       19.947      864.337
08/10/2014  01:00:00      -78.153       -0.743       -0.375       29.878       26.819       14.204      892.673      719.273      201.758        0.396        0.091       78.157       10.130        0.017      343.706       20.006      864.337
08/10/2014  01:01:00      -44.184      -17.635       -3.450       21.003       14.342       10.410      441.122      205.692      108.371        0.152        0.038       47.574        7.801        0.027      343.747       20.077      864.341
08/10/2014  01:02:00      -15.136       -5.131        6.707       10.101       11.977        8.203      102.038      143.440       67.297        0.031        0.016       15.982        5.508        0.119      343.704       20.001      864.362
08/10/2014  01:03:00      -16.593      -19.591       -2.523       13.383       21.621        9.631      179.100      467.486       92.757        0.070        0.037       25.674       11.807        0.211      343.760       20.101      864.379
08/10/2014  01:04:00      -32.766      -59.715        1.851       24.585       17.863       16.368      604.411      319.103      267.915        0.292        0.060       68.114       12.371        0.033      343.816       20.193      864.400
08/10/2014  01:05:00      -48.050      -71.181        1.019       32.773       49.474       20.330     1074.076     2447.695      413.320        0.566        0.197       85.881       19.402        0.051      343.803       20.172      864.405
08/10/2014  01:06:00     -115.153      -46.144      -12.354       22.183       28.693       17.140      492.075      823.316      293.788        0.858        0.080      124.055       11.191        0.008      343.737       20.058      864.377
08/10/2014  01:07:00      -80.005      -71.406        7.248       39.288       37.440       20.893     1543.518     1401.781      436.518        0.747        0.169      107.236       18.497        0.030      343.663       19.932      864.360
08/10/2014  01:08:00      -48.704      -94.297        8.484       47.343       41.107       22.888     2241.395     1689.746      523.868        0.789        0.223      106.132       23.482        0.049      343.608       19.838      864.363
08/10/2014  01:09:00      -23.959      -97.711       -2.499       46.930       37.744       26.153     2202.398     1424.606      683.997        0.722        0.216      100.606       24.305        0.058      343.627       19.873      864.376
08/10/2014  01:10:00      -54.435     -138.833       -4.600       47.840       44.532       26.293     2288.649     1983.132      691.313        1.361        0.248      149.123       20.398        0.019      343.746       20.076      864.384
08/10/2014  01:11:00      -29.775      -79.663        3.046       27.483       29.744       20.504      755.326      884.717      420.415        0.465        0.103       85.045        8.546        0.010      343.714       20.019      864.384
08/10/2014  01:12:00      -25.301      -82.086      -10.530       34.052       31.885       23.358     1159.514     1016.629      545.578        0.510        0.136       85.897       10.142        0.014      343.711       20.013      864.400
08/10/2014  01:13:00      -44.358     -118.198       -2.433       41.272       79.566       37.128     1703.391     6330.727     1378.504        1.268        0.471      126.248       38.143        0.091      343.727       20.042      864.410
08/10/2014  01:14:00     -117.093     -107.377       -3.712       69.167       60.922       31.428     4784.110     3711.442      987.719        1.737        0.474      158.873       35.367        0.050      343.621       19.861      864.391
08/10/2014  01:15:00      -92.120     -157.372       -5.375       37.985       59.527       26.786     1442.891     3543.460      717.468        1.949        0.285      182.352       19.823        0.012      343.689       19.975      864.366
08/10/2014  01:16:00      -68.223     -115.035       11.085       57.061       68.890       32.113     3255.947     4745.879     1031.225        1.352        0.452      133.744       29.518        0.049      343.646       19.903      864.344
08/10/2014  01:17:00      -83.303     -142.648       -0.312       48.193       64.835       30.184     2322.613     4203.535      911.061        1.736        0.372      165.190       20.235        0.015      343.649       19.908      864.338
08/10/2014  01:18:00      -61.941     -132.697       -1.605       53.189       66.479       24.780     2829.114     4419.412      614.024        1.465        0.393      146.442       31.047        0.045      343.697       19.987      864.333
08/10/2014  01:19:00      -46.623      -88.407        1.096       46.468       39.729       27.359     2159.291     1578.369      748.516        0.724        0.224       99.947       30.541        0.093      343.661       19.929      864.322
08/10/2014  01:20:00      -51.885      -68.394        8.947       37.383       36.799       21.701     1397.484     1354.131      470.917        0.534        0.161       85.847       13.322        0.024      343.664       19.934      864.308
08/10/2014  01:21:00      -19.893      -88.412        3.430       47.588       54.325       26.617     2264.584     2951.163      708.453        0.707        0.296       90.622       25.311        0.078      343.670       19.945      864.312
08/10/2014  01:22:00        7.681      -81.151       16.462       32.323       37.346       20.536     1044.744     1394.704      421.711        0.489        0.143       81.514       16.438        0.041      343.700       19.995      864.327
08/10/2014  01:23:00      -52.335      -73.609        2.025       29.495       32.744       20.911      869.939     1072.145      437.265        0.527        0.119       90.318       12.264        0.018      343.688       19.975      864.333
08/10/2014  01:24:00      -19.919      -62.331        2.511       32.865       27.824       23.641     1080.105      774.150      558.917        0.335        0.121       65.436       11.884        0.033      343.634       19.885      864.334
08/10/2014  01:25:00      -14.569      -20.596        3.331       17.067       21.769       16.406      291.276      473.892      269.170        0.084        0.052       25.228       10.549        0.175      343.657       19.922      864.344
08/10/2014  01:26:00      -22.010       -6.824       15.441       41.410       32.019       20.800     1714.809     1025.205      432.641        0.197        0.159       23.044       22.340        0.940      343.566       19.768      864.342
08/10/2014  01:27:00      -14.871       -9.384       -3.809       18.644       17.885       13.745      347.592      319.865      188.924        0.059        0.043       17.584        9.850        0.314      343.519       19.685      864.325
08/10/2014  01:28:00       -9.613      -54.974        4.969       25.662       46.685       27.089      658.534     2179.469      733.828        0.335        0.179       55.808       22.983        0.170      343.595       19.817      864.304
08/10/2014  01:29:00       -6.219      -30.514        5.428       21.479       39.792       20.217      461.341     1583.417      408.747        0.173        0.123       31.142       17.376        0.311      343.539       19.722      864.291
08/10/2014  01:30:00        1.640      -64.096        5.420       26.350       50.374       25.900      694.346     2537.500      670.800        0.402        0.195       64.117       18.668        0.085      343.569       19.772      864.293
08/10/2014  01:31:00       30.166      -85.761       -9.641       63.042       48.115       31.628     3974.324     2315.020     1000.343        0.782        0.364       90.911       23.291        0.066      343.734       20.054      864.300
08/10/2014  01:32:00       -0.374      -14.825       14.483       26.697       44.866       27.953      712.739     2012.956      781.375        0.197        0.175       14.830       31.484        4.507      343.556       19.750      864.302
08/10/2014  01:33:00       27.957      -27.333       21.117       33.550       42.902       26.989     1125.578     1840.620      728.413        0.283        0.185       39.098       26.175        0.448      343.538       19.720      864.289
08/10/2014  01:34:00        4.064      -20.642        3.285       23.929       17.871       17.470      572.617      319.380      305.216        0.083        0.060       21.038       10.956        0.271      343.528       19.704      864.278
08/10/2014  01:35:00        8.107       19.582       10.151       16.304       11.472       13.106      265.830      131.604      171.768        0.056        0.028       21.194        8.532        0.162      343.393       19.473      864.280
08/10/2014  01:36:00        9.411       17.071       -2.891       15.652       12.165       11.725      244.976      147.994      137.475        0.046        0.027       19.493        6.949        0.127      343.409       19.499      864.287
08/10/2014  01:37:00       26.050       20.151        0.008       15.867       13.836       11.312      251.763      191.449      127.966        0.083        0.029       32.934        9.896        0.090      343.329       19.361      864.293
08/10/2014  01:38:00        2.318       24.234       -1.932       15.834        9.231        9.072      250.712       85.216       82.299        0.051        0.021       24.344        8.695        0.128      343.254       19.236      864.308
08/10/2014  01:39:00       10.868       42.855       -2.595       16.794       19.687        9.356      282.033      387.559       87.536        0.136        0.038       44.211        7.551        0.029      343.255       19.237      864.308
08/10/2014  01:40:00       -1.311       49.946       -9.398        9.873       18.579        7.859       97.483      345.192       61.766        0.154        0.025       49.963        9.948        0.040      343.304       19.320      864.288
08/10/2014  01:41:00      -38.445       42.381      -10.278       11.749       19.390        7.368      138.035      375.977       54.294        0.197        0.028       57.220        7.983        0.019      343.262       19.250      864.282
08/10/2014  01:42:00      -27.977       33.677       -5.708       13.135       13.839       13.008      172.537      191.520      169.202        0.124        0.027       43.782        4.919        0.013      343.202       19.148      864.297
08/10/2014  01:43:00       -9.837       19.616       -5.541       11.950       11.300        6.219      142.807      127.692       38.680        0.041        0.015       21.945        4.986        0.052      343.299       19.314      864.303
08/10/2014  01:44:00       28.237       19.186        0.959       12.256       11.357       10.575      150.221      128.975      111.820        0.078        0.020       34.138        6.999        0.042      343.325       19.356      864.319
08/10/2014  01:45:00       46.260       27.140        7.568       11.464        7.924       13.480      131.414       62.786      181.699        0.165        0.019       53.634        6.320        0.014      343.178       19.108      864.342
08/10/2014  01:46:00       72.238       43.180       12.848       14.135       10.238       11.292      199.804      104.818      127.513        0.384        0.022       84.160        7.565        0.008      343.144       19.049      864.351
08/10/2014  01:47:00       74.635       55.049        8.578       26.771       12.402       10.499      716.700      153.808      110.235        0.483        0.049       92.740        3.186        0.001      343.236       19.204      864.337
08/10/2014  01:48:00       54.676       50.700       -2.967       24.820       20.426       17.083      616.026      417.225      291.824        0.345        0.066       74.565       12.683        0.029      343.150       19.058      864.318
08/10/2014  01:49:00       50.170       41.216        4.503       30.018       22.078       21.430      901.069      487.425      459.245        0.304        0.092       64.929       14.835        0.052      343.156       19.069      864.298
08/10/2014  01:50:00       43.945       38.082        6.820       34.840       21.641       24.290     1213.831      468.331      589.982        0.285        0.114       58.150       17.059        0.086      343.134       19.033      864.279
08/10/2014  01:51:00       26.574       15.658        2.254       16.404       16.419       12.284      269.097      269.573      150.895        0.082        0.034       30.844        5.556        0.032      343.021       18.840      864.265
08/10/2014  01:52:00        1.071       47.008       -4.753       11.916       38.978       10.695      142.003     1519.269      114.386        0.200        0.089       47.020        8.906        0.036      343.096       18.967      864.252
08/10/2014  01:53:00      -36.891       92.389      -17.945       21.180       16.547        9.809      448.599      273.806       96.210        0.552        0.041       99.482        5.458        0.003      343.134       19.031      864.229
08/10/2014  01:54:00      -69.127       51.121      -14.445       25.686       25.293       14.900      659.777      639.722      221.998        0.456        0.076       85.976       17.056        0.039      342.943       18.708      864.223
08/10/2014  01:55:00      -88.976       46.847      -17.286       25.889       25.907       17.928      670.233      671.157      321.401        0.604        0.083      100.555       11.193        0.012      342.978       18.766      864.218
08/10/2014  01:56:00      -69.305       23.107       -9.812       25.274       28.232       20.464      638.766      797.058      418.787        0.364        0.093       73.055       11.823        0.026      343.032       18.858      864.233
08/10/2014  01:57:00      -24.851      -24.682      -10.829       22.903       16.637       18.686      524.556      276.798      349.152        0.125        0.058       35.025       16.771        0.229      343.122       19.012      864.248
08/10/2014  01:58:00       -8.804       -4.061        2.373       18.971       14.949       12.829      359.912      223.468      164.595        0.042        0.037        9.695       12.059        1.547      343.115       19.000      864.250
08/10/2014  01:59:00      -34.548       -5.498       -5.858       14.642        7.604        6.888      214.381       57.828       47.450        0.079        0.016       34.983        7.096        0.041      343.233       19.203      864.246
08/10/2014  02:00:00       44.723       41.022       12.217       37.412       46.013       34.887     1399.661     2117.159     1217.069        0.428        0.237       60.687       23.030        0.144      343.218       19.175      864.248
08/10/2014  02:01:00       86.705       31.883       36.438       39.907       36.007       41.186     1592.590     1296.501     1696.299        0.722        0.229       92.381       16.508        0.032      343.013       18.826      864.262
08/10/2014  02:02:00       75.375       29.675        6.907       26.369       25.760       20.704      695.311      663.557      428.647        0.420        0.089       81.006       11.500        0.020      343.000       18.804      864.257
08/10/2014  02:03:00       36.933       25.492        6.115       20.839       18.794       11.468      434.263      353.208      131.521        0.148        0.046       44.876        7.751        0.030      342.938       18.698      864.242
08/10/2014  02:04:00       28.503       66.376       -2.865       21.271       31.307       13.961      452.451      980.110      194.922        0.343        0.081       72.237       15.286        0.045      343.157       19.069      864.227
08/10/2014  02:05:00       59.410       54.327        3.597       38.960       23.714       24.312     1517.906      562.344      591.070        0.458        0.134       80.505       16.523        0.042      343.318       19.345      864.256
08/10/2014  02:06:00       79.929       59.261       12.807       29.923       20.475       17.481      895.361      419.238      305.582        0.584        0.081       99.501       14.493        0.021      343.241       19.215      864.275
08/10/2014  02:07:00       92.714       70.440       10.186       40.645       29.177       26.589     1652.024      851.299      706.952        0.844        0.161      116.438       20.774        0.032      343.141       19.045      864.275
08/10/2014  02:08:00       30.750       70.079        0.059       23.764       30.533       18.396      564.707      932.287      338.404        0.385        0.092       76.528       10.729        0.020      343.168       19.090      864.279
08/10/2014  02:09:00       46.311       57.881        4.824       38.015       30.641       28.132     1445.128      938.853      791.408        0.435        0.159       74.128       20.867        0.079      343.118       19.004      864.271
08/10/2014  02:10:00       45.275       70.095        4.353       29.622       39.152       25.783      877.473     1532.877      664.751        0.503        0.154       83.445       20.218        0.059      343.192       19.131      864.267
08/10/2014  02:11:00       53.481       68.629        0.399       44.959       37.217       27.067     2021.268     1385.113      732.608        0.585        0.207       87.007       22.611        0.068      343.223       19.183      864.265
08/10/2014  02:12:00       39.777       70.328       -5.304       31.245       35.427       25.951      976.266     1255.039      673.429        0.473        0.145       80.798       17.774        0.048      343.124       19.015      864.256
08/10/2014  02:13:00       20.859       50.720       -2.974       34.905       43.159       23.933     1218.359     1862.698      572.770        0.333        0.183       54.842       20.503        0.140      343.072       18.926      864.252
08/10/2014  02:14:00       59.456       41.659        3.491       31.089       30.456       21.397      966.542      927.548      457.841        0.382        0.118       72.598       17.243        0.056      343.078       18.937      864.257
08/10/2014  02:15:00       36.627       23.558       11.893       32.727       21.040       20.599     1071.050      442.677      424.301        0.199        0.097       43.549       14.746        0.115      343.022       18.841      864.260
08/10/2014  02:16:00       13.915       37.386       -2.347       12.587       22.771       11.795      158.434      518.534      139.121        0.121        0.041       39.892       12.253        0.094      343.044       18.878      864.262
08/10/2014  02:17:00        6.922       65.325      -10.600       13.181       14.993        8.883      173.727      224.799       78.911        0.245        0.024       65.690        5.945        0.008      343.156       19.068      864.256
08/10/2014  02:18:00       12.852       87.206       -9.920       17.735       19.853        8.484      314.547      394.160       71.972        0.432        0.039       88.148        8.001        0.008      343.211       19.163      864.248
08/10/2014  02:19:00        8.937      120.652      -17.062       18.646       24.740       12.227      347.690      612.059      149.498        0.802        0.055      120.982        7.058        0.003      343.275       19.272      864.222
08/10/2014  02:20:00       21.081      143.713      -21.073       21.627       34.298       18.503      467.713     1176.376      342.369        1.176        0.099      145.251       19.108        0.017      343.237       19.206      864.199
08/10/2014  02:21:00       24.719      118.579      -16.639       26.357       39.550       23.129      694.703     1564.192      534.949        0.887        0.140      121.128       23.379        0.037      343.196       19.137      864.195
08/10/2014  02:22:00      -15.847      125.554      -20.911       14.962       18.748       10.074      223.862      351.493      101.480        0.856        0.034      126.550        5.616        0.002      343.250       19.230      864.164
08/10/2014  02:23:00      -10.783      132.763      -17.609       20.456       17.957       11.933      418.442      322.453      142.401        0.947        0.044      133.201        8.125        0.004      343.255       19.238      864.140
08/10/2014  02:24:00      -20.095      122.991      -11.035       15.261       33.244        9.815      232.907     1105.162       96.331        0.854        0.072      124.622       10.189        0.007      343.267       19.260      864.128
08/10/2014  02:25:00       16.992      104.808      -11.351       25.588       39.994       17.621      654.725     1599.483      310.489        0.698        0.128      106.176       17.080        0.026      343.392       19.472      864.122
08/10/2014  02:26:00       28.640       97.522      -13.495       28.043       33.069       15.316      786.422     1093.586      234.583        0.631        0.106      101.640        9.866        0.009      343.351       19.402      864.108
08/10/2014  02:27:00       32.184       40.117       -2.349       36.535       32.867       20.265     1334.779     1080.237      410.660        0.274        0.141       51.431        8.748        0.029      343.210       19.162      864.095
08/10/2014  02:28:00        5.722       37.294       -2.084       19.788       25.305       12.077      391.574      640.334      145.842        0.130        0.059       37.731       11.947        0.100      343.193       19.132      864.094
08/10/2014  02:29:00       -0.698       89.050      -10.931       19.201       18.747        7.879      368.672      351.467       62.072        0.442        0.039       89.052        6.017        0.005      343.236       19.204      864.084
08/10/2014  02:30:00      -30.615       82.653      -13.680       19.472       35.169       11.501      379.158     1236.871      132.277        0.485        0.087       88.141       13.458        0.023      343.224       19.187      864.063
08/10/2014  02:31:00      -37.749       24.543      -11.040       20.107       20.943       11.262      404.311      438.594      126.839        0.156        0.048       45.026       11.455        0.065      343.039       18.870      864.053
08/10/2014  02:32:00      -28.936       48.331       -8.660       19.679       26.864       11.144      387.257      721.685      124.197        0.224        0.062       56.331        7.100        0.016      343.016       18.830      864.063
08/10/2014  02:33:00      -16.933       60.885       -0.300       20.271       34.656       19.797      410.921     1201.007      391.926        0.300        0.100       63.196       19.225        0.093      343.106       18.984      864.066
08/10/2014  02:34:00        4.982       90.020       -6.538       13.892       28.152       16.567      192.994      792.552      274.466        0.472        0.063       90.158       17.418        0.037      343.226       19.188      864.059
08/10/2014  02:35:00       -7.904       19.996       -1.788       20.487       36.361        9.348      419.698     1322.133       87.392        0.115        0.091       21.501       11.039        0.264      343.114       18.998      864.041
08/10/2014  02:36:00      -10.366       32.647       -4.176       21.346       31.233       17.870      455.649      975.516      319.329        0.147        0.088       34.253       20.133        0.345      342.982       18.773      864.034
08/10/2014  02:37:00      -42.926       50.279      -12.085       19.842       32.942       10.219      393.691     1085.144      104.418        0.305        0.079       66.111       12.278        0.034      343.141       19.044      864.028
08/10/2014  02:38:00      -59.462      107.804      -17.680       23.428       29.362       15.374      548.854      862.129      236.362        0.856        0.082      123.115       12.664        0.011      343.263       19.252      864.016
08/10/2014  02:39:00      -45.369      109.683      -13.569       23.060       24.844       12.509      531.763      617.214      156.487        0.779        0.065      118.696       10.358        0.008      343.378       19.447      864.010
08/10/2014  02:40:00      -22.745      147.472      -21.087       18.491       38.828       15.260      341.909     1507.641      232.882        1.240        0.104      149.215       18.689        0.016      343.392       19.472      864.014
08/10/2014  02:41:00      -25.994      162.606      -23.452       17.627       17.465       10.606      310.707      305.040      112.492        1.420        0.036      164.670        6.104        0.001      343.421       19.521      864.016
08/10/2014  02:42:00        3.903      130.654      -17.680       16.907       19.203       11.001      285.859      368.769      121.025        0.909        0.039      130.712        9.314        0.005      343.436       19.545      864.038
08/10/2014  02:43:00       -5.954      122.894      -16.018       12.600       16.109        7.569      158.773      259.490       57.292        0.794        0.024      123.038        5.585        0.002      343.352       19.405      864.052
08/10/2014  02:44:00       16.097      110.525      -14.784       17.870       17.878        7.509      319.329      319.620       56.390        0.669        0.035      111.691        8.581        0.006      343.367       19.428      864.059
08/10/2014  02:45:00       17.162       98.523      -14.711       16.789       27.656       12.762      281.883      764.845      162.881        0.571        0.060      100.007       10.425        0.011      343.433       19.541      864.069
08/10/2014  02:46:00       19.202       96.058      -13.354       12.200       15.276        7.317      148.838      233.367       53.542        0.510        0.022       97.958        4.690        0.002      343.448       19.567      864.077
08/10/2014  02:47:00       17.829       34.545       -4.952       13.340       29.970       10.444      177.965      898.228      109.084        0.136        0.059       38.875        7.492        0.037      343.308       19.329      864.087
08/10/2014  02:48:00       25.856       20.269        4.703       16.975       20.709       10.727      288.136      428.858      115.069        0.097        0.042       32.854       13.228        0.162      343.232       19.200      864.083
08/10/2014  02:49:00       41.075       52.569       -1.746       27.264       29.215       18.628      743.330      853.528      346.994        0.320        0.097       66.713       17.254        0.067      343.307       19.326      864.093
08/10/2014  02:50:00       73.066       45.931       18.485       34.180       21.180       22.604     1168.262      448.576      510.937        0.496        0.106       86.304       13.298        0.024      343.420       19.520      864.099
08/10/2014  02:51:00       56.745       35.428       11.356       24.585       22.713       17.683      604.434      515.887      312.690        0.302        0.072       66.897       11.122        0.028      343.323       19.354      864.104
08/10/2014  02:52:00       23.593        6.812        6.578       15.789       20.992       15.284      249.294      440.656      233.604        0.078        0.046       24.557       11.203        0.208      343.179       19.110      864.111
08/10/2014  02:53:00       10.718        0.999        2.784       11.248        8.792        7.179      126.510       77.299       51.535        0.019        0.013       10.765        6.531        0.368      343.208       19.157      864.126
08/10/2014  02:54:00      -11.491        1.291       -1.056        9.674        6.742        3.263       93.596       45.452       10.646        0.014        0.007       11.563        3.359        0.084      343.204       19.150      864.126
08/10/2014  02:55:00      -15.706       13.556        4.174       16.257       10.946        5.540      264.297      119.813       30.691        0.043        0.021       20.748        5.745        0.077      343.207       19.156      864.118
08/10/2014  02:56:00      -39.658        7.789        2.039        6.341       10.491        7.204       40.213      110.071       51.892        0.092        0.010       40.416        4.551        0.013      342.867       18.575      864.120
08/10/2014  02:57:00      -36.447       -7.581       -2.237       10.104       10.712        6.905      102.083      114.740       47.681        0.083        0.013       37.227        3.610        0.009      343.031       18.857      864.114
08/10/2014  02:58:00       -1.248       -2.986       -1.517       15.278        6.060        5.702      233.412       36.719       32.510        0.016        0.015        3.236        6.818        4.439      343.040       18.872      864.115
08/10/2014  02:59:00      -10.370       -3.422       24.653       22.352       19.581       11.245      499.592      383.404      126.458        0.087        0.050       10.920        9.326        0.729      343.014       18.828      864.114
08/10/2014  03:00:00       29.735       18.817       15.769       26.020       14.484       14.214      677.048      209.772      202.038        0.129        0.054       35.189        5.022        0.020      342.952       18.723      864.106
08/10/2014  03:01:00        3.814       -5.829        8.062       11.362       12.964        9.339      129.085      168.072       87.225        0.025        0.019        6.966        6.442        0.855      343.021       18.839      864.098
08/10/2014  03:02:00      -36.723      -12.308       -3.844       21.868       11.760       11.038      478.224      138.288      121.843        0.113        0.037       38.730        8.311        0.046      342.903       18.637      864.100
08/10/2014  03:03:00       11.090       32.957       -7.530       20.151       14.303        9.365      406.051      204.562       87.697        0.098        0.035       34.773        9.895        0.081      343.129       19.023      864.107
08/10/2014  03:04:00      -36.188       18.623       -6.456       12.656       13.739        8.952      160.164      188.766       80.131        0.106        0.021       40.699        5.671        0.019      342.802       18.467      864.118
08/10/2014  03:05:00       14.474       35.519       -3.578       18.073       17.355       10.459      326.629      301.191      109.384        0.111        0.037       38.355        9.362        0.060      342.986       18.780      864.132
08/10/2014  03:06:00       19.577       64.373       -7.896       19.438       31.329       16.064      377.848      981.485      258.045        0.310        0.081       67.284       18.006        0.072      343.032       18.858      864.136
08/10/2014  03:07:00       12.796      106.302      -15.454       22.774       22.732       10.140      518.644      516.765      102.828        0.642        0.057      107.069        8.934        0.007      343.069       18.921      864.128
08/10/2014  03:08:00       19.332      116.232      -16.419       20.602       25.606       16.824      424.434      655.661      283.033        0.776        0.068      117.829       15.488        0.017      343.063       18.912      864.131
08/10/2014  03:09:00       18.835      135.262      -20.761       19.479       24.957       12.854      379.442      622.851      165.232        1.012        0.058      136.567        9.911        0.005      343.062       18.908      864.131
08/10/2014  03:10:00      -21.265      122.500      -18.196       20.028       22.432       13.932      401.121      503.182      194.090        0.844        0.055      124.332       10.302        0.007      343.117       19.002      864.129
08/10/2014  03:11:00      -27.533      132.818      -21.810       13.885       15.833        9.224      192.805      250.688       85.083        0.970        0.026      135.642        4.704        0.001      343.118       19.003      864.131
08/10/2014  03:12:00      -20.931      124.987      -15.704       15.081       20.645       10.925      227.440      426.210      119.346        0.854        0.039      126.727       10.268        0.007      343.125       19.017      864.129
08/10/2014  03:13:00        3.411      111.120      -13.882       23.264       23.812       10.338      541.221      567.011      106.870        0.688        0.061      111.172        5.186        0.002      343.122       19.012      864.147
08/10/2014  03:14:00       -8.620       86.659       -9.764       22.867       19.233       10.643      522.921      369.920      113.273        0.434        0.050       87.086        9.769        0.013      343.108       18.988      864.150
08/10/2014  03:15:00      -25.363       86.098      -15.876       24.593       36.466       10.877      604.793     1329.795      118.318        0.518        0.103       89.756       12.105        0.018      343.119       19.007      864.128
08/10/2014  03:16:00      -44.764       41.782      -10.803       22.940       17.827       10.143      526.241      317.788      102.886        0.241        0.047       61.234        9.003        0.022      342.972       18.756      864.098
08/10/2014  03:17:00      -44.397       22.604       -1.535       26.383       23.571       14.829      696.044      555.614      219.885        0.198        0.074       49.820       17.264        0.120      342.875       18.591      864.074
08/10/2014  03:18:00      -47.523        8.129       -5.424       21.275       21.299       11.071      452.622      453.633      122.557        0.169        0.051       48.214       11.795        0.060      342.765       18.402      864.072
08/10/2014  03:19:00      -36.169       -3.784       -4.906       15.412        8.686        7.095      237.538       75.446       50.335        0.085        0.018       36.367        7.343        0.041      342.514       17.976      864.077
08/10/2014  03:20:00      -35.433      -12.974       -9.984       13.315       20.704       10.992      177.280      428.636      120.818        0.112        0.036       37.733       11.385        0.091      342.552       18.040      864.093
08/10/2014  03:21:00      -47.199      -19.848       -7.143       12.472       14.535       10.626      155.561      211.253      112.919        0.158        0.024       51.202        6.764        0.017      342.560       18.053      864.097
08/10/2014  03:22:00      -43.384      -25.871       -9.807       14.350       10.587        9.754      205.932      112.092       95.142        0.153        0.021       50.512        6.570        0.017      342.553       18.044      864.087
08/10/2014  03:23:00      -85.160        0.428      -15.084       15.000       14.416        9.650      225.011      207.835       93.127        0.400        0.026       85.161        6.560        0.006      342.580       18.088      864.081
08/10/2014  03:24:00      -75.979      -17.585      -10.633       21.548       13.976       11.348      464.302      195.320      128.769        0.349        0.039       77.987        7.402        0.009      342.535       18.014      864.075
08/10/2014  03:25:00     -122.007      -26.793      -11.578       25.809       14.611       11.567      666.109      213.467      133.785        0.838        0.051      124.914        9.278        0.006      342.390       17.765      864.063
08/10/2014  03:26:00      -93.849        4.675       -7.623       45.676       42.668       23.217     2086.268     1820.517      539.048        0.667        0.222       93.965       23.907        0.065      342.311       17.631      864.056
08/10/2014  03:27:00     -104.814       12.418      -13.439       42.462       35.015       21.671     1802.986     1226.017      469.628        0.741        0.175      105.547       20.493        0.038      342.272       17.565      864.043
08/10/2014  03:28:00      -64.356        2.496        1.422       28.893       27.014       18.695      834.802      729.745      349.495        0.303        0.096       64.405       14.167        0.048      342.245       17.520      864.036
08/10/2014  03:29:00      -96.163      -11.526      -15.171       32.044       28.000       18.067     1026.803      783.974      326.425        0.587        0.107       96.852       15.235        0.025      342.300       17.614      864.024
08/10/2014  03:30:00     -102.064      -10.390      -11.164       32.272       26.843       20.409     1041.478      720.532      416.531        0.641        0.109      102.592       17.770        0.030      342.282       17.582      864.007
08/10/2014  03:31:00     -119.735       -4.641      -10.487       60.408       38.313       28.229     3649.094     1467.863      796.868        1.019        0.296      119.825       26.726        0.050      342.272       17.564      863.994
08/10/2014  03:32:00     -127.035        6.314      -19.378       42.836       41.970       25.392     1834.959     1761.469      644.777        1.040        0.212      127.192       23.833        0.035      342.290       17.596      863.982
08/10/2014  03:33:00     -122.451       15.693       -5.690       47.390       36.563       25.894     2245.817     1336.837      670.482        0.976        0.213      123.452       24.400        0.039      342.255       17.538      863.953
08/10/2014  03:34:00      -82.575       26.577       -6.599       47.386       33.577       28.327     2245.445     1127.423      802.395        0.587        0.209       86.747       22.941        0.070      342.263       17.548      863.930
08/10/2014  03:35:00     -129.466       57.124       -9.735       53.697       34.119       38.018     2883.353     1164.116     1445.381        1.280        0.275      141.508       22.495        0.025      342.426       17.828      863.925
08/10/2014  03:36:00      -48.394        6.964      -10.923       35.628       27.816       17.876     1269.360      773.755      319.558        0.244        0.118       48.892       19.396        0.157      342.471       17.905      863.923
08/10/2014  03:37:00       -4.948        5.059       -7.286       16.184       17.687       10.338      261.909      312.839      106.879        0.039        0.034        7.076        6.470        0.836      342.429       17.835      863.917
08/10/2014  03:38:00      -69.286       20.873      -14.894       27.935       22.010       16.553      780.343      484.419      274.002        0.350        0.077       72.362        9.168        0.016      342.549       18.038      863.906
08/10/2014  03:39:00      -91.436       -7.180      -16.043       23.740       27.633       13.497      563.602      763.596      182.179        0.509        0.075       91.718        9.449        0.011      342.557       18.050      863.890
08/10/2014  03:40:00      -33.527      -15.791       -7.198       45.178       13.619       14.100     2041.033      185.464      198.800        0.192        0.121       37.060       17.795        0.231      342.482       17.925      863.887
08/10/2014  03:41:00       -5.723      -43.963      -12.340       13.115       17.313       15.718      172.013      299.745      247.061        0.142        0.036       44.334        9.016        0.041      342.572       18.076      863.898
08/10/2014  03:42:00       -6.512      -63.821       -5.080       22.613       16.983       13.048      511.330      288.420      170.245        0.256        0.048       64.152        6.858        0.011      342.637       18.184      863.920
08/10/2014  03:43:00      -12.477      -39.204      -11.808       18.435       23.461       10.018      339.835      550.410      100.360        0.141        0.050       41.142        8.178        0.040      342.686       18.268      863.939
08/10/2014  03:44:00      -22.269      -25.461        0.698       15.807       12.355       15.634      249.859      152.642      244.420        0.090        0.032       33.826        8.133        0.058      342.659       18.223      863.954
08/10/2014  03:45:00      -39.770      -25.106        0.799       29.961       16.606       12.830      897.644      275.762      164.600        0.178        0.067       47.032       13.851        0.087      342.634       18.180      863.960
08/10/2014  03:46:00      -29.226      -46.505        0.435       39.867       23.124       17.841     1589.408      534.735      318.301        0.273        0.122       54.927       15.512        0.080      342.655       18.215      863.968
08/10/2014  03:47:00     -100.274      -77.164       -8.492       27.050       32.504       19.152      731.692     1056.542      366.787        0.912        0.108      126.527       11.588        0.008      342.669       18.239      863.962
08/10/2014  03:48:00      -71.336      -61.028        7.132       69.452       42.512       29.987     4823.580     1807.264      899.211        0.820        0.377       93.879       38.027        0.164      342.499       17.950      863.967
08/10/2014  03:49:00     -153.133     -122.794      -10.517       39.895       60.088       29.917     1591.593     3610.545      895.043        2.237        0.305      196.285       28.777        0.021      342.349       17.694      863.970
08/10/2014  03:50:00     -102.400     -118.458       -9.215       57.935       55.030       31.982     3356.444     3028.252     1022.859        1.600        0.370      156.582       28.903        0.034      342.288       17.591      863.982
08/10/2014  03:51:00      -52.131      -92.391        2.973       39.567       49.368       31.699     1565.565     2437.230     1004.799        0.813        0.250      106.084       19.436        0.034      342.257       17.541      864.001
08/10/2014  03:52:00      -51.298     -139.545       -6.499       40.102       72.335       23.479     1608.176     5232.411      551.280        1.477        0.370      148.675       13.502        0.008      342.250       17.526      864.002
08/10/2014  03:53:00      -42.358      -96.808        8.730       31.895       57.636       19.908     1017.287     3321.926      396.312        0.799        0.237      105.669       24.247        0.053      342.250       17.528      863.978
08/10/2014  03:54:00      -71.118      -80.284        4.360       41.267       50.577       29.093     1702.949     2558.005      846.393        0.831        0.255      107.254       26.739        0.062      342.222       17.479      863.945
08/10/2014  03:55:00      -96.537      -53.981       -1.443       20.076       19.429       14.858      403.026      377.471      220.772        0.662        0.050      110.604       11.976        0.012      342.211       17.460      863.927
08/10/2014  03:56:00      -94.851      -54.153       -6.847       25.834       32.521       16.165      667.397     1057.643      261.317        0.698        0.099      109.221       13.822        0.016      342.206       17.453      863.908
08/10/2014  03:57:00      -80.034      -42.896       -4.607       20.947       16.896       12.381      438.770      285.489      153.282        0.457        0.044       90.805        9.588        0.011      342.209       17.458      863.886
08/10/2014  03:58:00      -73.457      -31.904       -4.598       24.301        9.921       17.212      590.536       98.426      296.242        0.371        0.049       80.086       17.851        0.050      342.239       17.507      863.869
08/10/2014  03:59:00      -87.514      -16.676       -6.630       21.539       15.472       10.866      463.940      239.380      118.064        0.440        0.041       89.088        7.398        0.007      342.241       17.513      863.852
08/10/2014  04:00:00      -72.661      -17.173        0.543       32.316       23.412       17.402     1044.307      548.139      302.826        0.373        0.095       74.663       14.387        0.037      342.206       17.453      863.828
08/10/2014  04:01:00      -80.113      -19.316       -7.106       23.427       18.990       11.997      548.805      360.634      143.932        0.395        0.053       82.409       10.117        0.015      342.209       17.458      863.808
08/10/2014  04:02:00      -62.001      -27.428       -4.557       16.907       16.315        9.991      285.848      266.194       99.810        0.263        0.033       67.797        7.697        0.013      342.244       17.518      863.793
08/10/2014  04:03:00      -81.396      -16.824       -8.342       16.797       18.679       11.866      282.130      348.923      140.807        0.387        0.039       83.116        9.382        0.013      342.251       17.529      863.802
08/10/2014  04:04:00      -76.491      -45.151       -5.238       23.415       18.621       15.368      548.245      346.758      236.168        0.452        0.057       88.823        7.413        0.007      342.221       17.476      863.817
08/10/2014  04:05:00      -37.448      -38.371       -4.402       34.803       21.247       15.375     1211.271      451.423      236.379        0.240        0.095       53.615        7.922        0.022      342.170       17.394      863.831
08/10/2014  04:06:00      -10.830      -22.451       -1.702       23.773       19.066       17.276      565.171      363.501      298.461        0.093        0.061       24.926       10.855        0.190      342.174       17.400      863.850
08/10/2014  04:07:00      -26.797        2.104        0.817       20.250        9.499       13.651      410.071       90.240      186.359        0.070        0.034       26.880        9.687        0.130      342.160       17.375      863.869
08/10/2014  04:08:00      -67.239      -28.081       -2.842       14.738       13.425       10.732      217.214      180.218      115.179        0.292        0.026       72.867        8.541        0.014      342.178       17.408      863.892
08/10/2014  04:09:00      -96.298      -30.638      -14.328       15.260       18.736       15.359      232.873      351.054      235.908        0.562        0.041      101.054        9.033        0.008      342.173       17.397      863.899
08/10/2014  04:10:00      -96.405      -51.720      -13.047       58.631       31.134       18.115     3437.544      969.327      328.163        0.844        0.237      109.403       18.124        0.027      342.115       17.295      863.885
08/10/2014  04:11:00     -142.922      -57.422       -4.552       34.070       37.013       21.560     1160.746     1369.991      464.832        1.337        0.150      154.026       14.182        0.008      342.035       17.163      863.861
08/10/2014  04:12:00     -114.072       -6.304       -5.499       52.388       29.995       26.567     2744.545      899.676      705.803        0.872        0.218      114.246       27.718        0.059      342.039       17.170      863.851
08/10/2014  04:13:00     -156.598        3.447      -11.513       30.318       23.420       16.716      919.159      548.488      279.425        1.321        0.087      156.636       14.516        0.009      342.032       17.157      863.852
08/10/2014  04:14:00     -142.020       -5.474      -12.644       38.378       25.246       20.000     1472.849      637.362      400.003        1.143        0.126      142.126       22.629        0.025      342.005       17.112      863.857
08/10/2014  04:15:00     -113.908      -10.223       -4.579       50.397       24.553       18.483     2539.850      602.832      341.609        0.829        0.174      114.366       23.243        0.041      341.983       17.075      863.871
08/10/2014  04:16:00      -74.017      -11.886       -8.062       33.977       21.589       15.287     1154.464      466.067      233.680        0.377        0.093       74.965       14.644        0.038      342.032       17.157      863.885
08/10/2014  04:17:00      -43.715       26.630       -1.363       31.377       27.340       19.105      984.513      747.464      365.015        0.236        0.105       51.187       16.277        0.101      342.082       17.244      863.896
08/10/2014  04:18:00      -51.873        7.453      -14.325       28.915       31.515       16.758      836.094      993.198      280.815        0.253        0.106       52.406       12.220        0.054      342.128       17.322      863.907
08/10/2014  04:19:00      -68.140       -6.073       -5.997       35.506       22.512       16.952     1260.666      506.777      287.362        0.338        0.103       68.410       19.012        0.077      342.099       17.273      863.910
08/10/2014  04:20:00      -70.197       -2.799        2.181       29.074       25.663       17.783      845.290      658.585      316.245        0.338        0.091       70.252       11.201        0.025      342.086       17.250      863.902
08/10/2014  04:21:00      -62.235       -8.487       -9.885       29.656       23.501       15.139      879.475      552.287      229.175        0.285        0.083       62.811       14.719        0.055      341.978       17.065      863.876
08/10/2014  04:22:00     -107.342       -4.631      -11.714       38.981       27.447       24.105     1519.518      753.336      581.053        0.727        0.143      107.442       12.700        0.014      342.023       17.143      863.858
08/10/2014  04:23:00     -110.382      -12.500      -10.583       56.518       34.290       30.032     3194.321     1175.836      901.935        0.886        0.264      111.088       33.055        0.089      341.998       17.101      863.835
08/10/2014  04:24:00      -85.026       13.995       -5.770       37.058       28.355       21.144     1373.295      804.030      447.051        0.504        0.131       86.170       17.970        0.043      342.071       17.224      863.837
08/10/2014  04:25:00      -74.827        1.694       -2.713       18.487       20.417       15.504      341.776      416.860      240.380        0.330        0.050       74.846       11.552        0.024      342.024       17.145      863.849
08/10/2014  04:26:00      -57.542      -12.912        0.111       18.050       18.450        9.849      325.819      340.415       96.994        0.212        0.038       58.973        9.358        0.025      342.020       17.140      863.846
08/10/2014  04:27:00      -20.153      -13.358       -2.100       20.770       10.329        7.429      431.407      106.697       55.184        0.059        0.030       24.178        3.441        0.020      342.004       17.110      863.848
08/10/2014  04:28:00      -17.083      -18.878       -6.530       19.268        9.263        8.367      371.260       85.800       70.007        0.061        0.026       25.460        5.042        0.039      342.105       17.282      863.853
08/10/2014  04:29:00      -71.270      -23.880      -12.206       20.393       11.304        8.327      415.867      127.772       69.343        0.321        0.031       75.165        7.072        0.009      342.053       17.195      863.851
08/10/2014  04:30:00      -86.679      -45.351      -13.927       18.287       13.688        8.571      334.423      187.367       73.460        0.518        0.030       97.826        5.420        0.003      342.084       17.247      863.855
08/10/2014  04:31:00      -62.298      -45.902      -12.158       18.257       17.708       11.115      333.305      313.584      123.535        0.345        0.039       77.383        7.087        0.008      342.041       17.174      863.866
08/10/2014  04:32:00      -27.418      -32.564        1.000       12.490       11.859        8.541      156.012      140.627       72.956        0.109        0.018       42.569        6.678        0.025      342.001       17.103      863.886
08/10/2014  04:33:00      -63.617        1.338       -5.643       20.408        8.833        8.071      416.471       78.028       65.147        0.232        0.028       63.631        9.071        0.020      342.080       17.240      863.905
08/10/2014  04:34:00      -82.102       23.262       -6.736        8.278        8.490        3.799       68.517       72.076       14.435        0.374        0.008       85.334        2.718        0.001      342.133       17.331      863.903
08/10/2014  04:35:00      -62.166       22.356      -11.380       12.542       18.176        9.021      157.294      330.373       81.387        0.253        0.028       66.064        5.374        0.007      342.148       17.355      863.865
08/10/2014  04:36:00      -51.727       -1.978       -7.722        8.265       13.372       12.229       68.309      178.815      149.548        0.157        0.020       51.765        4.799        0.009      342.096       17.266      863.850
08/10/2014  04:37:00      -15.670      -14.606       -2.006       23.861       12.528        8.742      569.348      156.938       76.425        0.063        0.040       21.422        7.758        0.131      342.028       17.151      863.844
08/10/2014  04:38:00       -2.422      -16.396       -8.664        6.742       11.429        6.964       45.453      130.618       48.497        0.029        0.011       16.574        4.020        0.059      342.336       17.674      863.841
08/10/2014  04:39:00      -30.932       -8.696       -3.402       16.416        9.226       11.699      269.480       85.119      136.865        0.077        0.025       32.132        9.338        0.084      342.252       17.532      863.831
08/10/2014  04:40:00      -15.021      -18.899       -0.578       13.731        9.255        9.005      188.530       85.660       81.093        0.047        0.018       24.142        5.510        0.052      342.154       17.366      863.818
08/10/2014  04:41:00        3.946      -20.782       -4.812       12.676       10.517       10.375      160.671      110.605      107.631        0.042        0.019       21.153        5.112        0.058      342.148       17.356      863.818
08/10/2014  04:42:00       -9.270       -7.165       -3.515       17.730       10.007        9.757      314.338      100.138       95.191        0.033        0.025       11.717        9.557        0.665      342.071       17.223      863.818
08/10/2014  04:43:00       -2.976      -19.687        1.855        6.758       15.100        7.742       45.675      227.998       59.932        0.037        0.017       19.910        5.228        0.069      342.107       17.287      863.826
08/10/2014  04:44:00        1.735      -43.291       -4.434        9.307        9.330        7.235       86.622       87.051       52.339        0.106        0.011       43.326        3.514        0.007      342.207       17.454      863.834
08/10/2014  04:45:00      -37.505      -19.317       -2.055       26.407       11.250       12.228      697.339      126.567      149.518        0.138        0.049       42.188       12.804        0.092      342.074       17.230      863.840
08/10/2014  04:46:00      -51.282      -37.112       -3.363       25.885       11.612       11.074      670.052      134.832      122.642        0.247        0.046       63.302        4.633        0.005      342.026       17.148      863.835
08/10/2014  04:47:00      -19.594      -30.915        3.594       25.612       18.697       14.350      655.957      349.571      205.916        0.128        0.061       36.601       13.146        0.129      341.976       17.062      863.838
08/10/2014  04:48:00      -31.571      -57.613        6.019       34.417       16.898       19.769     1184.497      285.547      390.810        0.311        0.093       65.696       19.464        0.088      342.001       17.107      863.854
08/10/2014  04:49:00      -53.895      -40.684       -2.806       23.984       29.619       13.730      575.249      877.298      188.513        0.310        0.082       67.527       11.007        0.027      341.969       17.050      863.862
08/10/2014  04:50:00      -65.632      -74.275       -1.694       25.639       38.335       12.949      657.349     1469.562      167.675        0.606        0.115       99.118       13.005        0.017      342.009       17.119      863.863
08/10/2014  04:51:00      -32.717      -80.403       -7.420       29.090       34.056       16.452      846.255     1159.802      270.657        0.493        0.114       86.805        3.629        0.002      342.044       17.178      863.869
08/10/2014  04:52:00      -19.800      -46.010        4.947       22.669       34.330       19.851      513.866     1178.548      394.052        0.231        0.104       50.090       18.032        0.130      342.057       17.201      863.875
08/10/2014  04:53:00      -55.625      -51.658        1.734       35.777       21.495       17.001     1279.974      462.022      289.039        0.390        0.102       75.912        8.591        0.013      342.062       17.209      863.877
08/10/2014  04:54:00      -11.445      -29.077        6.723       27.838       23.375       15.576      774.971      546.388      242.624        0.129        0.078       31.249       10.888        0.121      342.002       17.107      863.869
08/10/2014  04:55:00      -73.863      -65.147        0.192       45.268       37.407       29.122     2049.195     1399.272      848.070        0.700        0.215       98.488       19.955        0.041      341.980       17.069      863.871
08/10/2014  04:56:00      -25.826      -42.206        2.462       38.596       25.030       17.908     1489.650      626.491      320.683        0.245        0.122       49.481       14.274        0.083      342.004       17.111      863.872
08/10/2014  04:57:00       -0.229      -26.872        6.553       21.744       27.325       18.944      472.781      746.634      358.865        0.117        0.079       26.873       13.267        0.244      342.012       17.125      863.873
08/10/2014  04:58:00      -16.182      -24.727        7.137       37.271       18.807       18.819     1389.116      353.690      354.157        0.151        0.105       29.551       22.118        0.560      341.941       17.003      863.873
08/10/2014  04:59:00      -48.645      -35.702        3.675       34.070       23.875       21.646     1160.784      570.021      468.558        0.293        0.110       60.341       19.500        0.104      341.915       16.959      863.866
08/10/2014  05:00:00      -59.024      -46.737        5.296       31.808       27.156       18.864     1011.768      737.457      355.843        0.390        0.105       75.287       15.568        0.043      341.858       16.863      863.855
08/10/2014  05:01:00      -93.333      -45.050       -4.331       20.566       17.186       15.119      422.958      295.372      228.579        0.585        0.047      103.637       11.025        0.011      341.852       16.852      863.849
08/10/2014  05:02:00      -37.188      -31.246        3.089       19.628       18.408       14.265      385.256      338.857      203.483        0.165        0.046       48.573        9.901        0.042      341.833       16.820      863.850
08/10/2014  05:03:00      -74.391      -12.455      -10.052       15.752       13.119        8.902      248.117      172.113       79.249        0.314        0.025       75.426        6.288        0.007      341.780       16.731      863.851
08/10/2014  05:04:00      -80.298      -18.118       -6.324       15.817       17.383       12.614      250.187      302.182      159.120        0.376        0.036       82.317        8.355        0.010      341.766       16.708      863.849
08/10/2014  05:05:00      -74.400      -17.665       -2.039       17.840       16.916       11.706      318.271      286.152      137.030        0.330        0.037       76.468       10.861        0.020      341.733       16.651      863.861
08/10/2014  05:06:00      -90.473       -1.184       -8.415       19.004       12.122       12.591      361.161      146.935      158.530        0.446        0.033       90.481       11.257        0.015      341.753       16.687      863.871
08/10/2014  05:07:00      -81.266       -8.238       -6.050       27.187       21.874       15.241      739.124      478.460      232.293        0.408        0.072       81.682       16.810        0.042      341.670       16.542      863.875
08/10/2014  05:08:00      -69.207       -8.419       -6.297       32.083       15.164       14.077     1029.309      229.936      198.151        0.318        0.073       69.717       18.056        0.067      341.634       16.482      863.879
08/10/2014  05:09:00      -63.736      -11.689       -1.031       22.545       14.685       12.853      508.295      215.651      165.199        0.254        0.044       64.799       12.362        0.036      341.730       16.645      863.876
08/10/2014  05:10:00      -70.595      -16.850       -8.608       15.043       14.297       11.071      226.288      204.399      122.558        0.295        0.028       72.578        8.393        0.013      341.710       16.613      863.881
08/10/2014  05:11:00      -41.618       -6.956       -5.171       12.061        6.724        6.032      145.463       45.211       36.387        0.102        0.011       42.195        4.284        0.010      341.720       16.629      863.889
08/10/2014  05:12:00      -18.041       -5.438       -2.982        9.002        8.761        7.838       81.040       76.748       61.435        0.029        0.011       18.843        7.498        0.158      341.841       16.835      863.898
08/10/2014  05:13:00      -23.016      -13.116       -7.860        8.799        6.903        4.189       77.425       47.651       17.551        0.045        0.007       26.491        2.117        0.006      341.940       17.001      863.902
08/10/2014  05:14:00      -25.401      -13.061       -5.920       19.981       13.159        9.071      399.257      173.147       82.277        0.075        0.033       28.562        7.231        0.064      341.907       16.945      863.899
08/10/2014  05:15:00      -37.607       -7.121       -4.750       15.044        8.858        6.936      226.336       78.469       48.114        0.092        0.018       38.275        7.484        0.038      341.854       16.855      863.895
08/10/2014  05:16:00      -34.900       -9.585       -2.632        7.266        8.092        6.948       52.789       65.485       48.276        0.074        0.008       36.192        5.081        0.020      341.815       16.788      863.882
08/10/2014  05:17:00      -41.374       -7.592       -7.817        8.168        9.518        6.235       66.711       90.585       38.878        0.101        0.010       42.065        1.917        0.002      341.814       16.789      863.878
08/10/2014  05:18:00      -63.724      -24.084      -13.258       13.460       11.818        8.873      181.172      139.672       78.736        0.261        0.020       68.124        6.248        0.008      341.768       16.712      863.875
08/10/2014  05:19:00      -76.294      -35.662       -8.923       17.325       13.681       10.700      300.146      187.181      114.482        0.389        0.030       84.217        7.152        0.007      341.662       16.531      863.871
08/10/2014  05:20:00      -75.258      -17.591       -2.946       18.045       17.907       11.683      325.637      320.671      136.486        0.338        0.039       77.287       10.456        0.018      341.630       16.474      863.860
08/10/2014  05:21:00      -67.057       -5.364      -12.154       26.436       13.700       15.560      698.875      187.685      242.119        0.290        0.056       67.271       10.162        0.023      341.575       16.382      863.860
08/10/2014  05:22:00      -70.689       -4.275      -10.137       15.622       15.627       11.928      244.050      244.211      142.286        0.287        0.032       70.818        5.587        0.006      341.596       16.418      863.855
08/10/2014  05:23:00      -58.576       -3.604      -10.398       13.824        9.386        6.307      191.100       88.090       39.772        0.194        0.016       58.687        5.460        0.009      341.600       16.425      863.850
08/10/2014  05:24:00      -39.348      -16.103       -6.880        8.312        8.310        7.850       69.091       69.057       61.617        0.103        0.010       42.516        5.881        0.019      341.600       16.425      863.845
08/10/2014  05:25:00      -39.673        0.860       -9.076       14.470       15.875       12.002      209.369      252.025      144.047        0.113        0.030       39.682        7.661        0.037      341.632       16.478      863.853
08/10/2014  05:26:00      -44.448       29.068      -10.934       25.691       22.248       12.890      660.050      494.959      166.146        0.213        0.066       53.109       11.367        0.046      341.748       16.676      863.875
08/10/2014  05:27:00      -67.326       18.716       -9.513       12.077       12.122        9.284      145.863      146.946       86.194        0.268        0.019       69.879        5.258        0.006      341.766       16.707      863.887
08/10/2014  05:28:00      -51.184       -3.848       -8.259       12.721       14.161       11.660      161.811      200.525      135.951        0.160        0.025       51.328       11.283        0.048      341.741       16.662      863.901
08/10/2014  05:29:00      -61.047       -5.722       -8.316       15.047       13.023       11.242      226.420      169.600      126.389        0.218        0.026       61.315        6.801        0.012      341.707       16.607      863.902
08/10/2014  05:30:00      -57.430       -0.093      -14.513       16.699       17.089       12.857      278.871      292.033      165.298        0.212        0.037       57.430        7.845        0.019      341.643       16.500      863.905
08/10/2014  05:31:00      -63.191       24.759      -14.283       20.038       16.457       12.325      401.503      270.828      151.909        0.282        0.041       67.869       11.967        0.031      341.724       16.636      863.894
08/10/2014  05:32:00      -75.910       74.233      -16.586       19.044       31.452       15.484      362.688      989.234      239.742        0.657        0.080      106.173        7.676        0.005      342.041       17.173      863.890
08/10/2014  05:33:00      -66.360       47.692      -12.477       20.550       14.522       10.957      422.323      210.903      120.061        0.379        0.038       81.720        8.819        0.012      342.127       17.321      863.900
08/10/2014  05:34:00      -69.305       47.085      -15.785       18.645       20.029       11.278      347.649      401.144      127.197        0.407        0.044       83.786       11.819        0.020      342.212       17.463      863.904
08/10/2014  05:35:00      -47.571       12.768      -11.360       14.801       15.705        9.621      219.062      246.634       92.569        0.156        0.028       49.254        5.840        0.014      341.993       17.091      863.909
08/10/2014  05:36:00      -45.741       21.818      -10.117       12.070       13.482       10.573      145.681      181.768      111.796        0.155        0.022       50.678        7.102        0.020      342.156       17.370      863.919
08/10/2014  05:37:00      -39.082        1.070       -4.441       14.313       11.599        7.660      204.859      134.542       58.678        0.097        0.020       39.097        5.517        0.020      342.023       17.143      863.919
08/10/2014  05:38:00      -59.312       10.179      -10.058       10.809        9.222        9.059      116.827       85.045       82.074        0.200        0.014       60.179        4.093        0.005      341.925       16.976      863.913
08/10/2014  05:39:00      -60.268       14.162       -6.896       13.049        9.115        8.349      170.277       83.087       69.705        0.210        0.016       61.909        4.486        0.005      341.923       16.972      863.900
08/10/2014  05:40:00      -66.547        4.806      -12.613       12.475       12.451        7.267      155.616      155.021       52.814        0.249        0.018       66.720        4.561        0.005      342.040       17.172      863.891
08/10/2014  05:41:00      -60.725       -2.306       -9.380       10.442       10.495        8.838      109.030      110.142       78.110        0.204        0.015       60.769        5.325        0.008      341.895       16.925      863.890
08/10/2014  05:42:00      -53.167        5.265      -15.554       13.179       11.909       10.719      173.687      141.827      114.896        0.176        0.022       53.427        5.727        0.011      341.936       16.995      863.896
08/10/2014  05:43:00      -52.750        3.305      -19.108        8.353        8.914        9.480       69.776       79.453       89.864        0.170        0.012       52.854        4.901        0.009      341.977       17.065      863.905
08/10/2014  05:44:00      -60.098      -10.909      -13.089       10.725       12.211        7.926      115.023      149.121       62.821        0.211        0.016       61.080        3.052        0.002      341.845       16.840      863.915
08/10/2014  05:45:00      -69.763      -31.182       -7.772       11.974       17.073       10.269      143.376      291.503      105.449        0.322        0.027       76.415        4.749        0.004      341.740       16.663      863.904
08/10/2014  05:46:00      -62.478      -40.738      -17.996       24.142       23.444       16.042      582.823      549.605      257.346        0.364        0.069       74.586       17.929        0.058      341.813       16.786      863.906
08/10/2014  05:47:00     -101.300      -11.079      -17.549       21.601       19.414       11.518      466.607      376.899      132.656        0.583        0.049      101.904        4.176        0.002      341.818       16.794      863.892
08/10/2014  05:48:00      -92.504       -2.716      -16.017       18.467       18.669       14.125      341.031      348.522      199.527        0.485        0.044       92.543       12.838        0.019      341.631       16.480      863.892
08/10/2014  05:49:00      -30.879      -36.278       -4.215       23.495       20.432       18.424      552.013      417.462      339.444        0.180        0.065       47.640       13.783        0.084      341.631       16.478      863.902
08/10/2014  05:50:00      -67.711      -34.571       -7.300       22.045       18.039       15.934      485.971      325.397      253.901        0.345        0.053       76.026       11.040        0.021      341.687       16.574      863.911
08/10/2014  05:51:00      -85.770      -25.340      -10.867       23.758       25.315       17.946      564.446      640.833      322.071        0.482        0.076       89.435       13.532        0.023      341.617       16.453      863.924
08/10/2014  05:52:00      -83.366      -20.695       -1.662       27.831       21.887       13.774      774.560      479.049      189.718        0.441        0.072       85.896       13.133        0.023      341.657       16.521      863.923
08/10/2014  05:53:00      -86.385      -57.005       -4.315       21.577       17.990       15.284      465.556      323.640      233.586        0.588        0.051      103.498       12.598        0.015      341.588       16.404      863.913
08/10/2014  05:54:00      -36.293      -38.558        6.517       31.327       25.732       17.461      981.379      662.117      304.882        0.240        0.097       52.952       17.555        0.110      341.665       16.535      863.919
08/10/2014  05:55:00      -89.980      -49.212       -3.309       23.492       19.247       18.437      551.886      370.459      339.910        0.590        0.063      102.558       13.830        0.018      341.721       16.629      863.922
08/10/2014  05:56:00      -82.137      -54.477       -1.640       26.667       17.771       18.091      711.119      315.793      327.291        0.554        0.068       98.561       12.930        0.017      341.683       16.566      863.936
08/10/2014  05:57:00      -60.405      -36.116        1.045       35.502       25.673       15.333     1260.427      659.092      235.106        0.355        0.108       70.379       18.841        0.072      341.639       16.490      863.941
08/10/2014  05:58:00      -39.911      -40.299        5.978       42.270       19.877       13.491     1786.763      395.097      182.006        0.281        0.118       56.718       17.975        0.100      341.709       16.613      863.945
08/10/2014  05:59:00     -119.407      -63.232       -4.947       13.347       13.029       12.846      178.149      169.745      165.008        0.940        0.026      135.116        8.718        0.004      341.651       16.513      863.939
08/10/2014  06:00:00     -137.446      -34.645      -10.170       13.551       11.700        9.640      183.622      136.883       92.934        1.030        0.021      141.746        4.069        0.001      341.660       16.526      863.930
08/10/2014  06:01:00     -112.217      -38.739       -5.001       23.667       18.927       15.493      560.121      358.214      240.019        0.764        0.058      118.715       13.093        0.012      341.614       16.448      863.938
08/10/2014  06:02:00     -103.612      -50.535       -1.452       19.804       25.348       15.700      392.187      642.531      246.505        0.729        0.064      115.279       11.448        0.010      341.623       16.465      863.947
08/10/2014  06:03:00      -57.101      -34.005        6.169       41.334       23.977       20.825     1708.492      574.875      433.662        0.359        0.136       66.460       21.528        0.105      341.588       16.404      863.956
08/10/2014  06:04:00      -75.244      -52.786       -1.914       28.751       24.804       17.615      826.595      615.247      310.273        0.510        0.088       91.913       10.631        0.013      341.559       16.355      863.964
08/10/2014  06:05:00      -98.726      -60.726        1.845       28.523       20.564       17.923      813.564      422.864      321.241        0.750        0.078      115.907       15.898        0.019      341.551       16.342      863.961
08/10/2014  06:06:00     -105.918      -63.385       -3.327       26.522       23.779       19.162      703.425      565.441      367.175        0.844        0.082      123.436       13.904        0.013      341.553       16.346      863.963
08/10/2014  06:07:00      -88.613      -66.597        2.266       36.352       28.681       24.797     1321.495      822.588      614.913        0.753        0.138      110.849       21.291        0.037      341.531       16.308      863.966
08/10/2014  06:08:00      -95.245      -61.007        6.259       41.639       28.043       21.722     1733.781      786.425      471.860        0.791        0.150      113.108       22.965        0.041      341.614       16.449      863.967
08/10/2014  06:09:00     -100.744      -56.580       -0.249       28.092       24.295       15.333      789.140      590.248      235.086        0.748        0.081      115.545       11.770        0.010      341.596       16.418      863.965
08/10/2014  06:10:00      -92.516      -42.176       -2.599       31.410       23.591       16.669      986.559      556.528      277.861        0.608        0.091      101.676       16.698        0.027      341.567       16.369      863.959
08/10/2014  06:11:00      -45.536      -34.419        3.205       37.958       22.906       14.925     1440.839      524.674      222.770        0.273        0.109       57.081       16.183        0.080      341.566       16.367      863.952
08/10/2014  06:12:00      -46.020      -35.219        4.511       36.748       19.157       18.347     1350.441      366.982      336.612        0.272        0.103       57.950       16.937        0.085      341.613       16.446      863.960
08/10/2014  06:13:00      -35.195      -41.867        4.453       31.382       16.605       16.761      984.801      275.727      280.926        0.228        0.077       54.695       15.758        0.083      341.597       16.421      863.960
08/10/2014  06:14:00      -44.516      -46.688        4.777       29.232       34.010       16.297      854.531     1156.647      265.595        0.323        0.114       64.509       19.302        0.090      341.612       16.446      863.976
08/10/2014  06:15:00      -69.376      -54.865       -4.447       36.588       32.054       19.369     1338.672     1027.463      375.160        0.529        0.137       88.449       22.468        0.065      341.640       16.493      863.981
08/10/2014  06:16:00      -92.189      -85.759       -9.197       30.883       31.188       20.430      953.739      972.675      417.384        0.914        0.117      125.911       17.189        0.019      341.661       16.530      863.988
08/10/2014  06:17:00      -52.377      -66.435       -0.248       40.011       28.634       21.853     1600.877      819.928      477.571        0.503        0.145       84.599       20.379        0.058      341.591       16.411      863.997
08/10/2014  06:18:00      -77.369      -52.821       -2.406       37.310       27.593       22.054     1392.025      761.353      486.376        0.571        0.132       93.680       18.575        0.039      341.592       16.412      864.006
08/10/2014  06:19:00      -82.320      -75.538       -6.990       30.957       40.635       20.201      958.362     1651.214      408.083        0.777        0.151      111.725       12.707        0.013      341.623       16.464      864.017
08/10/2014  06:20:00     -109.997      -71.155       -7.893       23.575       27.278       17.614      555.800      744.071      310.248        0.942        0.081      131.005       11.488        0.008      341.636       16.486      864.028
08/10/2014  06:21:00      -79.485      -67.400        5.281       43.030       37.926       22.954     1851.545     1438.357      526.871        0.735        0.191      104.214       16.771        0.026      341.583       16.395      864.026
08/10/2014  06:22:00      -49.585      -49.253        7.458       49.708       34.212       22.846     2470.845     1170.462      521.949        0.455        0.208       69.890       21.214        0.092      341.553       16.346      864.037
08/10/2014  06:23:00      -70.702      -68.118        2.516       32.031       28.325       18.601     1026.007      802.280      345.999        0.591        0.109       98.177       17.779        0.033      341.649       16.508      864.046
08/10/2014  06:24:00      -71.923      -63.443        5.990       28.691       36.172       22.793      823.180     1308.431      519.539        0.594        0.133       95.906       20.521        0.046      341.633       16.480      864.057
08/10/2014  06:25:00      -89.158      -55.890       -0.859       33.241       24.047       21.826     1104.935      578.252      476.360        0.662        0.108      105.228       17.780        0.029      341.612       16.445      864.069
08/10/2014  06:26:00      -72.898      -52.420        1.236       48.005       31.160       20.910     2304.508      970.973      437.230        0.589        0.186       89.788       16.961        0.036      341.652       16.514      864.073
08/10/2014  06:27:00     -119.148      -69.040       -3.450       36.474       27.545       21.631     1330.360      758.719      467.918        1.077        0.128      137.705       19.989        0.021      341.703       16.600      864.079
08/10/2014  06:28:00     -140.769      -71.743       -4.634       29.333       23.421       18.564      860.400      548.564      344.628        1.337        0.088      157.996       12.296        0.006      341.684       16.568      864.075
08/10/2014  06:29:00     -132.248      -58.254       -2.892       35.547       28.924       18.096     1263.568      836.614      327.471        1.166        0.121      144.510       13.771        0.009      341.664       16.535      864.058
08/10/2014  06:30:00     -122.659      -54.411       -2.660       34.755       25.339       16.302     1207.928      642.089      265.741        1.006        0.106      134.186       14.679        0.012      341.636       16.486      864.054
08/10/2014  06:31:00     -124.595      -54.388       -1.810       29.003       24.069       15.043      841.150      579.305      226.306        1.007        0.082      135.948       13.012        0.009      341.684       16.568      864.065
08/10/2014  06:32:00      -91.595      -49.626        3.676       29.136       27.030       18.078      848.924      730.643      326.822        0.639        0.095      104.174       16.638        0.026      341.657       16.523      864.078
08/10/2014  06:33:00     -101.706      -36.187        0.151       26.782       21.303       12.694      717.301      453.819      161.136        0.649        0.067      107.952       10.271        0.009      341.654       16.518      864.081
08/10/2014  06:34:00      -86.327      -23.872       -2.114       22.727       25.080       14.673      516.500      628.996      215.306        0.469        0.068       89.567       10.563        0.014      341.609       16.439      864.087
08/10/2014  06:35:00      -88.942      -11.267       -1.011       28.489       19.026       15.258      811.610      361.982      232.809        0.472        0.070       89.653       16.114        0.032      341.581       16.392      864.090
08/10/2014  06:36:00      -91.834      -33.281       -0.792       17.274       19.630       14.091      298.378      385.355      198.567        0.521        0.044       97.679        9.150        0.009      341.613       16.447      864.093
08/10/2014  06:37:00     -114.254      -40.853       -7.070       19.203       17.687       12.816      368.749      312.823      164.246        0.781        0.042      121.338       11.467        0.009      341.682       16.564      864.103
08/10/2014  06:38:00      -59.177      -34.675       -1.513       26.882       19.565       13.702      722.633      382.794      187.740        0.300        0.065       68.587       11.782        0.030      341.723       16.633      864.114
08/10/2014  06:39:00      -86.362      -37.327       -1.033       18.157       13.715       10.009      329.694      188.093      100.184        0.474        0.031       94.084        8.662        0.008      341.834       16.824      864.130
08/10/2014  06:40:00      -89.687      -42.880       -3.233       15.062       16.524       11.000      226.868      273.043      121.005        0.526        0.031       99.411        8.944        0.008      341.872       16.886      864.140
08/10/2014  06:41:00      -94.485      -34.358       -2.906        8.428       15.058        6.336       71.031      226.745       40.150        0.523        0.017      100.538        5.122        0.003      341.821       16.800      864.146
08/10/2014  06:42:00      -85.049      -44.208       -4.959       17.827       13.271       10.281      317.815      176.108      105.699        0.491        0.030       95.853        4.925        0.003      341.840       16.833      864.141
08/10/2014  06:43:00      -67.562      -50.828       -1.728       18.053       14.734        8.994      325.896      217.082       80.900        0.389        0.031       84.546        7.506        0.008      341.902       16.938      864.141
08/10/2014  06:44:00      -56.094      -29.808       -3.825       15.551       16.354       11.320      241.845      267.459      128.153        0.234        0.032       63.522        8.522        0.018      341.848       16.846      864.143
08/10/2014  06:45:00      -60.073       -9.552       -5.413       14.974       17.397       11.421      224.231      302.649      130.444        0.219        0.033       60.828        9.617        0.025      341.827       16.809      864.139
08/10/2014  06:46:00      -47.409       -8.953        5.670       23.031       25.398       15.003      530.439      645.045      225.104        0.188        0.070       48.247       14.112        0.086      341.810       16.781      864.136
08/10/2014  06:47:00      -79.041      -12.129       -6.948       27.860       26.684       15.884      776.175      712.046      252.294        0.409        0.087       79.966       14.385        0.032      341.780       16.731      864.140
08/10/2014  06:48:00      -55.371       -1.360       -3.299       29.215       26.967       15.510      853.514      727.215      240.552        0.245        0.091       55.387       14.655        0.070      341.713       16.617      864.154
08/10/2014  06:49:00      -61.711      -11.929        0.074       31.693       28.076       17.496     1004.457      788.240      306.102        0.302        0.105       62.853       14.894        0.056      341.708       16.609      864.167
08/10/2014  06:50:00      -53.265      -10.323       -6.306       32.523       22.454       10.503     1057.740      504.167      110.308        0.233        0.084       54.256        7.724        0.020      341.729       16.644      864.176
08/10/2014  06:51:00      -27.930      -13.253       -0.178       30.268       16.012       13.031      916.140      256.377      169.812        0.115        0.067       30.915       11.109        0.129      341.779       16.729      864.180
08/10/2014  06:52:00      -43.904      -28.778       -1.834       21.518       20.433       18.505      463.037      417.522      342.451        0.199        0.061       52.495       13.494        0.066      341.765       16.705      864.198
08/10/2014  06:53:00      -40.146      -15.267       -2.579       32.338       18.972       11.867     1045.771      359.940      140.836        0.170        0.077       42.951       10.234        0.057      341.772       16.717      864.213
08/10/2014  06:54:00      -13.428      -35.527        5.446       26.913       14.488       12.705      724.290      209.891      161.423        0.128        0.055       37.980       11.084        0.085      341.806       16.774      864.234
08/10/2014  06:55:00      -16.062      -32.364       -0.006       12.283       10.070        7.247      150.879      101.414       52.525        0.081        0.015       36.130        5.407        0.022      341.828       16.812      864.266
08/10/2014  06:56:00      -24.076      -16.398       -7.545       13.172        7.734        6.515      173.498       59.818       42.440        0.059        0.014       29.130        3.226        0.012      341.887       16.911      864.299
08/10/2014  06:57:00      -51.923      -11.399       -6.422       10.256       10.612        5.219      105.193      112.619       27.239        0.156        0.012       53.159        3.209        0.004      341.916       16.962      864.326
08/10/2014  06:58:00      -57.238      -17.647       -9.189        8.883       12.520        6.796       78.905      156.748       46.190        0.198        0.014       59.896        6.007        0.010      341.954       17.025      864.330
08/10/2014  06:59:00      -49.461      -25.111       -1.406       21.906       10.959       11.033      479.861      120.101      121.720        0.190        0.036       55.470        7.162        0.017      341.956       17.028      864.337
08/10/2014  07:00:00      -37.326      -13.778       -4.621       14.416       10.917        7.372      207.815      119.172       54.349        0.099        0.019       39.788        4.583        0.013      341.966       17.045      864.341
08/10/2014  07:01:00      -54.980      -18.513       -9.418       14.884        7.305        7.138      221.522       53.364       50.945        0.189        0.016       58.013        3.251        0.003      342.022       17.140      864.333
08/10/2014  07:02:00      -82.706      -29.252       -6.160       11.915       10.698        5.847      141.962      114.452       34.192        0.401        0.015       87.726        2.495        0.001      342.041       17.174      864.328
08/10/2014  07:03:00      -73.492      -39.189       -9.200       35.353       25.662       17.361     1249.849      658.530      301.395        0.462        0.110       83.288       15.069        0.033      341.999       17.104      864.304
08/10/2014  07:04:00      -44.677      -33.545       -2.112       25.029       22.860       15.899      626.440      522.571      252.784        0.226        0.070       55.869       11.598        0.043      341.962       17.040      864.297
08/10/2014  07:05:00      -65.383      -42.889        3.979       22.684       15.378       15.203      514.570      236.487      231.135        0.356        0.049       78.195       13.745        0.031      341.990       17.088      864.293
08/10/2014  07:06:00      -40.708      -21.115        5.370       24.279       16.515       13.813      589.468      272.762      190.805        0.159        0.053       45.858       16.911        0.136      342.095       17.266      864.294
08/10/2014  07:07:00      -33.869      -28.701       -1.304       10.285        9.912        5.873      105.784       98.254       34.494        0.111        0.012       44.394        2.802        0.004      342.027       17.149      864.305
08/10/2014  07:08:00      -36.350      -25.164       -3.929        6.515        5.797        4.214       42.445       33.602       17.755        0.103        0.005       44.210        3.343        0.006      342.117       17.303      864.308
08/10/2014  07:09:00      -38.660      -21.784       -4.635       12.672       10.316        9.849      160.586      106.430       97.010        0.118        0.018       44.375        4.887        0.012      342.194       17.434      864.320
08/10/2014  07:10:00      -42.314      -20.223       -5.507        8.320        8.003        6.810       69.224       64.043       46.370        0.120        0.009       46.898        5.344        0.013      342.225       17.484      864.315
08/10/2014  07:11:00      -32.395       -7.642        1.315       12.655        9.716        7.130      160.150       94.395       50.841        0.071        0.015       33.284        5.937        0.032      342.209       17.458      864.322
08/10/2014  07:12:00      -44.177      -13.757        1.995       15.733       10.711        6.076      247.541      114.721       36.923        0.127        0.020       46.269        4.446        0.009      342.157       17.372      864.325
08/10/2014  07:13:00      -52.973      -13.923       -2.237       10.203       14.465        9.668      104.104      209.226       93.472        0.171        0.020       54.772        5.574        0.010      342.147       17.352      864.337
08/10/2014  07:14:00      -42.798       -6.645       -1.578       14.275       12.567        9.724      203.777      157.937       94.564        0.117        0.023       43.311        9.067        0.044      342.131       17.326      864.331
08/10/2014  07:15:00      -41.431       -5.733        2.138       22.066       11.972        9.390      486.917      143.318       88.167        0.124        0.036       41.826       11.023        0.069      342.245       17.520      864.328
08/10/2014  07:16:00      -31.768       -6.815       -2.043       11.191        9.584        6.848      125.236       91.854       46.895        0.066        0.013       32.491        5.645        0.030      342.219       17.475      864.330
08/10/2014  07:17:00      -52.604      -21.957       -3.098       16.797       12.238        8.830      282.126      149.762       77.963        0.188        0.025       57.002        9.846        0.030      342.235       17.502      864.340
08/10/2014  07:18:00      -61.766      -14.289       -7.588       24.673       11.884       13.455      608.756      141.231      181.050        0.250        0.047       63.397       13.604        0.046      342.225       17.486      864.349
08/10/2014  07:19:00      -48.684       -7.030       -1.753       12.508       11.072        8.553      156.461      122.587       73.146        0.139        0.018       49.189        5.949        0.015      342.227       17.489      864.365
08/10/2014  07:20:00      -41.149      -13.511       -6.257        9.934        9.979        7.331       98.676       99.583       53.738        0.108        0.013       43.311        4.451        0.011      342.287       17.590      864.370
08/10/2014  07:21:00      -34.641        3.186       -3.446       12.162        9.731        8.250      147.907       94.701       68.061        0.077        0.016       34.788        6.121        0.031      342.304       17.619      864.382
08/10/2014  07:22:00      -15.257       10.550        8.322       11.070       11.912       12.425      122.545      141.895      154.369        0.042        0.021       18.550        7.662        0.171      342.711       18.311      864.396
08/10/2014  07:23:00       -4.134        5.768       11.553        8.922        9.445        9.198       79.609       89.201       84.611        0.022        0.013        7.096        6.625        0.872      342.915       18.660      864.413
08/10/2014  07:24:00       12.201       17.793        4.242       12.086       11.910       10.577      146.073      141.859      111.865        0.044        0.020       21.575        3.654        0.029      342.738       18.357      864.418
08/10/2014  07:25:00       -5.887       36.097        3.541        9.690       17.131       13.980       93.893      293.483      195.444        0.097        0.029       36.573        9.922        0.074      342.833       18.519      864.414
08/10/2014  07:26:00      -10.540       32.994        7.632       10.210       16.405       15.834      104.241      269.118      250.721        0.094        0.031       34.637        8.984        0.067      342.964       18.744      864.403
08/10/2014  07:27:00       -5.897        7.661       12.129       10.667       13.556        9.113      113.781      183.770       83.043        0.031        0.019        9.667        7.115        0.542      343.090       18.956      864.399
08/10/2014  07:28:00      -13.611       24.985        3.300       15.095       16.438       13.976      227.853      270.211      195.326        0.076        0.035       28.452       10.240        0.130      342.913       18.655      864.399
08/10/2014  07:29:00       -9.614       49.987        3.696       12.458       15.965       13.831      155.204      254.877      191.295        0.160        0.030       50.903        7.296        0.021      342.905       18.642      864.404
08/10/2014  07:30:00       -7.692       53.066        1.137       13.080       13.803       15.293      171.097      190.521      233.865        0.174        0.030       53.621       10.150        0.036      342.910       18.650      864.397
08/10/2014  07:31:00       -1.788       52.872        4.739       11.419       17.994       15.370      130.400      323.784      236.238        0.176        0.035       52.902       10.384        0.039      343.067       18.918      864.390
08/10/2014  07:32:00       18.252       49.090        5.395       30.123       22.902       18.912      907.390      524.491      357.649        0.228        0.089       52.373       14.975        0.082      343.030       18.855      864.395
08/10/2014  07:33:00       52.910       44.826       12.006       21.580       15.819       13.569      465.706      250.232      184.123        0.293        0.045       69.346        8.175        0.014      342.838       18.527      864.412
08/10/2014  07:34:00       35.354       17.182       11.767       19.847       20.521       15.468      393.914      421.103      239.252        0.137        0.053       39.308       12.049        0.094      342.948       18.714      864.433
08/10/2014  07:35:00       38.443       43.560        1.027       22.595       23.078       18.771      510.512      532.608      352.366        0.239        0.070       58.098       14.050        0.058      342.872       18.586      864.446
08/10/2014  07:36:00       15.385       57.392      -10.097       16.877       20.025       14.742      284.834      401.018      217.331        0.227        0.045       59.418       15.229        0.066      342.866       18.577      864.448
08/10/2014  07:37:00       21.238       17.747        8.773       24.948       19.627       16.327      622.412      385.227      266.565        0.106        0.064       27.677       10.034        0.131      343.106       18.984      864.451
08/10/2014  07:38:00       44.352       37.519       -4.537       24.879       16.854       14.826      618.956      284.041      219.801        0.226        0.056       58.093       10.590        0.033      342.935       18.693      864.459
08/10/2014  07:39:00       22.723       35.577        6.674       15.888       32.934       16.748      252.417     1084.676      280.479        0.172        0.081       42.214       17.509        0.172      343.200       19.145      864.452
08/10/2014  07:40:00       21.969       57.846       -4.492       17.976       17.563       14.755      323.154      308.475      217.706        0.235        0.042       61.877        8.671        0.020      342.858       18.560      864.454
08/10/2014  07:41:00       43.664       35.648       16.950       23.157       15.795       20.305      536.233      249.467      412.301        0.233        0.060       56.368       13.012        0.053      342.929       18.682      864.463
08/10/2014  07:42:00       26.578       41.844       -2.994       18.448       14.364       17.547      340.325      206.339      307.901        0.166        0.043       49.571       13.396        0.073      342.910       18.650      864.473
08/10/2014  07:43:00       28.217       70.533       -7.785       11.220       18.808       15.653      125.886      353.756      245.029        0.328        0.036       75.968        9.620        0.016      342.872       18.587      864.478
08/10/2014  07:44:00       41.796       28.076        0.000       15.332       20.357       15.874      235.082      414.407      251.991        0.172        0.045       50.350        9.324        0.034      342.907       18.645      864.489
08/10/2014  07:45:00       -6.940       32.563       -7.249       12.129       14.717        9.569      147.109      216.578       91.570        0.081        0.023       33.295        2.814        0.007      342.902       18.637      864.481
08/10/2014  07:46:00      -27.591       26.360       -5.710        7.638       13.829        9.966       58.342      191.246       99.321        0.092        0.017       38.158        8.908        0.054      342.852       18.550      864.482
08/10/2014  07:47:00       -2.440       10.557        9.711       13.953       16.251       11.680      194.686      264.088      136.426        0.040        0.030       10.835       10.363        0.915      343.292       19.302      864.483
08/10/2014  07:48:00       -4.532       15.061       11.653       13.898       18.417       17.652      193.147      339.177      311.599        0.061        0.042       15.728       13.130        0.697      343.393       19.473      864.484
08/10/2014  07:49:00       -9.509       35.741        7.133       14.318       24.894       15.266      205.019      619.701      233.046        0.124        0.053       36.984       13.883        0.141      343.291       19.299      864.489
08/10/2014  07:50:00      -17.323       19.310       16.565       19.645       17.734       18.685      385.913      314.478      349.134        0.100        0.052       25.942       14.487        0.312      343.451       19.572      864.492
08/10/2014  07:51:00       28.001       30.174       20.893       18.667       25.576       21.950      348.462      654.132      481.800        0.181        0.074       41.165       18.066        0.193      343.429       19.533      864.493
08/10/2014  07:52:00       40.726       48.887        3.673       20.140       24.376       19.467      405.617      594.197      378.950        0.272        0.069       63.628       15.674        0.061      343.246       19.223      864.507
08/10/2014  07:53:00       47.475       26.877       11.703       34.844       29.176       21.694     1214.116      851.240      470.638        0.282        0.127       54.555       14.985        0.075      343.327       19.360      864.521
08/10/2014  07:54:00       44.652       43.105        4.729       30.623       31.028       27.488      937.783      962.757      755.589        0.326        0.133       62.063       18.818        0.092      343.250       19.229      864.518
08/10/2014  07:55:00       67.048       86.100       -0.861       36.754       32.970       23.447     1350.876     1087.049      549.767        0.745        0.149      109.127       19.976        0.034      343.097       18.969      864.507
08/10/2014  07:56:00      102.416       48.108        2.212       27.124       29.657       25.859      735.689      879.524      668.666        0.755        0.114      113.152       22.058        0.038      342.965       18.744      864.495
08/10/2014  07:57:00       85.875       73.083       -2.342       34.655       28.370       23.090     1200.975      804.847      533.139        0.763        0.127      112.764       19.384        0.030      343.093       18.962      864.505
08/10/2014  07:58:00       90.384       51.850        5.582       41.560       33.960       29.090     1727.252     1153.253      846.215        0.731        0.186      104.201       21.684        0.043      343.116       19.000      864.519
08/10/2014  07:59:00       75.802       48.705        2.985       45.130       23.275       27.498     2036.736      541.726      756.157        0.573        0.167       90.100       15.612        0.030      343.057       18.902      864.527
08/10/2014  08:00:00       61.064       47.377       16.053       42.170       31.934       28.529     1778.273     1019.808      813.876        0.492        0.181       77.288       20.705        0.072      343.201       19.145      864.541
08/10/2014  08:01:00       71.062       21.850       13.404       34.678       36.263       28.390     1202.565     1315.019      805.967        0.451        0.166       74.345       14.718        0.039      343.257       19.241      864.538
08/10/2014  08:02:00       45.747       47.918        7.201       30.028       26.937       21.969      901.662      725.593      482.637        0.327        0.105       66.249       18.336        0.077      343.305       19.323      864.537
08/10/2014  08:03:00       88.629       43.560       10.198       36.488       27.479       19.454     1331.404      755.118      378.477        0.616        0.123       98.755       13.769        0.019      343.142       19.044      864.542
08/10/2014  08:04:00       98.610       66.644        0.707       49.714       30.170       26.918     2471.472      910.216      724.602        0.914        0.205      119.018       16.426        0.019      343.148       19.055      864.547
08/10/2014  08:05:00       55.181       70.304        9.705       43.760       43.052       39.858     1914.969     1853.472     1588.670        0.672        0.268       89.374       29.109        0.106      343.234       19.202      864.548
08/10/2014  08:06:00       54.394       83.996      -15.086       32.950       44.241       26.477     1085.729     1957.247      701.012        0.699        0.187      100.070       22.994        0.053      343.154       19.064      864.543
08/10/2014  08:07:00       52.270       47.571       -7.505       26.916       37.824       18.752      724.449     1430.668      351.630        0.378        0.125       70.676       14.424        0.042      343.279       19.278      864.537
08/10/2014  08:08:00       57.447       52.791        0.971       43.793       27.754       25.460     1917.849      770.283      648.197        0.471        0.167       78.020       13.799        0.031      343.352       19.403      864.545
08/10/2014  08:09:00      104.084       80.132        2.618       54.244       31.203       27.014     2942.378      973.645      729.734        1.095        0.232      131.356       18.739        0.020      343.125       19.016      864.551
08/10/2014  08:10:00      140.407       58.002        6.072       45.795       44.731       33.587     2097.167     2000.851     1128.060        1.417        0.261      151.916       25.367        0.028      343.112       18.993      864.560
08/10/2014  08:11:00      112.244       84.025       11.851       38.938       39.843       38.389     1516.178     1587.462     1473.731        1.219        0.229      140.210       23.899        0.029      343.203       19.150      864.571
08/10/2014  08:12:00       62.689       69.270       -0.811       45.529       35.998       31.747     2072.865     1295.851     1007.873        0.655        0.219       93.425       26.548        0.081      343.441       19.555      864.567
08/10/2014  08:13:00       87.344       64.492        3.474       40.461       33.748       29.034     1637.088     1138.946      843.002        0.771        0.181      108.574       18.683        0.030      343.265       19.255      864.562
08/10/2014  08:14:00       71.534       72.198       -0.961       39.028       42.670       30.839     1523.156     1820.731      951.039        0.731        0.215      101.635       28.418        0.078      343.279       19.279      864.549
08/10/2014  08:15:00       60.319       60.083        4.527       51.158       35.746       30.757     2617.174     1277.770      945.974        0.605        0.242       85.137       22.692        0.071      343.436       19.545      864.550
08/10/2014  08:16:00       99.177       57.871        9.324       45.669       38.595       35.300     2085.703     1489.573     1246.088        0.905        0.241      114.826       26.186        0.052      343.429       19.534      864.543
08/10/2014  08:17:00       77.917       69.429        5.198       61.629       43.857       29.236     3798.125     1923.426      854.715        0.875        0.329      104.362       22.676        0.047      343.416       19.511      864.544
08/10/2014  08:18:00       83.091       74.080       -0.991       45.022       54.738       32.895     2027.019     2996.267     1082.096        0.925        0.305      111.319       20.729        0.035      343.341       19.385      864.558
08/10/2014  08:19:00       86.362       50.108       15.424       53.673       35.874       37.941     2880.794     1286.945     1439.498        0.791        0.280       99.845       25.323        0.064      343.445       19.563      864.566
08/10/2014  08:20:00       69.717       60.472      -10.896       45.344       41.836       27.640     2056.098     1750.215      763.982        0.660        0.229       92.289       13.557        0.022      343.412       19.505      864.565
08/10/2014  08:21:00       99.932       72.893       14.353       38.692       34.753       28.451     1497.056     1207.791      809.470        0.951        0.176      123.692       21.294        0.030      343.426       19.529      864.564
08/10/2014  08:22:00      119.564       98.927       13.495       39.725       35.672       38.104     1578.096     1272.470     1451.896        1.428        0.215      155.184       21.468        0.019      343.212       19.163      864.565
08/10/2014  08:23:00       53.675       39.579       22.417       56.234       35.362       45.930     3162.242     1250.447     2109.533        0.573        0.326       66.689       43.747        0.430      343.526       19.699      864.567
08/10/2014  08:24:00       42.986       77.088       64.430       52.027       34.586       32.504     2706.825     1196.212     1056.530        0.845        0.248       88.263       26.262        0.089      343.714       20.020      864.553
08/10/2014  08:25:00      111.990       76.680       12.463       38.174       34.681       32.263     1457.283     1202.743     1040.933        1.114        0.185      135.726       22.097        0.027      343.342       19.385      864.553
08/10/2014  08:26:00       82.603       63.727        8.069       23.517       36.751       22.694      553.072     1350.607      515.027        0.668        0.121      104.328       17.275        0.027      343.270       19.265      864.549
08/10/2014  08:27:00       42.367       30.609       10.643       22.954       17.850       20.788      526.909      318.628      432.147        0.206        0.064       52.267       11.546        0.049      343.470       19.606      864.554
08/10/2014  08:28:00       76.629       51.065       12.839       24.436       18.352       20.899      597.123      336.792      436.782        0.501        0.069       92.085        7.179        0.006      343.378       19.447      864.556
08/10/2014  08:29:00       27.400       45.981       -8.458       27.895       15.856       15.069      778.125      251.412      227.084        0.210        0.063       53.525        7.623        0.020      343.626       19.871      864.549
08/10/2014  08:30:00       11.772       21.400       32.740       25.758       33.613       38.387      663.485     1129.852     1473.536        0.247        0.163       24.424       27.835        1.299      343.838       20.232      864.550
08/10/2014  08:31:00        2.360       24.134       41.004       35.172       37.317       28.725     1237.064     1392.542      825.112        0.286        0.173       24.250       19.913        0.674      343.911       20.357      864.554
08/10/2014  08:32:00       49.895      -10.125       35.669       59.040       44.964       40.362     3485.682     2021.804     1629.092        0.550        0.357       50.912       40.328        0.627      343.855       20.260      864.570
08/10/2014  08:33:00       18.113       39.934       57.176       39.260       43.742       22.082     1541.387     1913.334      487.630        0.457        0.197       43.850       21.807        0.247      344.231       20.904      864.582
08/10/2014  08:34:00       55.313       55.540       55.176       43.581       49.698       41.811     1899.288     2469.857     1748.197        0.765        0.306       78.386       40.637        0.269      343.717       20.026      864.580
08/10/2014  08:35:00       82.422       62.012       14.312       36.085       31.178       38.580     1302.115      972.044     1488.396        0.730        0.188      103.145       13.719        0.018      343.658       19.925      864.592
08/10/2014  08:36:00      133.816       97.673       42.714       49.939       40.159       54.458     2493.872     1612.749     2965.679        1.817        0.354      165.670       25.921        0.024      343.525       19.698      864.614
08/10/2014  08:37:00      142.421       82.487       12.960       48.012       33.730       33.226     2305.127     1137.706     1103.959        1.590        0.227      164.583       11.291        0.005      343.521       19.690      864.636
08/10/2014  08:38:00       63.266       74.898       42.109       35.999       28.794       33.522     1295.908      829.108     1123.740        0.732        0.162       98.042       20.737        0.045      343.497       19.651      864.647
08/10/2014  08:39:00       75.375       54.111        0.713       22.694       27.192       30.099      515.019      739.430      905.977        0.538        0.108       92.787       18.136        0.038      343.430       19.536      864.651
08/10/2014  08:40:00       43.989       29.762       26.439       50.490       34.492       26.704     2549.262     1189.692      713.107        0.399        0.223       53.111       22.968        0.187      344.228       20.898      864.648
08/10/2014  08:41:00      101.837       74.344        1.188       50.808       43.095       29.028     2581.490     1857.150      842.613        1.059        0.264      126.087       22.821        0.033      343.620       19.860      864.663
08/10/2014  08:42:00       92.460       39.014        1.855       34.527       34.278       27.640     1192.088     1174.954      763.988        0.660        0.157      100.355       14.639        0.021      343.736       20.057      864.674
08/10/2014  08:43:00       36.125       41.219       49.977       43.025       41.622       33.846     1851.156     1732.391     1145.582        0.511        0.236       54.809       31.594        0.332      343.988       20.487      864.685
08/10/2014  08:44:00       47.328       50.805       35.169       45.359       34.398       41.667     2057.477     1183.212     1736.129        0.552        0.249       69.434       35.013        0.254      344.008       20.521      864.691
08/10/2014  08:45:00       54.762       46.084       22.339       33.590       19.965       24.781     1128.317      398.589      614.089        0.388        0.107       71.573       15.444        0.047      343.737       20.059      864.700
08/10/2014  08:46:00       71.131       73.795       12.886       45.617       40.386       34.928     2080.880     1631.035     1219.948        0.780        0.247      102.495       21.388        0.044      343.791       20.150      864.694
08/10/2014  08:47:00       68.783       54.685       38.908       64.243       38.737       46.083     4127.185     1500.553     2123.650        0.849        0.388       87.873       41.714        0.225      344.086       20.655      864.704
08/10/2014  08:48:00      118.775       78.305       20.208       46.933       38.665       36.949     2202.707     1495.010     1365.226        1.285        0.253      142.264       19.160        0.018      343.662       19.932      864.699
08/10/2014  08:49:00      115.228       83.959        2.487       25.876       30.425       32.310      669.558      925.703     1043.939        1.149        0.132      142.571       10.305        0.005      343.586       19.800      864.700
08/10/2014  08:50:00       65.506       41.862        5.595       23.129       28.611       30.883      534.963      818.612      953.751        0.419        0.115       77.740       10.388        0.018      343.693       19.984      864.690
08/10/2014  08:51:00      105.191       64.403       11.191       42.371       24.916       30.621     1795.279      620.809      937.637        0.935        0.168      123.341       28.520        0.053      343.668       19.941      864.687
08/10/2014  08:52:00       11.517       56.898       65.628       32.426       44.278       38.435     1051.428     1960.583     1477.269        0.608        0.224       58.052       29.624        0.260      344.303       21.026      864.689
08/10/2014  08:53:00       57.405       46.328       41.531       44.954       41.493       34.932     2020.828     1721.665     1220.224        0.606        0.248       73.767       32.803        0.198      344.089       20.660      864.692
08/10/2014  08:54:00       73.942       52.195       16.251       29.686       19.385       25.981      881.287      375.797      674.987        0.519        0.097       90.508       15.093        0.028      343.638       19.890      864.687
08/10/2014  08:55:00       83.612       68.782       15.292       38.209       20.954       35.012     1459.935      439.062     1225.833        0.754        0.156      108.268       29.199        0.073      343.801       20.167      864.692
08/10/2014  08:56:00       74.874       46.014       -2.117       18.925       32.433       22.430      358.142     1051.884      503.090        0.482        0.096       87.883       13.418        0.023      343.795       20.159      864.704
08/10/2014  08:57:00       32.356        8.825       16.576       22.984       17.308       23.317      528.273      299.581      543.690        0.139        0.069       33.538       11.038        0.108      344.435       21.253      864.722
08/10/2014  08:58:00       12.335       35.308       -1.343       31.323       17.153       23.722      981.106      294.212      562.742        0.162        0.092       37.401       12.820        0.118      343.991       20.495      864.718
08/10/2014  08:59:00      -15.399       12.962       -0.245       39.434       14.678       22.400     1555.042      215.439      501.765        0.134        0.114       20.128       21.973        1.192      344.066       20.622      864.720
08/10/2014  09:00:00       -0.455       20.091       14.129       18.562       24.263       17.268      344.539      588.703      298.194        0.092        0.062       20.096       10.682        0.283      344.763       21.812      864.713
08/10/2014  09:01:00        5.530        2.266       -2.045       27.445       29.448       22.386      753.226      867.173      501.147        0.108        0.106        5.977       13.199        4.878      344.566       21.477      864.704
08/10/2014  09:02:00       -5.217        7.163       13.141       16.048       18.926       13.856      257.538      358.194      191.984        0.053        0.040        8.861       13.418        2.293      344.950       22.133      864.695
08/10/2014  09:03:00       16.877       54.194       -0.954       25.286       51.282       22.159      639.358     2629.840      491.031        0.349        0.188       56.761       14.915        0.069      344.491       21.348      864.698
08/10/2014  09:04:00       21.110       10.051       13.742       19.508       20.122       23.288      380.558      404.879      542.334        0.103        0.066       23.381        6.241        0.071      344.765       21.818      864.684
08/10/2014  09:05:00       40.362       33.859       37.163       42.787       29.705       26.774     1830.734      882.386      716.857        0.379        0.171       52.683       11.771        0.050      344.767       21.819      864.677
08/10/2014  09:06:00      105.803       77.886       10.888       34.727       40.617       36.853     1205.960     1649.722     1358.148        1.080        0.211      131.379       28.523        0.047      344.096       20.673      864.673
08/10/2014  09:07:00      101.852       28.618        4.024       40.095       32.013       28.950     1607.587     1024.856      838.107        0.734        0.174      105.796       17.808        0.028      344.102       20.681      864.669
08/10/2014  09:08:00       37.114       19.891        8.710       41.093       30.575       31.450     1688.640      934.855      989.105        0.273        0.181       42.108       20.622        0.240      344.399       21.191      864.668
08/10/2014  09:09:00       47.809       23.053       24.762       44.665       32.706       33.904     1994.961     1069.715     1149.458        0.382        0.211       53.076       29.968        0.319      344.574       21.491      864.650
08/10/2014  09:10:00       15.060       45.482       27.573       34.731       38.154       29.891     1206.241     1455.727      893.455        0.330        0.178       47.911       25.877        0.292      344.670       21.653      864.645
08/10/2014  09:11:00       50.411       58.381       -7.149       30.196       22.486       33.136      911.827      505.628     1097.970        0.426        0.126       77.133       16.987        0.048      344.499       21.362      864.634
08/10/2014  09:12:00       51.892       53.286        1.268       35.491       35.509       21.884     1259.616     1260.859      478.891        0.427        0.150       74.379       17.793        0.057      344.406       21.202      864.633
08/10/2014  09:13:00       66.197       70.715       -4.787       41.776       34.325       28.074     1745.248     1178.212      788.161        0.656        0.186       96.864       17.098        0.031      344.536       21.424      864.618
08/10/2014  09:14:00       83.642       60.039        9.856       42.668       38.840       29.472     1820.529     1508.552      868.582        0.745        0.210      102.960       18.024        0.031      344.640       21.604      864.611
08/10/2014  09:15:00       55.934       38.727       12.106       26.907       22.892       20.565      723.967      524.024      422.937        0.322        0.084       68.032        8.351        0.015      344.679       21.669      864.617
08/10/2014  09:16:00       51.657       52.437       20.112       65.478       38.708       34.169     4287.311     1498.338     1167.487        0.639        0.348       73.607       38.481        0.273      344.907       22.060      864.611
08/10/2014  09:17:00       82.419       88.319       -5.118       47.863       40.666       35.871     2290.904     1653.718     1286.733        0.992        0.262      120.802       24.341        0.041      344.554       21.456      864.619
08/10/2014  09:18:00      111.318       83.225        1.484       38.053       33.128       34.526     1448.024     1097.461     1192.012        1.153        0.187      138.990       20.965        0.023      344.414       21.217      864.619
08/10/2014  09:19:00      103.271       66.187        6.484       22.420       22.913       21.988      502.676      525.017      483.463        0.830        0.076      122.661        7.724        0.004      344.201       20.852      864.632
08/10/2014  09:20:00       26.090       24.833        8.336       30.021       23.357       19.404      901.231      545.563      376.519        0.159        0.091       36.019       13.214        0.135      344.589       21.517      864.646
08/10/2014  09:21:00       31.357       25.662       18.130       36.838       28.291       32.041     1357.003      800.354     1026.607        0.258        0.159       40.519       25.213        0.387      345.131       22.443      864.650
08/10/2014  09:22:00       75.923       65.817       12.253       35.585       46.660       34.326     1266.311     2177.172     1178.271        0.743        0.231      100.480       26.223        0.068      344.711       21.724      864.641
08/10/2014  09:23:00       39.181       86.009       -3.508       36.432       39.969       22.404     1327.294     1597.507      501.945        0.619        0.171       94.513       17.539        0.034      344.649       21.617      864.638
08/10/2014  09:24:00      -11.469       67.622        8.688       24.376       45.219       26.401      594.187     2044.755      697.030        0.406        0.167       68.587       26.522        0.150      345.213       22.584      864.624
08/10/2014  09:25:00       -8.669       18.961       12.810       15.266       30.609       24.016      233.058      936.903      576.784        0.117        0.087       20.849       23.045        1.222      345.183       22.533      864.610
08/10/2014  09:26:00        8.401       14.892       24.122       34.674       30.062       21.973     1202.254      903.699      482.815        0.173        0.129       17.099       21.840        1.632      345.552       23.164      864.603
08/10/2014  09:27:00       57.557       46.125       36.489       36.233       31.171       20.603     1312.851      971.644      424.493        0.474        0.135       73.759       20.225        0.075      344.763       21.812      864.594
08/10/2014  09:28:00       23.123       31.490       38.045       44.075       33.155       29.539     1942.573     1099.242      872.557        0.344        0.196       39.068       15.085        0.149      345.285       22.706      864.588
08/10/2014  09:29:00       90.666       51.658       15.856       42.995       33.628       33.535     1848.578     1130.867     1124.565        0.762        0.205      104.350       24.029        0.053      344.970       22.167      864.594
08/10/2014  09:30:00       54.663       46.205       25.723       51.642       42.845       30.740     2666.888     1835.693      944.942        0.561        0.272       71.575       31.131        0.189      345.326       22.776      864.586
08/10/2014  09:31:00       -4.615      -26.781       30.446       26.252       49.885       32.407      689.153     2488.520     1050.194        0.295        0.211       27.176       17.640        0.421      345.593       23.234      864.591
08/10/2014  09:32:00       16.586      -47.274       26.919       31.719       54.965       35.526     1006.072     3021.181     1262.106        0.426        0.264       50.100       29.751        0.353      345.547       23.155      864.576
08/10/2014  09:33:00        9.565       -9.829       21.568       31.094       73.692       41.620      966.824     5430.463     1732.264        0.439        0.406       13.715       43.236        9.938      345.212       22.581      864.574
08/10/2014  09:34:00        5.825       31.113       32.714       24.445       45.445       24.865      597.550     2065.270      618.290        0.268        0.164       31.654       20.121        0.404      345.574       23.202      864.566
08/10/2014  09:35:00        4.872       10.222       41.453       23.055       30.808       21.367      531.551      949.128      456.540        0.189        0.097       11.323       11.994        1.122      345.795       23.582      864.561
08/10/2014  09:36:00       16.517       88.925       96.174       42.796       50.316       23.913     1831.530     2531.725      571.850        1.118        0.247       90.446       25.241        0.078      345.354       22.825      864.556
08/10/2014  09:37:00      128.646       74.219       21.673       34.780       49.605       46.852     1209.628     2460.694     2195.140        1.420        0.293      148.521       24.299        0.027      344.905       22.055      864.554
08/10/2014  09:38:00       19.030       47.477       37.699       26.723       29.362       28.087      714.138      862.138      788.903        0.320        0.118       51.149       18.464        0.130      345.435       22.964      864.570
08/10/2014  09:39:00        8.153       25.327       45.235       22.346       33.174       27.110      499.359     1100.500      734.932        0.254        0.117       26.607       23.409        0.774      345.656       23.343      864.572
08/10/2014  09:40:00       76.707       57.910       42.328       62.961       47.459       52.195     3964.144     2252.370     2724.358        0.998        0.447       96.112       37.658        0.154      345.417       22.932      864.579
08/10/2014  09:41:00      102.642      107.604      101.775       91.829       52.223       42.922     8432.487     2727.294     1842.297        2.273        0.650      148.708       49.649        0.111      345.076       22.347      864.598
08/10/2014  09:42:00       88.849       49.365       23.943       61.921       38.969       46.957     3834.253     1518.564     2204.934        0.923        0.378      101.641       38.236        0.142      345.057       22.317      864.610
08/10/2014  09:43:00       25.191       69.914       79.600       53.132       42.220       32.081     2823.002     1782.554     1029.216        0.875        0.282       74.313       22.346        0.090      345.552       23.164      864.606
08/10/2014  09:44:00       13.853       20.446       39.085       32.588       24.537       21.184     1061.952      602.084      448.770        0.212        0.106       24.697       21.501        0.758      345.697       23.414      864.609
08/10/2014  09:45:00        6.385       15.734       35.124       23.693       25.287       19.652      561.374      639.440      386.204        0.155        0.079       16.981       12.313        0.526      345.943       23.836      864.604
08/10/2014  09:46:00        9.298       29.882        7.159       36.266       35.255       18.298     1315.228     1242.912      334.824        0.196        0.145       31.295       17.841        0.325      345.628       23.295      864.606
08/10/2014  09:47:00      103.875       50.356        3.949       47.794       38.917       36.072     2284.267     1514.563     1301.208        0.922        0.255      115.437       19.833        0.030      345.387       22.882      864.604
08/10/2014  09:48:00      111.275       83.508        0.172       44.284       32.557       35.532     1961.087     1059.951     1262.553        1.182        0.214      139.125       13.948        0.010      345.071       22.339      864.606
08/10/2014  09:49:00       53.151       37.109        3.459       28.963       29.443       33.432      838.830      866.876     1117.700        0.352        0.141       64.824       23.293        0.129      345.322       22.770      864.617
08/10/2014  09:50:00       34.165       59.236       24.657       46.074       29.603       37.996     2122.850      876.367     1443.662        0.486        0.222       68.382       29.980        0.192      345.419       22.937      864.608
08/10/2014  09:51:00       65.948       72.846       61.532       38.534       28.627       41.493     1484.882      819.497     1721.635        0.873        0.201       98.263       17.844        0.033      345.424       22.944      864.611
08/10/2014  09:52:00        9.668       12.245       37.473       43.020       31.350       26.475     1850.756      982.802      700.935        0.259        0.177       15.602       20.365        1.704      346.058       24.034      864.606
08/10/2014  09:53:00       22.458       57.356       10.532       36.801       46.908       33.040     1354.335     2200.341     1091.666        0.427        0.232       61.596       26.004        0.178      345.846       23.669      864.608
08/10/2014  09:54:00      116.584       70.459       32.016       74.447       41.561       33.688     5542.287     1727.311     1134.853        1.399        0.420      136.221       22.535        0.027      345.541       23.145      864.598
08/10/2014  09:55:00      100.760       49.006       36.282       77.085       51.124       52.118     5942.053     2613.636     2716.324        1.257        0.564      112.046       40.083        0.128      345.805       23.599      864.608
08/10/2014  09:56:00      112.914       77.228       -5.900       75.700       44.922       41.102     5730.520     2017.958     1689.369        1.409        0.472      136.798       25.770        0.035      345.551       23.161      864.611
08/10/2014  09:57:00      136.775       77.925       -1.242       58.161       52.231       39.248     3382.665     2728.032     1540.419        1.621        0.383      157.416       32.342        0.042      345.515       23.102      864.622
08/10/2014  09:58:00       84.650       77.112       32.685       49.162       39.287       35.176     2416.874     1543.500     1237.334        0.969        0.260      114.507       26.637        0.054      345.633       23.303      864.628
08/10/2014  09:59:00       98.966       85.830       30.756       35.808       31.875       42.827     1282.237     1016.006     1834.176        1.112        0.207      131.000       20.882        0.025      345.495       23.067      864.633
08/10/2014  10:00:00      106.221       61.615       22.559       44.160       38.053       35.752     1950.108     1448.051     1278.210        1.013        0.234      122.798       21.161        0.030      345.691       23.403      864.643
08/10/2014  10:01:00       84.939       67.095       20.768       50.966       37.172       40.207     2597.554     1381.760     1616.610        0.887        0.280      108.242       36.714        0.115      345.857       23.688      864.641
08/10/2014  10:02:00      102.263       47.472        9.038       50.756       33.002       35.644     2576.146     1089.160     1270.498        0.886        0.247      112.745       23.369        0.043      345.670       23.366      864.651
08/10/2014  10:03:00       73.989       75.322       32.086       45.353       25.515       34.598     2056.902      651.016     1197.006        0.804        0.195      105.583       30.319        0.082      345.638       23.310      864.644
08/10/2014  10:04:00       29.174       63.388       33.381       41.368       28.864       33.223     1711.338      833.148     1103.735        0.482        0.182       69.780       19.326        0.077      345.941       23.832      864.652
08/10/2014  10:05:00        8.457        3.283       17.104       24.251       36.948       26.706      588.126     1365.158      713.201        0.152        0.133        9.072       25.426        7.855      346.519       24.825      864.651
08/10/2014  10:06:00       44.059      -22.056       21.426       58.634       67.575       39.548     3437.936     4566.318     1564.015        0.623        0.478       49.272       48.068        0.952      346.323       24.489      864.663
08/10/2014  10:07:00       46.059       44.229       60.719       64.203       48.815       36.352     4122.030     2382.939     1321.485        0.779        0.391       63.856       42.261        0.438      346.152       24.196      864.663
08/10/2014  10:08:00       12.637       22.192       55.813       29.278       25.987       16.644      857.230      675.322      277.014        0.279        0.090       25.538        8.594        0.113      346.856       25.406      864.674
08/10/2014  10:09:00       -2.199      -15.383       44.497       27.130       55.896       39.922      736.050     3124.342     1593.765        0.384        0.273       15.540       18.094        1.356      346.589       24.946      864.672
08/10/2014  10:10:00        2.172      -24.813       44.151       35.498       39.048       33.545     1260.099     1524.724     1125.282        0.324        0.196       24.908       24.247        0.948      346.594       24.953      864.690
08/10/2014  10:11:00       44.959       50.030       37.725       52.862       60.938       43.156     2794.407     3713.379     1862.414        0.716        0.419       67.263       28.043        0.174      346.281       24.417      864.688
08/10/2014  10:12:00       59.326       49.523       19.389       41.136       29.744       29.811     1692.207      884.706      888.705        0.491        0.173       77.279       19.484        0.064      345.875       23.717      864.690
08/10/2014  10:13:00       88.462       69.814       28.240       36.080       28.617       43.922     1301.753      818.926     1929.157        0.877        0.202      112.692       25.060        0.049      345.918       23.793      864.691
08/10/2014  10:14:00       50.213       63.779       -0.469       20.571       23.855       28.935      423.176      569.084      837.243        0.421        0.091       81.173       19.914        0.060      345.628       23.294      864.690
08/10/2014  10:15:00       39.998       50.918        2.675       56.685       56.146       32.916     3213.140     3152.353     1083.491        0.582        0.372       64.750       33.360        0.265      346.334       24.508      864.680
08/10/2014  10:16:00       54.324       63.193       10.734       42.451       48.802       36.869     1802.104     2381.610     1359.358        0.630        0.277       83.333       24.289        0.085      346.137       24.168      864.683
08/10/2014  10:17:00      117.320       66.990       23.162       49.431       32.332       37.172     2443.457     1045.382     1381.772        1.183        0.244      135.098       17.887        0.018      346.009       23.949      864.686
08/10/2014  10:18:00      110.081       65.946       20.130       73.343       43.982       44.870     5379.197     1934.438     2013.285        1.310        0.466      128.323       44.417        0.120      346.241       24.347      864.698
08/10/2014  10:19:00       69.755       97.160       90.693       83.163       56.056       53.815     6916.163     3142.288     2896.091        1.774        0.648      119.606       51.062        0.182      346.414       24.643      864.694
08/10/2014  10:20:00      124.699       91.500       51.598       50.050       54.750       51.763     2505.003     2997.586     2679.357        1.738        0.409      154.668       43.190        0.078      345.863       23.697      864.712
08/10/2014  10:21:00      106.037       87.342       52.574       56.085       30.579       37.532     3145.482      935.099     1408.621        1.356        0.274      137.377       29.261        0.045      346.100       24.104      864.706
08/10/2014  10:22:00       76.304       73.914       40.249       51.003       26.666       39.313     2601.316      711.101     1545.525        0.888        0.243      106.233       21.140        0.040      346.058       24.033      864.717
08/10/2014  10:23:00       16.488        4.874        8.284       51.177       35.451       18.077     2619.106     1256.788      326.769        0.228        0.210       17.193        7.884        0.210      346.422       24.659      864.710
08/10/2014  10:24:00       -0.055        0.390       16.061       40.481       29.500       21.866     1638.699      870.255      478.109        0.162        0.149        0.394       20.832     2798.806      346.870       25.431      864.711
08/10/2014  10:25:00       30.170       -7.169       35.080       53.644       43.182       34.540     2877.653     1864.646     1193.010        0.406        0.297       31.010       25.041        0.652      346.882       25.449      864.709
08/10/2014  10:26:00       46.376       56.598       61.361       44.891       42.179       37.915     2015.194     1779.060     1437.524        0.717        0.262       73.171       23.828        0.106      346.640       25.033      864.713
08/10/2014  10:27:00       66.836       97.471       82.840       49.711       40.441       37.495     2471.200     1635.466     1405.839        1.317        0.276      118.184       31.882        0.073      346.269       24.395      864.705
08/10/2014  10:28:00       71.257       61.000       29.555       44.196       55.862       27.890     1953.251     3120.569      777.850        0.776        0.293       93.801       25.719        0.075      345.967       23.876      864.719
08/10/2014  10:29:00       42.625        3.801       20.054       45.763       66.653       35.050     2094.243     4442.561     1228.471        0.500        0.388       42.794       13.220        0.095      346.624       25.006      864.707
08/10/2014  10:30:00       74.426       40.818       11.834       48.708       31.851       30.508     2372.515     1014.465      930.710        0.583        0.216       84.884       18.283        0.046      346.422       24.659      864.704
08/10/2014  10:31:00      123.617      101.423       44.827       45.094       49.528       39.477     2033.472     2452.994     1558.471        1.681        0.302      159.899       25.492        0.025      346.409       24.636      864.683
08/10/2014  10:32:00       32.963       32.892       48.388       61.016       55.109       27.916     3722.893     3037.027      779.283        0.602        0.377       46.566       12.529        0.072      346.667       25.081      864.685
08/10/2014  10:33:00       51.941       54.688       34.109       50.685       38.330       37.090     2569.016     1469.165     1375.653        0.613        0.271       75.423       33.375        0.196      346.756       25.233      864.686
08/10/2014  10:34:00        8.858       40.842       66.651       31.285       59.692       36.907      978.746     3563.189     1362.153        0.605        0.295       41.791       42.162        1.018      346.697       25.130      864.693
08/10/2014  10:35:00       34.633       50.701       55.892       41.161       59.095       32.617     1694.217     3492.178     1063.855        0.657        0.313       61.400       34.370        0.313      346.403       24.625      864.687
08/10/2014  10:36:00       68.810      -55.140       20.637       56.417       83.090       48.053     3182.920     6903.956     2309.075        1.030        0.620       88.177       60.025        0.463      346.580       24.930      864.687
08/10/2014  10:37:00       45.946       -5.232       56.319       43.428       52.349       46.614     1886.033     2740.466     2172.861        0.605        0.340       46.243       30.948        0.448      347.000       25.653      864.689
08/10/2014  10:38:00       25.217        2.008       57.220       39.262       62.163       36.034     1541.485     3864.215     1298.442        0.531        0.335       25.297       32.988        1.701      347.210       26.014      864.691
08/10/2014  10:39:00       13.028       32.647       57.189       40.908       40.333       38.218     1673.459     1626.776     1460.608        0.463        0.238       35.151       28.712        0.667      347.388       26.322      864.701
08/10/2014  10:40:00       38.914       43.212       48.890       46.745       55.487       43.252     2185.105     3078.842     1870.767        0.645        0.357       58.152       39.818        0.469      347.018       25.683      864.716
08/10/2014  10:41:00       86.683       65.882       22.879       61.704       43.347       26.904     3807.428     1878.986      723.841        0.939        0.321      108.878       16.678        0.023      346.704       25.144      864.723
08/10/2014  10:42:00       80.666       27.571       15.567       54.074       37.088       35.946     2923.997     1375.522     1292.110        0.655        0.280       85.247       23.092        0.073      346.666       25.078      864.718
08/10/2014  10:43:00       53.771       34.055       20.258       51.290       38.489       27.653     2630.631     1481.412      764.678        0.467        0.244       63.648       14.458        0.052      346.934       25.540      864.716
08/10/2014  10:44:00       65.382       75.132       16.904       34.915       27.164       34.144     1219.057      737.897     1165.845        0.666        0.156       99.597       18.866        0.036      346.951       25.568      864.699
08/10/2014  10:45:00       97.753       70.591        2.207       42.593       31.804       38.931     1814.153     1011.500     1515.586        0.944        0.217      120.577       20.292        0.028      346.946       25.559      864.701
08/10/2014  10:46:00       98.139       76.965       28.715       80.844       48.804       49.182     6535.715     2381.802     2418.861        1.386        0.567      124.719       49.944        0.160      346.891       25.464      864.684
08/10/2014  10:47:00       66.769       68.244       32.082       52.281       37.270       34.153     2733.322     1389.054     1166.406        0.772        0.264       95.474       23.938        0.063      347.349       26.254      864.682
08/10/2014  10:48:00       53.151       54.130       -3.747       44.036       37.279       32.005     1939.212     1389.741     1024.348        0.506        0.218       75.863       26.362        0.121      346.822       25.347      864.675
08/10/2014  10:49:00      138.666       92.561       18.148       88.429       55.771       35.220     7819.728     3110.368     1240.443        2.015        0.609      166.721       14.129        0.007      347.036       25.712      864.674
08/10/2014  10:50:00      118.855       79.839       42.582       81.783       44.853       38.858     6688.484     2011.782     1509.949        1.626        0.511      143.181       42.005        0.086      346.808       25.321      864.680
08/10/2014  10:51:00       32.211       86.263       32.232       39.081       41.383       46.261     1527.326     1712.570     2140.087        0.745        0.269       92.081       28.648        0.097      346.860       25.411      864.670
08/10/2014  10:52:00       13.343       35.349       16.577       34.011       58.681       27.796     1156.730     3443.497      772.603        0.354        0.269       37.783       16.602        0.193      347.520       26.549      864.676
08/10/2014  10:53:00       63.084       60.233       35.585       58.102       43.594       43.013     3375.892     1900.408     1850.119        0.800        0.356       87.222       33.619        0.149      347.406       26.352      864.673
08/10/2014  10:54:00       77.197       86.699       24.376       37.489       26.213       34.391     1405.457      687.108     1182.747        0.867        0.164      116.086       18.099        0.024      346.890       25.463      864.673
08/10/2014  10:55:00       66.025       47.998       34.428       59.621       30.964       32.462     3554.635      958.758     1053.759        0.671        0.278       81.628       32.190        0.156      347.204       26.004      864.670
08/10/2014  10:56:00       86.580       64.007       33.038       52.351       36.758       40.898     2740.672     1351.118     1672.606        0.922        0.288      107.670       14.816        0.019      347.087       25.803      864.675
08/10/2014  10:57:00        5.696       53.803       -6.618       39.777       39.552       28.312     1582.215     1564.331      801.588        0.346        0.197       54.104       30.143        0.310      347.220       26.033      864.673
08/10/2014  10:58:00       23.498      -39.512       17.026       32.377       34.951       18.924     1048.244     1221.556      358.120        0.252        0.131       45.971       20.130        0.192      347.667       26.802      864.679
08/10/2014  10:59:00       43.205       65.368       71.924       55.018       66.059       55.477     3026.940     4363.843     3077.701        1.089        0.523       78.356       50.984        0.423      347.607       26.700      864.676
08/10/2014  11:00:00       62.814       53.531       30.215       46.792       39.519       29.667     2189.493     1561.758      880.115        0.618        0.232       82.530       25.439        0.095      347.182       25.967      864.679
08/10/2014  11:01:00        2.657       19.192       35.408       19.717       21.769       11.661      388.772      473.896      135.974        0.131        0.050       19.375        5.519        0.081      348.072       27.501      864.666
08/10/2014  11:02:00       42.011        1.405       40.656       51.730       81.948       53.022     2676.002     6715.435     2811.289        0.781        0.610       42.035       55.825        1.764      347.868       27.149      864.664
08/10/2014  11:03:00       31.331       44.639       61.349       45.879       60.558       37.513     2104.879     3667.322     1407.248        0.696        0.359       54.537       36.904        0.458      347.927       27.252      864.667
08/10/2014  11:04:00       81.927       60.365       76.151       67.028       58.462       50.207     4492.816     3417.756     2520.735        1.329        0.522      101.764       50.206        0.243      347.376       26.300      864.666
08/10/2014  11:05:00       25.891       35.357       43.832       40.729       46.562       34.365     1658.859     2168.028     1180.971        0.442        0.250       43.823       18.957        0.187      347.781       26.999      864.666
08/10/2014  11:06:00       44.043       57.140       21.852       40.929       36.687       31.571     1675.211     1345.918      996.745        0.485        0.201       72.144       23.886        0.110      347.660       26.789      864.660
08/10/2014  11:07:00       55.271       36.634       43.944       53.099       28.150       29.237     2819.537      792.436      854.803        0.540        0.223       66.309       27.859        0.177      347.750       26.946      864.651
08/10/2014  11:08:00       43.280       35.261       37.818       43.570       37.661       30.583     1898.375     1418.345      935.345        0.440        0.213       55.826       22.654        0.165      347.972       27.328      864.646
08/10/2014  11:09:00       11.686       52.589       37.698       38.935       43.278       36.146     1515.949     1873.012     1306.551        0.451        0.235       53.872        7.131        0.018      348.086       27.526      864.642
08/10/2014  11:10:00       69.652       76.055       17.133       44.068       45.397       39.378     1942.023     2060.916     1550.616        0.824        0.278      103.130       30.396        0.087      347.841       27.103      864.638
08/10/2014  11:11:00       48.783       43.377       34.494       71.832       43.524       50.167     5159.850     1894.300     2516.749        0.751        0.479       65.279       36.451        0.312      348.044       27.454      864.653
08/10/2014  11:12:00       42.051       18.021       29.224       51.035       23.526       28.109     2604.521      553.469      790.093        0.345        0.197       45.749       12.101        0.070      348.108       27.565      864.649
08/10/2014  11:13:00       64.517       70.320        3.690       45.923       43.319       44.677     2108.893     1876.505     1996.014        0.755        0.299       95.433       31.259        0.107      347.728       26.908      864.653
08/10/2014  11:14:00       -3.257      139.571      -10.576       32.614       55.574       34.974     1063.703     3088.435     1223.161        1.249        0.269      139.609       36.231        0.067      347.682       26.829      864.640
08/10/2014  11:15:00       24.785       62.186       13.458       39.044       37.481       33.352     1524.403     1404.789     1112.358        0.435        0.202       66.944       29.698        0.197      348.237       27.787      864.635
08/10/2014  11:16:00       33.728       45.071       10.291       40.074       28.095       26.311     1605.895      789.341      692.262        0.318        0.154       56.293       21.936        0.152      348.156       27.648      864.618
08/10/2014  11:17:00       39.394      106.625       -2.678       70.921       87.397       39.339     5029.844     7638.227     1547.582        1.357        0.711      113.669       39.844        0.123      348.162       27.656      864.614
08/10/2014  11:18:00      114.419      102.972       16.880       58.246       53.289       53.788     3392.569     2839.668     2893.190        1.655        0.456      153.932       39.619        0.066      347.740       26.927      864.598
08/10/2014  11:19:00       70.045       72.745       14.452       65.210       67.035       54.036     4252.349     4493.660     2919.892        1.103        0.583      100.985       42.211        0.175      347.897       27.199      864.596
08/10/2014  11:20:00       73.018       67.603       73.769       81.378       54.699       55.859     6622.425     2992.023     3120.271        1.404        0.637       99.508       43.956        0.195      348.165       27.662      864.583
08/10/2014  11:21:00       85.650       58.371       41.171       35.713       31.341       32.109     1275.427      982.288     1031.013        0.786        0.164      103.649       19.808        0.037      347.418       26.373      864.588
08/10/2014  11:22:00       44.932       10.199       63.380       77.975       78.317       66.412     6080.149     6133.478     4410.592        1.138        0.831       46.075       62.313        1.829      347.977       27.336      864.568
08/10/2014  11:23:00      117.883      103.547      103.792       70.136       72.921       65.351     4919.113     5317.465     4270.691        2.495        0.725      156.903       53.848        0.118      347.598       26.680      864.567
08/10/2014  11:24:00       64.227       86.021       74.784       61.288       38.339       32.489     3756.206     1469.905     1055.535        1.170        0.314      107.353       17.534        0.027      347.653       26.777      864.577
08/10/2014  11:25:00       21.457       55.104       73.803       34.745       31.703       19.755     1207.210     1005.075      390.276        0.577        0.130       59.134       11.061        0.035      347.851       27.119      864.572
08/10/2014  11:26:00      109.419       63.210       24.422       43.366       32.992       36.605     1880.646     1088.440     1339.910        1.044        0.215      126.365       25.121        0.040      347.663       26.795      864.563
08/10/2014  11:27:00       13.180        8.307        8.598       83.316       59.310       35.642     6941.559     3517.630     1270.375        0.602        0.586       15.579       32.302        4.299      347.876       27.163      864.561
08/10/2014  11:28:00      -81.442      -30.712       -3.211       26.541       44.406       25.960      704.450     1971.926      673.928        0.547        0.168       87.040       18.647        0.046      347.495       26.505      864.551
08/10/2014  11:29:00       -1.360       19.040       54.836       20.182       25.568       22.117      407.311      653.748      489.141        0.246        0.078       19.088       13.400        0.493      349.057       29.207      864.548
08/10/2014  11:30:00      100.099       49.494       15.921       51.593       54.874       52.820     2661.886     3011.116     2789.993        1.059        0.423      111.667       37.792        0.115      347.681       26.826      864.551
08/10/2014  11:31:00       -6.638      -25.041      -10.641       69.942       46.800       49.925     4891.827     2190.230     2492.530        0.518        0.479       25.906       34.950        1.820      347.980       27.344      864.535
08/10/2014  11:32:00       77.131       35.092       10.798       71.753       42.983       28.680     5148.426     1847.533      822.525        0.756        0.391       84.739       29.306        0.120      348.151       27.640      864.529
08/10/2014  11:33:00       43.510       24.021       25.357       65.657       41.867       37.223     4310.817     1752.883     1385.583        0.528        0.372       49.701       41.132        0.685      348.171       27.674      864.522
08/10/2014  11:34:00       81.387       58.428       55.350       79.066       85.073       51.086     6251.425     7237.333     2609.759        1.460        0.805      100.188       47.903        0.229      348.130       27.601      864.517
08/10/2014  11:35:00       67.405      -17.698       32.808       73.574       54.200       48.432     5413.094     2937.682     2345.682        0.831        0.535       69.690       49.601        0.507      348.015       27.404      864.513
08/10/2014  11:36:00       52.189      -64.384        5.595       50.953       43.989       35.013     2596.254     1935.044     1225.924        0.633        0.288       82.880       29.498        0.127      348.073       27.505      864.513
08/10/2014  11:37:00       32.485      -75.735       -2.759       57.728       61.718       31.404     3332.495     3809.137      986.208        0.746        0.406       82.408       37.111        0.203      348.149       27.635      864.496
08/10/2014  11:38:00       29.700        6.398       58.366       41.836       71.849       39.526     1750.210     5162.338     1562.266        0.640        0.424       30.382       43.762        2.075      348.529       28.291      864.498
08/10/2014  11:39:00       27.581      -15.769       38.941       39.684       78.336       46.087     1574.791     6136.534     2124.030        0.618        0.492       31.771       53.152        2.799      348.351       27.984      864.485
08/10/2014  11:40:00      -22.032      -69.801      -12.248       77.727       68.251       23.661     6041.538     4658.156      559.826        0.838        0.563       73.196       30.889        0.178      348.215       27.750      864.486
08/10/2014  11:41:00       -9.101      -41.142        6.951       42.917       40.825       29.459     1841.857     1666.698      867.812        0.310        0.219       42.137       24.897        0.349      348.539       28.309      864.473
08/10/2014  11:42:00      -12.482      -33.867       26.991       26.570       66.956       38.261      705.947     4483.129     1463.901        0.434        0.333       36.093       42.332        1.376      348.599       28.413      864.476
08/10/2014  11:43:00       44.641     -120.515        0.851       90.003       73.730       47.337     8100.525     5436.184     2240.827        1.614        0.789      128.518       56.166        0.191      348.297       27.889      864.468
08/10/2014  11:44:00       58.307     -163.114       -6.100       84.025       99.958       80.133     7060.155     9991.530     6421.252        2.675        1.174      173.222       55.421        0.102      348.356       27.990      864.463
08/10/2014  11:45:00      113.314     -153.547      -26.531      103.811       98.698       57.589    10776.748     9741.304     3316.442        3.047        1.192      190.832       59.181        0.096      347.838       27.094      864.468
08/10/2014  11:46:00      132.093     -118.063      -30.929       64.189       85.296       42.475     4120.209     7275.453     1804.115        2.277        0.660      177.165       44.579        0.063      347.868       27.147      864.474
08/10/2014  11:47:00       93.591      -62.297        4.795       64.580       88.101       51.162     4170.573     7761.712     2617.532        1.360        0.727      112.429       48.641        0.187      348.262       27.830      864.474
08/10/2014  11:48:00        2.262     -123.037       15.478       32.890       91.156       43.362     1081.767     8309.412     1880.239        1.332        0.564      123.057       50.719        0.170      348.149       27.635      864.473
08/10/2014  11:49:00       63.632     -163.268      -24.684       67.316       84.449       49.920     4531.476     7131.690     2492.039        2.273        0.708      175.230       47.156        0.072      348.083       27.518      864.465
08/10/2014  11:50:00        5.944      -83.756       -8.478       38.099       63.131       34.898     1451.568     3985.584     1217.890        0.689        0.333       83.967       31.352        0.139      348.006       27.387      864.468
08/10/2014  11:51:00       63.359      -45.396       22.731       58.743       77.395       41.558     3450.712     5989.945     1727.098        0.888        0.558       77.943       55.233        0.502      348.349       27.981      864.471
08/10/2014  11:52:00        3.522      -76.644        5.625       49.290       50.555       38.785     2429.485     2555.798     1504.241        0.620        0.324       76.725       36.501        0.226      348.122       27.589      864.446
08/10/2014  11:53:00      -28.266     -131.805      -10.448       92.582       79.686       43.800     8571.413     6349.796     1918.483        1.756        0.842      134.802       38.077        0.080      348.064       27.485      864.426
08/10/2014  11:54:00      -61.851      -23.032       12.813       78.831       53.839       37.590     6214.258     2898.669     1412.999        0.752        0.526       66.000       28.903        0.192      348.377       28.029      864.403
08/10/2014  11:55:00     -137.188      -28.625      -13.021       47.976       39.065       30.476     2301.676     1526.073      928.776        1.228        0.238      140.142       24.737        0.031      347.778       26.992      864.386
08/10/2014  11:56:00      -31.223      -13.489       29.238       43.869       38.814       24.963     1924.516     1506.488      623.130        0.303        0.203       34.013       20.750        0.372      348.755       28.683      864.382
08/10/2014  11:57:00      -32.313       -4.060       28.796       31.619       46.347       30.629      999.741     2148.041      938.114        0.299        0.204       32.567       30.972        0.904      348.836       28.822      864.387
08/10/2014  11:58:00       36.006      -58.321       13.177       73.518       98.856       55.124     5404.964     9772.508     3038.692        1.154        0.911       68.540       60.953        0.791      348.837       28.824      864.365
08/10/2014  11:59:00      169.460     -262.021      -38.454       79.548       68.880       44.680     6327.924     4744.446     1996.285        5.596        0.653      312.045       40.768        0.017      347.949       27.283      864.346
08/10/2014  12:00:00       41.835     -121.892       -8.020       98.828       67.382       48.571     9767.058     4540.307     2359.137        1.667        0.833      128.871       41.957        0.106      348.188       27.700      864.340
08/10/2014  12:01:00        3.680      -13.519       58.522       46.569       71.715       48.681     2168.671     5143.000     2369.801        0.665        0.484       14.011       49.015       12.239      348.719       28.620      864.328
08/10/2014  12:02:00       46.983     -166.151      -11.490       63.347       84.786       66.520     4012.809     7188.609     4424.890        2.278        0.781      172.666       50.056        0.084      348.238       27.786      864.325
08/10/2014  12:03:00       75.486     -105.266        7.749       53.940       59.586       32.170     2909.493     3550.449     1034.896        1.217        0.375      129.534       14.746        0.013      348.115       27.576      864.334
08/10/2014  12:04:00       82.254      -22.772       36.757       66.498       84.790       56.631     4421.960     7189.410     3207.107        1.172        0.741       85.348       54.641        0.410      348.610       28.431      864.332
08/10/2014  12:05:00       -9.795     -107.813       -5.082       52.620       85.650       37.164     2768.904     7335.937     1381.159        1.161        0.574      108.257       40.818        0.142      348.148       27.632      864.317
08/10/2014  12:06:00       60.225     -156.039      -25.361       75.186       68.237       55.004     5652.876     4656.352     3025.470        2.097        0.667      167.258       32.273        0.037      348.288       27.872      864.299
08/10/2014  12:07:00      111.353     -107.410        3.282       91.854      152.114       90.908     8437.215    23138.686     8264.246        3.189        1.992      154.714      107.921        0.487      348.458       28.166      864.274
08/10/2014  12:08:00      150.491     -245.663      -73.599       65.685       77.027       35.501     4314.518     5933.230     1260.352        4.996        0.575      288.094       32.715        0.013      347.930       27.253      864.273
08/10/2014  12:09:00       53.738      -78.020       -4.283       80.231       94.838       48.547     6436.942     8994.304     2356.834        1.339        0.889       94.736       63.458        0.449      348.339       27.963      864.286
08/10/2014  12:10:00       -3.865       34.706       19.072       67.409       39.019       35.654     4543.981     1522.459     1271.230        0.446        0.367       34.920       36.440        1.089      348.477       28.202      864.264
08/10/2014  12:11:00       -8.491        1.675       -0.149       28.784       26.712       20.677      828.534      713.510      427.533        0.102        0.098        8.655        8.111        0.878      348.740       28.655      864.280
08/10/2014  12:12:00       57.676       69.006       61.800       57.155       54.719       48.448     3266.662     2994.192     2347.180        1.026        0.430       89.935       37.973        0.178      348.481       28.208      864.275
08/10/2014  12:13:00       35.701        5.031       54.632       36.832       35.943       32.242     1356.593     1291.882     1039.564        0.399        0.184       36.054       23.757        0.434      348.903       28.939      864.259
08/10/2014  12:14:00       28.403      -22.399       48.898       45.965       58.310       44.671     2112.817     3400.007     1995.463        0.560        0.375       36.172       39.533        1.194      349.002       29.110      864.262
08/10/2014  12:15:00       23.319       21.010       25.665       42.982       50.651       50.150     1847.448     2565.563     2515.034        0.428        0.346       31.388       37.779        1.449      348.733       28.646      864.276
08/10/2014  12:16:00       23.305      -13.355       46.558       47.759       63.862       45.609     2280.969     4078.388     2080.163        0.566        0.422       26.860       51.926        3.737      348.784       28.735      864.265
08/10/2014  12:17:00       57.534        3.971       51.235       92.946       99.426       61.952     8638.970     9885.435     3838.085        1.415        1.118       57.671       71.700        1.546      349.018       29.139      864.249
08/10/2014  12:18:00       97.865      -27.054       70.791       87.721      156.147       74.341     7694.942    24381.804     5526.567        2.645        1.880      101.535       92.663        0.833      348.614       28.436      864.246
08/10/2014  12:19:00       78.537     -123.814       -1.483       62.286       92.260       55.655     3879.559     8511.940     3097.496        1.849        0.774      146.622       59.632        0.165      348.546       28.320      864.251
08/10/2014  12:20:00      109.270     -127.892        3.507       86.615       70.332       47.094     7502.244     4946.529     2217.809        2.148        0.733      168.215       49.870        0.088      348.472       28.192      864.259
08/10/2014  12:21:00       81.405       19.441       38.009       43.887       75.138       44.173     1926.079     5645.689     1951.283        0.898        0.476       83.694       13.025        0.024      348.647       28.496      864.271
08/10/2014  12:22:00       27.773       54.596       16.324       52.784       45.662       35.923     2786.169     2085.003     1290.449        0.509        0.308       61.254       27.659        0.204      348.683       28.559      864.263
08/10/2014  12:23:00      -43.466       -6.935       10.414       32.957       50.478       35.325     1086.194     2547.986     1247.883        0.346        0.244       44.016       34.293        0.607      348.746       28.668      864.255
08/10/2014  12:24:00      -19.639      -36.754        8.322       35.084       25.916       25.684     1230.874      671.623      659.682        0.218        0.128       41.672       19.845        0.227      348.803       28.766      864.243
08/10/2014  12:25:00      -69.975      -21.370        8.361       49.442       32.638       24.220     2444.539     1065.254      586.605        0.476        0.205       73.166       20.394        0.078      348.787       28.737      864.228
08/10/2014  12:26:00     -123.823      -47.662        0.968       66.427       41.971       27.740     4412.498     1761.570      769.498        1.227        0.347      132.679       36.954        0.078      348.616       28.442      864.211
08/10/2014  12:27:00     -129.422      -55.461      -22.852       29.088       41.217       16.025      846.119     1698.874      256.789        1.157        0.140      140.805        5.913        0.002      347.987       27.354      864.193
08/10/2014  12:28:00      -44.099       34.976       -9.325       45.817       23.131       28.319     2099.235      535.021      801.959        0.334        0.172       56.285       30.608        0.296      348.503       28.248      864.170
08/10/2014  12:29:00       -9.757        0.902       29.861       29.787       23.684       16.328      887.283      560.950      266.599        0.135        0.086        9.799        9.059        0.855      349.507       29.986      864.142
08/10/2014  12:30:00      -32.366      -21.206        5.427       20.384       24.057       19.683      415.490      578.730      387.438        0.145        0.069       38.694       11.007        0.081      348.652       28.506      864.107
08/10/2014  12:31:00      -25.893      -26.416        1.378       22.031       23.961       13.704      485.350      574.106      187.787        0.131        0.062       36.990        9.535        0.066      348.713       28.610      864.085
08/10/2014  12:32:00      -25.449      -11.757        5.010       20.258       17.861       11.986      410.405      319.015      143.667        0.084        0.044       28.034        9.059        0.104      348.948       29.016      864.070
08/10/2014  12:33:00       -6.470      -38.982       17.296       29.805       47.236       35.035      888.363     2231.220     1227.469        0.310        0.217       39.515       34.789        0.775      348.896       28.927      864.047
08/10/2014  12:34:00       28.899       20.037       22.084       26.236       14.816       27.034      688.353      219.522      730.824        0.168        0.082       35.166       10.004        0.081      348.582       28.383      864.051
08/10/2014  12:35:00       37.675       43.576        8.481       54.299       64.934       30.545     2948.419     4216.391      932.981        0.574        0.405       57.604       31.429        0.298      348.665       28.527      864.038
08/10/2014  12:36:00      118.893       43.827       26.069       51.245       56.542       34.897     2626.011     3196.972     1217.766        1.189        0.352      126.714       17.160        0.018      348.519       28.273      864.013
08/10/2014  12:37:00       18.966       86.876       -6.822       38.171       87.335       37.337     1457.030     7627.476     1394.063        0.921        0.524       88.922       41.622        0.219      348.776       28.718      864.001
08/10/2014  12:38:00       82.049       83.034        5.781       65.376       44.329       44.866     4274.086     1965.037     2012.938        1.095        0.413      116.733       29.667        0.065      348.689       28.568      863.978
08/10/2014  12:39:00       70.272      111.594        9.316      102.917       97.296       61.548    10591.957     9466.580     3788.099        2.066        1.192      131.876       55.216        0.175      348.827       28.806      863.984
08/10/2014  12:40:00      213.002      147.248       25.782       82.705       63.059       56.803     6840.199     3976.456     3226.621        4.088        0.702      258.943       41.353        0.026      348.460       28.168      863.966
08/10/2014  12:41:00       65.521       73.873        3.741       63.711       41.911       39.944     4059.041     1756.498     1595.534        0.859        0.371       98.744       35.951        0.133      348.384       28.039      863.971
08/10/2014  12:42:00       -6.090        1.417        1.898       34.378       25.042       25.770     1181.867      627.113      664.081        0.126        0.124        6.252       20.777       11.043      348.645       28.493      863.941
08/10/2014  12:43:00       73.205       51.919       38.717       71.484       45.961       44.359     5109.980     2112.403     1967.720        0.937        0.460       89.747       29.501        0.108      349.105       29.287      863.946
08/10/2014  12:44:00      198.270      145.509       12.308      134.313       85.675       58.006    18040.003     7340.283     3364.718        4.468        1.437      245.935       52.456        0.045      348.715       28.611      863.929
08/10/2014  12:45:00      233.463      153.275       40.077      107.758       86.875       69.408    11611.694     7547.309     4817.416        5.179        1.199      279.281       43.640        0.024      348.517       28.266      863.941
08/10/2014  12:46:00       47.803       -9.384       21.909       57.790       47.808       30.055     3339.699     2285.634      903.276        0.469        0.326       48.716       27.837        0.327      348.731       28.641      863.944
08/10/2014  12:47:00       53.750       56.707       46.155       48.910       57.097       45.105     2392.211     3260.102     2034.446        0.796        0.384       78.133       38.440        0.242      348.788       28.740      863.926
08/10/2014  12:48:00       82.959       17.027       68.991       78.867       98.732       66.195     6219.998     9747.969     4381.735        1.614        1.017       84.688       80.609        0.906      348.727       28.634      863.922
08/10/2014  12:49:00       38.981      -17.842       21.527       36.101       42.761       34.231     1303.276     1828.480     1171.774        0.330        0.215       42.870       27.509        0.412      348.965       29.048      863.909
08/10/2014  12:50:00       45.543       -9.128       10.495       40.603       32.779       29.434     1648.570     1074.470      866.358        0.293        0.179       46.449       20.325        0.191      348.828       28.810      863.896
08/10/2014  12:51:00       70.004       46.402       62.025       74.024       97.756       74.512     5479.596     9556.309     5551.988        1.574        1.029       83.986       76.581        0.831      348.777       28.720      863.883
08/10/2014  12:52:00       53.682      -34.041       31.251       47.497       74.685       32.885     2256.008     5577.924     1081.447        0.696        0.446       63.565       37.031        0.339      348.881       28.903      863.870
08/10/2014  12:53:00      167.637      115.412       45.551       79.630       63.020       57.607     6340.901     3971.558     3318.554        2.856        0.682      203.524       34.991        0.030      348.858       28.859      863.862
08/10/2014  12:54:00      230.659      139.485       31.417      124.730       69.797       79.736    15557.505     4871.561     6357.813        5.021        1.339      269.554       39.438        0.021      349.060       29.208      863.847
08/10/2014  12:55:00      111.960       85.667       17.706       85.866       68.572       65.057     7373.014     4702.188     4232.449        1.824        0.815      140.975       30.710        0.047      349.180       29.418      863.860
08/10/2014  12:56:00      122.750       83.606       66.774       87.259       70.459       68.268     7614.205     4964.437     4660.482        2.187        0.862      148.518       41.398        0.078      349.264       29.563      863.843
08/10/2014  12:57:00      -29.458       22.278       43.967       66.399       64.964       49.600     4408.865     4220.300     2460.160        0.719        0.554       36.934       50.127        1.842      349.457       29.899      863.824
08/10/2014  12:58:00       81.746       38.025       16.767       60.390       36.773       27.808     3646.980     1352.262      773.274        0.709        0.289       90.157       27.297        0.092      349.159       29.381      863.802
08/10/2014  12:59:00      144.868       63.147       14.940       77.674       60.199       51.057     6033.207     3623.950     2606.809        1.873        0.613      158.032       33.427        0.045      348.768       28.703      863.783
08/10/2014  13:00:00      117.435      102.010       25.812       68.270       58.619       52.543     4660.814     3436.220     2760.802        1.786        0.543      155.554       37.179        0.057      348.823       28.799      863.753
08/10/2014  13:01:00      165.460      109.134       14.523       80.636       66.241       42.032     6502.111     4387.890     1766.693        2.607        0.633      198.210       20.686        0.011      349.097       29.274      863.755
08/10/2014  13:02:00      230.145      171.200       14.676      107.738       83.668       68.125    11607.514     7000.262     4640.958        5.287        1.162      286.839       48.275        0.028      349.074       29.232      863.737
08/10/2014  13:03:00      153.518       90.301       31.822      141.402       78.336       43.662    19994.586     6136.521     1906.331        3.038        1.402      178.107       60.687        0.116      349.161       29.382      863.719
08/10/2014  13:04:00      181.155     -142.683      -28.351      133.434      174.049       60.890    17804.508    30292.952     3707.609        5.288        2.590      230.598       94.518        0.168      349.090       29.261      863.719
08/10/2014  13:05:00      150.123      -76.201       28.073      114.426      137.831      115.453    13093.211    18997.345    13329.422        3.727        2.271      168.356      119.082        0.500      349.159       29.380      863.691
08/10/2014  13:06:00      157.180     -103.488        1.080       95.133      125.024       95.005     9050.225    15630.902     9026.010        3.455        1.685      188.189       93.362        0.246      349.041       29.176      863.697
08/10/2014  13:07:00      141.089     -116.896       20.239       82.735      114.029       65.282     6845.022    13002.564     4261.737        2.904        1.205      183.223       66.853        0.133      349.088       29.257      863.694
08/10/2014  13:08:00       28.977      -11.624       40.547       47.613       76.048       52.384     2266.969     5783.304     2744.075        0.670        0.540       31.221       57.504        3.392      349.243       29.528      863.685
08/10/2014  13:09:00       87.341      -69.125       28.376       86.109       81.389       50.802     7414.810     6624.113     2580.880        1.491        0.831      111.386       49.443        0.197      349.215       29.478      863.647
08/10/2014  13:10:00       61.147       41.585       72.229      101.354       79.427       56.740    10272.702     6308.655     3219.383        1.524        0.990       73.947       58.593        0.628      349.447       29.881      863.639
08/10/2014  13:11:00      145.180      120.739       78.572      111.041       68.045       63.492    12330.151     4630.057     4031.190        3.141        1.050      188.825       53.411        0.080      348.969       29.051      863.634
08/10/2014  13:12:00      124.260      101.585       25.211       85.794       56.506       51.192     7360.676     3192.926     2620.654        1.978        0.659      160.499       31.901        0.040      349.027       29.152      863.603
08/10/2014  13:13:00       65.013       41.057        3.809       65.642       55.064       35.816     4308.889     3032.026     1282.821        0.727        0.431       76.892       22.109        0.083      349.188       29.432      863.578
08/10/2014  13:14:00       25.704       29.168        9.372       44.810       32.804       33.650     2007.933     1076.130     1132.331        0.291        0.211       38.878       25.978        0.447      349.543       30.050      863.568
08/10/2014  13:15:00       38.552       15.835       31.760       38.159       39.687       32.995     1456.108     1575.095     1088.669        0.343        0.206       41.678       32.291        0.600      349.624       30.190      863.553
08/10/2014  13:16:00       80.495       43.589       15.719       50.827       41.491       34.339     2583.417     1721.537     1179.174        0.705        0.274       91.539       26.554        0.084      349.123       29.321      863.536
08/10/2014  13:17:00       24.859       52.091        2.847       31.311       60.669       20.125      980.350     3680.744      405.016        0.420        0.253       57.718       21.876        0.144      349.221       29.491      863.507
08/10/2014  13:18:00      -14.323       85.359       -9.782       29.699       55.450       24.753      882.013     3074.734      612.713        0.608        0.228       86.553       26.519        0.094      349.245       29.532      863.497
08/10/2014  13:19:00      -17.635       33.442        4.360       26.696       40.665       20.883      712.701     1653.646      436.094        0.212        0.140       37.806       21.885        0.335      349.759       30.425      863.497
08/10/2014  13:20:00        4.166      -32.069        8.715       19.411       46.695       22.409      376.790     2180.452      502.157        0.209        0.153       32.338       26.649        0.679      350.178       31.151      863.500
08/10/2014  13:21:00       24.122      -42.085       32.676       53.299       81.276       53.529     2840.801     6605.707     2865.380        0.786        0.616       48.508       59.295        1.494      349.633       30.204      863.484
08/10/2014  13:22:00       49.325      -96.549        1.415       52.679       69.937       45.751     2775.062     4891.168     2093.127        1.076        0.488      108.419       47.387        0.191      349.563       30.082      863.479
08/10/2014  13:23:00      149.867     -160.726       21.792      147.217      181.051       75.212    21672.698    32779.377     5656.843        5.443        3.005      219.757       89.973        0.168      349.517       30.000      863.450
08/10/2014  13:24:00      120.909       32.915      103.061      104.098      130.995       86.924    10836.405    17159.583     7555.724        3.093        1.778      125.309       71.330        0.324      349.604       30.153      863.444
08/10/2014  13:25:00       68.914       32.023      127.819      154.797      155.268       85.305    23962.141    24108.132     7276.945        3.872        2.767       75.991       87.571        1.328      349.806       30.503      863.423
08/10/2014  13:26:00      152.633     -105.820       32.714      117.920      161.965       91.834    13905.119    26232.689     8433.548        4.206        2.429      185.728      109.473        0.347      349.659       30.246      863.469
08/10/2014  13:27:00      149.538      -93.518       44.345      101.072      177.264      102.196    10215.492    31422.537    10443.956        4.257        2.604      176.372      127.328        0.521      349.668       30.261      863.468
08/10/2014  13:28:00      125.954     -128.929       19.019       98.086      158.063       77.833     9620.830    24983.955     6058.023        3.675        2.033      180.242       89.675        0.248      349.507       29.982      863.445
08/10/2014  13:29:00       85.857       23.595       77.674      101.566       93.581       72.107    10315.707     8757.371     5199.370        1.911        1.214       89.041       65.654        0.544      349.638       30.212      863.440
08/10/2014  13:30:00       97.377       79.130       81.398       88.426       84.686       67.362     7819.219     7171.774     4537.645        2.095        0.976      125.474       44.208        0.124      349.571       30.096      863.431
08/10/2014  13:31:00      107.187       75.328       22.959       88.469       74.188       56.236     7826.752     5503.802     3162.508        1.709        0.825      131.009       50.456        0.148      349.497       29.968      863.425
08/10/2014  13:32:00       44.213      112.078      120.471       75.137       94.644       81.490     5645.592     8957.397     6640.625        2.513        1.062      120.484       64.313        0.285      349.442       29.871      863.404
08/10/2014  13:33:00       30.686       28.870       64.778       35.013       73.129       58.525     1225.908     5347.877     3425.214        0.798        0.500       42.132       63.817        2.294      349.394       29.789      863.408
08/10/2014  13:34:00      110.782      126.015      105.396      100.821       77.228       81.924    10164.822     5964.104     6711.586        3.105        1.142      167.787       57.095        0.116      349.190       29.432      863.389
08/10/2014  13:35:00      152.411      110.008       42.096       59.802       54.128       40.411     3576.338     2929.803     1633.086        2.262        0.407      187.965       25.806        0.019      349.227       29.496      863.382
08/10/2014  13:36:00       61.963      -26.778       24.105       58.820      116.284       53.012     3459.792    13522.074     2810.295        1.246        0.990       67.501       61.812        0.839      349.475       29.930      863.379
08/10/2014  13:37:00       34.345      -83.779       -1.099       45.923       73.356       31.134     2108.882     5381.158      969.325        0.833        0.423       90.545       29.415        0.106      349.391       29.784      863.358
08/10/2014  13:38:00       20.941       10.361       54.300       52.451       63.512       40.105     2751.128     4033.781     1608.393        0.594        0.420       23.364       39.262        2.824      349.732       30.376      863.351
08/10/2014  13:39:00       44.627       55.815       82.930       59.507       56.659       52.718     3541.074     3210.292     2779.207        1.076        0.477       71.462       46.579        0.425      349.422       29.838      863.348
08/10/2014  13:40:00       33.108       30.008        1.061       31.131       36.337       29.050      969.150     1320.403      843.903        0.256        0.157       44.684       13.810        0.096      349.360       29.730      863.330
08/10/2014  13:41:00       -8.099       53.562       -1.884       26.607       39.595       20.816      707.931     1567.740      433.299        0.282        0.135       54.171       21.740        0.161      349.635       30.207      863.311
08/10/2014  13:42:00       74.430       87.124        8.824       83.694       63.500       54.085     7004.665     4032.206     2925.147        1.358        0.698      114.588       38.984        0.116      349.674       30.275      863.291
08/10/2014  13:43:00        9.163       52.703       -7.190       34.727       40.404       34.597     1205.958     1632.517     1196.964        0.347        0.202       53.493       28.595        0.286      349.412       29.821      863.278
08/10/2014  13:44:00       71.094       52.743       38.315       63.129       43.471       32.079     3985.289     1889.741     1029.073        0.810        0.345       88.523       21.477        0.059      349.749       30.405      863.260
08/10/2014  13:45:00       52.382      -12.498       38.219       50.619       47.372       35.229     2562.306     2244.075     1241.059        0.520        0.302       53.852       33.474        0.386      349.861       30.600      863.259
08/10/2014  13:46:00       84.963      -35.802       48.052       82.310       87.071       64.876     6774.990     7581.356     4208.874        1.468        0.928       92.198       63.236        0.470      349.658       30.247      863.248
08/10/2014  13:47:00       75.204      -60.675       22.930       74.785      101.703       47.463     5592.838    10343.466     2252.711        1.402        0.909       96.629       55.449        0.329      349.524       30.014      863.228
08/10/2014  13:48:00      249.545       91.696      138.589      147.484      264.691      151.179    21751.413    70061.259    22855.088       10.225        5.733      265.859      160.321        0.364      349.529       30.019      863.177
08/10/2014  13:49:00      275.534      196.012      127.668      132.089      123.217       98.484    17447.602    15182.320     9699.103        8.648        2.116      338.142       75.401        0.050      349.409       29.812      863.175
08/10/2014  13:50:00      180.554       77.826       45.305      145.728       93.825       73.061    21236.552     8803.128     5337.925        3.804        1.769      196.613       42.051        0.046      349.670       30.267      863.171
08/10/2014  13:51:00      258.932      121.348       60.547      153.886      101.122       73.570    23680.791    10225.658     5412.509        6.237        1.966      285.956       42.108        0.022      349.585       30.118      863.123
08/10/2014  13:52:00      136.521       55.614       88.265      131.897      116.173       91.824    17396.745    13496.260     8431.603        3.442        1.966      147.414       93.578        0.403      349.781       30.459      863.128
08/10/2014  13:53:00      188.480       68.002      100.668      137.029      110.840      114.694    18776.998    12285.562    13154.775        4.724        2.211      200.373       77.209        0.148      349.680       30.284      863.138
08/10/2014  13:54:00       94.747        8.708       86.584      113.741      163.198       78.719    12936.923    26633.583     6196.668        3.115        2.288       95.146       99.018        1.083      349.693       30.306      863.126
08/10/2014  13:55:00       73.265       29.791      124.571       86.291       94.004       66.927     7446.061     8836.791     4479.159        2.126        1.038       79.091       49.384        0.390      349.638       30.210      863.131
08/10/2014  13:56:00      160.245       22.789       40.065      120.811       99.273       65.034    14595.328     9855.045     4229.399        2.824        1.434      161.857       78.388        0.235      349.297       29.619      863.136
08/10/2014  13:57:00      172.418      133.820      158.924      148.425      145.755      114.780    22029.846    21244.617    13174.413        6.466        2.822      218.256      107.033        0.240      349.426       29.842      863.120
08/10/2014  13:58:00       88.821       80.500      130.664       97.115      110.204       80.375     9431.400    12144.952     6460.099        2.973        1.402      119.872       65.634        0.300      349.361       29.729      863.140
08/10/2014  13:59:00       80.061       97.104       21.109       72.496       83.970       67.352     5255.685     7050.881     4536.350        1.656        0.842      125.853       33.477        0.071      349.256       29.550      863.120
08/10/2014  14:00:00       32.763       87.926       -2.173       56.431       66.706       37.606     3184.509     4449.742     1414.210        0.893        0.452       93.832       34.358        0.134      349.426       29.844      863.080
08/10/2014  14:01:00        6.496       36.056        1.605       24.538       50.170       21.145      602.106     2517.049      447.092        0.245        0.178       36.636       21.742        0.352      349.572       30.098      863.076
08/10/2014  14:02:00       -8.668      -12.191       -3.487       29.446       20.249       15.429      867.088      410.006      238.052        0.088        0.076       14.959        5.879        0.154      349.612       30.166      863.073
08/10/2014  14:03:00       77.137     -119.623      -23.755       64.248       67.725       33.154     4127.845     4586.635     1099.183        1.532        0.491      142.337       29.948        0.044      349.547       30.055      863.069
08/10/2014  14:04:00       -9.071      -24.162       42.243       36.243       73.105       42.466     1313.524     5344.402     1803.334        0.545        0.423       25.808       45.191        3.066      349.891       30.652      863.079
08/10/2014  14:05:00       79.813      -48.844       24.368       45.942       74.244       48.348     2110.627     5512.123     2337.524        0.965        0.498       93.573       54.214        0.336      349.459       29.901      863.073
08/10/2014  14:06:00       32.911       -5.905       25.419       25.488       17.245       21.109      649.624      297.393      445.585        0.158        0.070       33.437        9.827        0.086      349.713       30.343      863.057
08/10/2014  14:07:00       28.765       15.872       65.325       46.187       86.198       62.553     2133.272     7430.093     3912.855        0.941        0.674       32.853       51.300        2.438      349.657       30.246      863.035
08/10/2014  14:08:00       93.176      -88.836        8.688       71.605       98.206       58.400     5127.331     9644.393     3410.548        1.741        0.909      128.739       59.699        0.215      349.530       30.025      863.008
08/10/2014  14:09:00        0.045     -112.707       -6.112      111.873       91.381       42.977    12515.491     8350.428     1847.064        1.772        1.136      112.707       32.449        0.083      349.482       29.940      862.988
08/10/2014  14:10:00       62.853     -111.433       20.953      116.959       95.525       61.785    13679.313     9125.013     3817.350        2.171        1.331      127.937       62.481        0.239      349.569       30.091      862.975
08/10/2014  14:11:00        8.248      -81.432       29.621       40.823       67.924       53.435     1666.491     4613.640     2855.304        0.835        0.457       81.849       37.017        0.205      349.766       30.437      862.958
08/10/2014  14:12:00      -12.152      -16.939       22.586       29.784       40.536       29.686      887.070     1643.200      881.269        0.218        0.171       20.847       20.973        1.012      349.981       30.808      862.939
08/10/2014  14:13:00        2.645      -37.675       15.246       44.362       65.040       35.657     1968.004     4230.218     1271.442        0.456        0.373       37.767       40.584        1.155      349.762       30.427      862.920
08/10/2014  14:14:00       59.822      -59.357       19.606       49.242       91.016       47.679     2424.797     8283.845     2273.280        1.023        0.649       84.273       59.309        0.495      349.796       30.489      862.906
08/10/2014  14:15:00       29.289      -55.312        5.755       38.058       89.714       42.195     1448.426     8048.565     1780.417        0.761        0.564       62.588       43.719        0.488      349.729       30.370      862.879
08/10/2014  14:16:00       22.835      -65.493       16.626       89.187       89.245       49.764     7954.395     7964.658     2476.464        1.174        0.920       69.359       48.472        0.488      349.841       30.564      862.850
08/10/2014  14:17:00      -26.868      -38.098       30.446       65.500       61.651       41.686     4290.246     3800.840     1737.696        0.646        0.491       46.619       47.870        1.054      349.996       30.834      862.822
08/10/2014  14:18:00      -18.886      -11.581       27.035       43.581       24.912       28.666     1899.338      620.625      821.740        0.228        0.167       22.154       17.181        0.601      350.091       30.999      862.802
08/10/2014  14:19:00      -63.305      -76.400      -12.401       50.754       58.505       35.282     2575.949     3422.825     1244.847        0.862        0.362       99.219       25.285        0.065      350.018       30.873      862.785
08/10/2014  14:20:00      -52.258     -188.758      -24.107       64.468       64.298       47.112     4156.144     4134.205     2219.513        2.472        0.525      195.858       13.672        0.005      349.509       29.987      862.790
08/10/2014  14:21:00      -53.647      -74.781      -13.410       81.564       57.424       39.125     6652.641     3297.555     1530.766        1.006        0.574       92.033       33.623        0.133      349.785       30.467      862.758
08/10/2014  14:22:00        1.250      -26.682        4.789       59.903       54.017       21.615     3588.360     2917.867      467.227        0.385        0.349       26.711       20.476        0.588      349.697       30.315      862.742
08/10/2014  14:23:00      -64.398      -57.979       -8.467       57.667       58.740       60.700     3325.459     3450.421     3684.492        0.902        0.523       86.653       46.482        0.288      349.951       30.756      862.705
08/10/2014  14:24:00      -61.236      -92.865        6.261       67.634       87.033       44.573     4574.357     7574.684     1986.767        1.327        0.707      111.238       45.696        0.169      349.704       30.328      862.680
08/10/2014  14:25:00     -165.975     -138.278        9.194      131.665       99.241       50.482    17335.786     9848.816     2548.449        3.824        1.487      216.029       53.187        0.061      349.621       30.182      862.664
08/10/2014  14:26:00     -101.941     -117.334        4.884       88.693       58.044       43.249     7866.423     3369.163     1870.434        1.864        0.655      155.433       36.957        0.057      349.347       29.708      862.662
08/10/2014  14:27:00     -203.156      -17.359       -3.840      107.582       65.547       44.912    11573.833     4296.399     2017.088        2.973        0.894      203.896       57.357        0.079      349.531       30.024      862.657
08/10/2014  14:28:00     -214.516        1.657      -29.285       65.361       26.144       16.485     4272.119      683.503      271.742        2.605        0.261      214.523       22.992        0.011      349.198       29.449      862.641
08/10/2014  14:29:00      -74.872        0.200       -7.424       39.610       30.295       17.594     1568.935      917.783      309.565        0.423        0.140       74.872       20.293        0.073      349.276       29.585      862.636
08/10/2014  14:30:00      -42.396       21.927      -10.575       24.987       26.484       19.466      624.372      701.428      378.914        0.205        0.085       47.731       13.498        0.080      349.474       29.928      862.640
08/10/2014  14:31:00       -4.418        6.328       28.308       25.694       29.116       15.008      660.170      847.766      225.240        0.130        0.087        7.717       13.378        3.005      350.161       31.120      862.636
08/10/2014  14:32:00      -98.440        6.434       -9.957       42.554       41.596       24.669     1810.859     1730.211      608.583        0.699        0.207       98.650       24.190        0.060      349.547       30.055      862.617
08/10/2014  14:33:00       39.426       73.340       28.114       72.318       31.308       40.334     5229.822      980.216     1626.797        0.778        0.392       83.265       36.364        0.191      349.871       30.618      862.623
08/10/2014  14:34:00      206.519      142.917       18.127       92.814       72.541       57.529     8614.501     5262.191     3309.625        4.029        0.859      251.148       42.455        0.029      349.597       30.138      862.591
08/10/2014  14:35:00       97.293       80.905       57.954       82.744       84.682       74.533     6846.495     7171.029     5555.131        1.947        0.979      126.537       60.905        0.232      349.950       30.752      862.584
08/10/2014  14:36:00       45.440       22.236       31.240       54.796       51.076       32.209     3002.593     2608.786     1037.452        0.509        0.332       50.589       21.483        0.180      350.163       31.125      862.594
08/10/2014  14:37:00       60.842      -29.269       33.484       84.192      108.075       67.198     7088.248    11680.121     4515.574        1.448        1.164       67.516       74.111        1.205      349.845       30.573      862.579
08/10/2014  14:38:00      147.412       82.243       58.681      106.807       58.248       64.504    11407.679     3392.854     4160.808        2.545        0.948      168.802       59.956        0.126      349.753       30.410      862.553
08/10/2014  14:39:00      184.872      112.439      106.394      130.995      100.073      107.227    17159.622    10014.527    11497.580        4.840        1.934      216.379       77.208        0.127      349.731       30.370      862.533
08/10/2014  14:40:00      116.463      -37.766       30.378       80.421       67.489       59.281     6467.499     4554.814     3514.227        1.522        0.727      122.433       33.541        0.075      349.688       30.297      862.561
08/10/2014  14:41:00      181.905      100.994       89.617      125.947      106.162       76.273    15862.657    11270.367     5817.636        4.213        1.648      208.061       62.602        0.091      349.775       30.448      862.543
08/10/2014  14:42:00      238.322      125.922       39.483      152.911      109.566      101.962    23381.817    12004.811    10396.148        5.999        2.289      269.543       91.245        0.115      349.766       30.432      862.522
08/10/2014  14:43:00      188.717      110.881       57.678       98.666       82.239       61.599     9734.982     6763.330     3794.434        3.576        1.015      218.880       55.496        0.064      349.678       30.278      862.557
08/10/2014  14:44:00      206.350      128.748       46.856      101.553       74.808       55.423    10313.031     5596.245     3071.683        4.016        0.949      243.221       28.406        0.014      349.669       30.263      862.554
08/10/2014  14:45:00      169.510       93.239       18.581      103.002       72.334       47.482    10609.409     5232.170     2254.577        2.793        0.905      193.461       15.812        0.007      349.626       30.189      862.551
08/10/2014  14:46:00      113.155       41.209       10.447       70.693       43.936       43.710     4997.491     1930.384     1910.579        1.172        0.442      120.425       34.186        0.081      349.692       30.306      862.540
08/10/2014  14:47:00       24.533       20.445       28.330       50.828       31.603       28.278     2583.472      998.774      799.673        0.310        0.219       31.935       29.866        0.875      349.777       30.455      862.523
08/10/2014  14:48:00       32.706       28.875       63.675       48.463       50.250       43.167     2348.679     2525.045     1863.393        0.635        0.337       43.628       39.132        0.805      349.649       30.233      862.514
08/10/2014  14:49:00      142.556      -19.599       72.438      119.156       80.261       59.729    14198.082     6441.800     3567.563        2.508        1.210      143.897       44.435        0.095      349.525       30.013      862.495
08/10/2014  14:50:00       51.986       56.786        5.031       56.472       48.154       29.908     3189.091     2318.812      894.493        0.618        0.320       76.988       22.103        0.082      349.736       30.382      862.486
08/10/2014  14:51:00        7.474       17.325       12.420       25.569       28.423       22.126      653.777      807.881      489.574        0.123        0.098       18.869       10.736        0.324      350.046       30.921      862.474
08/10/2014  14:52:00       55.432       94.545       -2.196       62.789       43.548       37.248     3942.439     1896.387     1387.441        0.962        0.361      109.597       21.944        0.040      349.568       30.092      862.462
08/10/2014  14:53:00       18.285       76.201      -15.914       28.807       49.335       21.690      829.849     2433.973      470.441        0.506        0.187       78.364       18.107        0.053      349.488       29.953      862.461
08/10/2014  14:54:00       39.698       60.707        0.873       46.245       29.868       28.697     2138.641      892.087      823.538        0.456        0.193       72.535       18.476        0.065      349.664       30.258      862.452
08/10/2014  14:55:00      109.404       81.479       14.078       52.805       44.709       38.976     2788.411     1998.931     1519.126        1.256        0.315      136.411       29.954        0.048      349.626       30.191      862.460
08/10/2014  14:56:00       65.148       63.905        9.998       41.280       45.146       41.954     1704.040     2038.135     1760.115        0.696        0.275       91.258       27.774        0.093      349.691       30.304      862.452
08/10/2014  14:57:00       92.978       60.610       25.022       66.274       43.118       37.975     4392.276     1859.129     1442.114        1.032        0.385      110.988       30.142        0.074      349.781       30.459      862.443
08/10/2014  14:58:00      129.863       77.516        5.514       75.985       53.730       33.301     5773.676     2886.909     1108.975        1.633        0.488      151.239       22.034        0.021      349.723       30.358      862.446
08/10/2014  14:59:00      185.029      102.142       29.039      137.264      103.470       84.114    18841.346    10706.106     7075.169        4.106        1.831      211.350       23.302        0.012      349.862       30.600      862.428
08/10/2014  15:00:00      313.454      189.243       47.566      134.467      105.732       73.448    18081.302    11179.173     5394.553        8.548        1.733      366.150       31.393        0.007      349.539       30.038      862.412
08/10/2014  15:01:00      214.367      146.887       58.158       90.685       83.343       69.023     8223.707     6946.127     4764.225        4.542        0.997      259.863       55.902        0.046      349.568       30.089      862.379
08/10/2014  15:02:00      140.189      138.431      -13.749      114.456       81.077       51.070    13100.202     6573.446     2608.170        3.064        1.114      197.018       40.425        0.042      349.724       30.358      862.347
08/10/2014  15:03:00      197.758      142.452        6.072      101.686       70.313       60.585    10340.044     4943.867     3670.535        3.919        0.948      243.723       37.663        0.024      349.693       30.306      862.328
08/10/2014  15:04:00      163.326      104.219       21.557       60.871       48.010       39.727     3705.298     2304.968     1578.217        2.279        0.379      193.744       13.978        0.005      349.825       30.536      862.309
08/10/2014  15:05:00      157.524      113.616       70.489      119.224       90.595       65.190    14214.250     8207.431     4249.742        3.468        1.334      194.223       65.993        0.115      349.829       30.540      862.298
08/10/2014  15:06:00      266.429      173.807       29.660       72.340       78.441       59.235     5233.118     6153.050     3508.734        5.848        0.745      318.109       19.242        0.004      349.732       30.372      862.295
08/10/2014  15:07:00      108.467      132.231      153.627      109.724      103.132       83.183    12039.251    10636.132     6919.397        4.122        1.480      171.026       79.601        0.217      349.770       30.440      862.288
08/10/2014  15:08:00      177.156      138.032      115.899       99.221       84.318       83.821     9844.784     7109.586     7025.915        4.392        1.199      224.582       67.210        0.090      349.519       30.001      862.286
08/10/2014  15:09:00      120.842       10.846        5.094       56.749       80.100       48.478     3220.490     6415.960     2350.128        1.336        0.599      121.328       29.023        0.057      349.579       30.109      862.301
08/10/2014  15:10:00       40.769        0.833       50.260       70.822       72.913       57.123     5015.824     5316.235     3263.082        0.889        0.680       40.778       52.849        1.680      349.761       30.426      862.300
08/10/2014  15:11:00       64.719      -60.880       43.808       99.398      110.193       57.261     9879.999    12142.601     3278.874        1.755        1.265       88.853       64.451        0.526      349.728       30.369      862.303
08/10/2014  15:12:00       16.435      -86.978       -4.020       56.895       89.353       36.718     3237.062     7984.019     1348.175        1.021        0.628       88.517       21.419        0.059      349.825       30.537      862.319
08/10/2014  15:13:00       -3.370      -20.873        8.173       38.329       33.764       29.824     1469.092     1140.010      889.485        0.201        0.175       21.143       20.091        0.903      349.816       30.521      862.317
08/10/2014  15:14:00       45.414       22.964       52.016       63.499       49.187       34.935     4032.149     2419.341     1220.431        0.648        0.384       50.890       40.379        0.630      349.653       30.238      862.314
08/10/2014  15:15:00      -17.058      -29.524       59.298       51.832       86.847       64.764     2686.580     7542.412     4194.334        0.955        0.721       34.098       64.042        3.528      349.785       30.468      862.303
08/10/2014  15:16:00       -2.254      -86.919       10.396       41.986       77.742       28.831     1762.833     6043.764      831.204        0.815        0.432       86.948       29.231        0.113      349.650       30.235      862.324
08/10/2014  15:17:00       -5.277      -58.327       11.917       49.419       64.311       36.779     2442.195     4135.845     1352.663        0.575        0.397       58.565       39.078        0.445      349.690       30.303      862.325
08/10/2014  15:18:00       22.198      -17.083       38.396       65.911      100.848       45.310     4344.256    10170.382     2053.041        0.941        0.828       28.011       53.626        3.665      349.693       30.308      862.322
08/10/2014  15:19:00      -13.244      -12.381       23.802       32.715       22.730       21.900     1070.260      516.640      479.610        0.148        0.103       18.129       11.484        0.401      349.822       30.533      862.320
08/10/2014  15:20:00       32.301       -6.996       37.225       37.763       60.698       30.334     1426.056     3684.246      920.133        0.425        0.302       33.050       28.284        0.732      349.647       30.228      862.321
08/10/2014  15:21:00       18.713      -52.613       25.428       30.592       91.023       36.709      935.882     8285.135     1347.577        0.716        0.528       55.842       43.927        0.619      349.590       30.128      862.323
08/10/2014  15:22:00       39.214     -108.686        3.864       56.205      100.028       51.963     3158.970    10005.611     2700.147        1.461        0.793      115.544       57.977        0.252      349.672       30.270      862.336
08/10/2014  15:23:00       98.449     -141.306        9.637       69.409       98.182       55.399     4817.609     9639.689     3069.079        2.364        0.876      172.219       39.204        0.052      349.570       30.092      862.334
08/10/2014  15:24:00      166.451     -232.681      -40.049       78.642       87.827       36.547     6184.634     7713.646     1335.702        4.934        0.762      286.088       23.049        0.006      349.563       30.079      862.315
08/10/2014  15:25:00       91.124      -94.985       64.262       93.615      204.903       99.543     8763.820    41985.177     9908.841        4.104        3.033      131.627      140.456        1.139      349.570       30.091      862.300
08/10/2014  15:26:00       44.596       64.315       81.578       63.336       64.033       57.991     4011.498     4100.272     3362.921        1.213        0.574       78.264       50.430        0.415      349.622       30.184      862.292
08/10/2014  15:27:00       50.046       -5.987       40.166       49.511       58.466       41.079     2451.378     3418.254     1687.463        0.585        0.378       50.403       33.655        0.446      349.591       30.131      862.282
08/10/2014  15:28:00       15.573      -20.279       27.521       37.780       63.802       36.244     1427.337     4070.643     1313.656        0.411        0.341       25.569       40.132        2.464      349.633       30.204      862.265
08/10/2014  15:29:00       62.420      -24.097       26.406       72.998       64.671       54.321     5328.696     4182.376     2950.757        0.882        0.623       66.910       53.724        0.645      349.685       30.295      862.246
08/10/2014  15:30:00      136.610     -138.993       -6.343       77.615      116.176       56.365     6024.056    13496.878     3177.036        3.036        1.135      194.888       68.267        0.123      349.596       30.137      862.229
08/10/2014  15:31:00      132.798     -161.990      -17.109      103.200      137.918       61.941    10650.157    19021.331     3836.654        3.883        1.675      209.466       79.995        0.146      349.609       30.160      862.208
08/10/2014  15:32:00       66.285      -15.833       56.422       72.335      114.696       56.638     5232.350    13155.070     3207.867        1.471        1.080       68.149       52.080        0.584      349.580       30.112      862.217
08/10/2014  15:33:00      126.416       67.456      117.882       96.193       95.736       65.999     9253.092     9165.366     4355.818        2.860        1.139      143.287       61.682        0.185      349.463       29.907      862.199
08/10/2014  15:34:00      128.844      110.362      112.905      117.607       81.842       70.482    13831.363     6698.191     4967.655        3.351        1.275      169.648       58.872        0.120      349.392       29.785      862.175
08/10/2014  15:35:00       96.644      109.665      108.733      104.180       96.785       85.204    10853.493     9367.286     7259.799        3.033        1.374      146.172       70.232        0.231      349.528       30.021      862.169
08/10/2014  15:36:00      187.213      -38.960       34.210      124.457      168.645       95.078    15489.617    28441.216     9039.863        4.534        2.649      191.224       93.550        0.239      349.483       29.941      862.168
08/10/2014  15:37:00       41.747       16.806       72.303       64.151      107.551       87.330     4115.366    11567.220     7626.444        1.528        1.165       45.002       87.462        3.777      349.561       30.078      862.169
08/10/2014  15:38:00       49.365       61.914      103.599       73.560       85.525       59.976     5411.037     7314.525     3597.118        1.666        0.816       79.185       64.768        0.669      349.532       30.028      862.178
08/10/2014  15:39:00      106.639      -91.833       -3.852       89.336      104.319       52.134     7980.941    10882.434     2718.002        2.070        1.079      140.731       59.571        0.179      349.544       30.048      862.174
08/10/2014  15:40:00       32.497       -1.541       64.290       63.996       89.054       48.888     4095.483     7930.697     2390.062        0.980        0.721       32.534       58.885        3.276      349.542       30.046      862.173
08/10/2014  15:41:00       81.518      -34.086       36.788       74.533      122.859       66.691     5555.209    15094.214     4447.704        1.712        1.255       88.358       88.374        1.000      349.468       29.917      862.172
08/10/2014  15:42:00       55.531      -50.998       32.753       52.897       70.593       44.301     2798.074     4983.441     1962.556        0.825        0.487       75.395       41.127        0.298      349.487       29.950      862.169
08/10/2014  15:43:00       54.958     -126.629      -25.729       86.716       55.123       39.793     7519.681     3038.524     1583.445        1.593        0.607      138.041       43.132        0.098      349.360       29.730      862.162
08/10/2014  15:44:00       49.117     -123.673      -14.166       55.318       49.164       35.910     3060.068     2417.113     1289.531        1.234        0.338      133.070       30.356        0.052      349.290       29.610      862.173
08/10/2014  15:45:00       65.790      -33.892       26.816       58.517       65.334       34.039     3424.235     4268.475     1158.646        0.752        0.443       74.007       46.823        0.400      349.411       29.819      862.164
08/10/2014  15:46:00       86.996      -68.452       16.405       46.225       44.937       33.127     2136.719     2019.310     1097.371        0.889        0.263      110.697       31.817        0.083      349.380       29.766      862.161
08/10/2014  15:47:00       66.770     -101.008       -0.494       43.611       61.391       39.099     1901.953     3768.840     1528.704        1.093        0.360      121.082       39.695        0.107      349.398       29.797      862.150
08/10/2014  15:48:00       53.273      -30.680       26.600       69.726       67.332       55.873     4861.655     4533.613     3121.749        0.850        0.626       61.476       56.503        0.845      349.476       29.932      862.147
08/10/2014  15:49:00       -4.894       32.588       74.281       41.208       55.890       35.675     1698.107     3123.711     1272.693        0.635        0.305       32.953       31.793        0.931      349.380       29.765      862.147
08/10/2014  15:50:00       64.669       56.225       89.011       95.251       90.827       61.846     9072.749     8249.490     3824.911        1.820        1.057       85.694       67.803        0.626      349.338       29.691      862.135
08/10/2014  15:51:00      160.859      -40.597       40.845      107.202       74.816       58.679    11492.330     5597.367     3443.190        2.486        1.027      165.903       49.967        0.091      349.360       29.728      862.119
08/10/2014  15:52:00       16.100       31.635       54.249       53.473       60.671       32.334     2859.378     3680.966     1045.508        0.589        0.379       35.496       23.905        0.454      349.317       29.656      862.116
08/10/2014  15:53:00       75.165       -4.026       37.314      100.187       43.862       33.914    10037.518     1923.895     1150.188        1.008        0.656       75.273       35.277        0.220      349.316       29.654      862.123
08/10/2014  15:54:00      101.321     -107.396       10.925       61.532       80.775       45.803     3786.169     6524.672     2097.954        1.716        0.620      147.648       48.647        0.109      349.415       29.824      862.120
08/10/2014  15:55:00       21.072        6.073       43.161       46.113       55.305       40.286     2126.432     3058.684     1622.953        0.457        0.340       21.929       43.619        3.956      349.479       29.939      862.127
08/10/2014  15:56:00       32.066        5.221       54.304       54.671       65.790       38.867     2988.906     4328.339     1510.674        0.641        0.441       32.488       50.819        2.447      349.299       29.625      862.120
08/10/2014  15:57:00       55.402      -15.479       35.362       60.747       46.707       30.599     3690.204     2181.529      936.291        0.568        0.340       57.524       31.543        0.301      349.486       29.950      862.114
08/10/2014  15:58:00       30.229      -77.598      -11.049       29.184       30.785       22.308      851.689      947.706      497.636        0.468        0.115       83.278       14.544        0.030      349.359       29.729      862.111
08/10/2014  15:59:00       19.865      -73.654       -4.137       28.811       33.980       20.344      830.057     1154.640      413.869        0.412        0.120       76.286        8.984        0.014      349.379       29.763      862.099
08/10/2014  16:00:00      -20.656        0.473       15.867       18.315       19.196       13.560      335.426      368.504      183.875        0.078        0.044       20.661       10.080        0.238      349.426       29.846      862.093
08/10/2014  16:01:00       22.338      -97.397       -4.851       44.823       55.676       27.448     2009.095     3099.827      753.386        0.793        0.293       99.926       27.185        0.074      349.268       29.571      862.074
08/10/2014  16:02:00       55.691      -93.785        9.400       52.061       64.617       44.822     2710.388     4175.418     2009.001        1.044        0.445      109.074       35.653        0.107      349.330       29.679      862.054
08/10/2014  16:03:00       -9.184      -25.653        3.848       31.915       42.026       27.167     1018.566     1766.155      738.071        0.214        0.176       27.248       28.747        1.113      349.275       29.583      862.034
08/10/2014  16:04:00        3.584        7.340       22.935       18.162       28.428       21.747      329.848      808.160      472.937        0.110        0.081        8.168        7.421        0.826      349.208       29.467      862.013
08/10/2014  16:05:00       84.963     -143.903       -1.757       37.579       59.910       33.436     1412.171     3589.218     1117.958        1.702        0.306      167.113       21.503        0.017      349.280       29.589      861.991
08/10/2014  16:06:00       98.392      -80.519       22.040       85.150       99.783       61.685     7250.452     9956.712     3804.992        1.883        1.051      127.139       68.452        0.290      349.365       29.738      861.953
08/10/2014  16:07:00       38.242     -102.083        4.962       53.125       52.508       39.749     2822.247     2757.102     1579.954        0.953        0.358      109.011       37.735        0.120      349.299       29.625      861.942
08/10/2014  16:08:00      111.096     -138.984       10.496      113.588      135.198       67.316    12902.124    18278.521     4531.410        3.373        1.786      177.929       80.507        0.205      349.330       29.677      861.922
08/10/2014  16:09:00       46.280      -86.120       16.978       54.663       95.059       57.106     2988.004     9036.165     3261.103        1.256        0.764       97.767       65.113        0.444      349.283       29.597      861.908
08/10/2014  16:10:00      110.716      -95.127       15.275       72.177       68.859       54.653     5209.537     4741.531     2986.983        1.724        0.647      145.970       52.550        0.130      349.294       29.614      861.918
08/10/2014  16:11:00      109.971      -59.080       32.341       49.786       72.081       52.438     2478.646     5195.668     2749.744        1.352        0.521      124.836       45.672        0.134      349.324       29.667      861.921
08/10/2014  16:12:00       17.780      -46.124       19.853       67.815       54.331       36.496     4598.839     2951.842     1331.940        0.586        0.444       49.432       32.212        0.425      349.289       29.607      861.937
08/10/2014  16:13:00       -6.290      -10.184       18.065       22.084       17.343       12.843      487.699      300.779      164.939        0.071        0.048       11.970       11.504        0.924      349.348       29.709      861.955
08/10/2014  16:14:00        1.495      -37.616        5.453       36.255       31.779       24.413     1314.420     1009.933      595.989        0.218        0.146       37.645       19.284        0.262      349.262       29.560      861.984
08/10/2014  16:15:00      -27.117      -55.708        1.694       64.144       49.183       30.988     4114.410     2418.996      960.242        0.567        0.375       61.957       25.640        0.171      349.201       29.453      862.014
08/10/2014  16:16:00      -54.842     -124.146      -11.201       52.266       30.354       30.250     2731.782      921.389      915.033        1.156        0.228      135.720       19.725        0.021      349.232       29.508      862.054
08/10/2014  16:17:00        8.226      -61.026        1.599       34.833       44.463       27.217     1213.359     1976.987      740.738        0.386        0.197       61.578       21.599        0.123      349.123       29.320      862.074
08/10/2014  16:18:00      -59.867      -59.362       -7.692       69.689       60.586       38.013     4856.552     3670.659     1445.020        0.857        0.499       84.308       29.600        0.123      349.202       29.457      862.100
08/10/2014  16:19:00      -34.827      -97.195        3.790       73.371       67.022       42.954     5383.302     4491.990     1845.058        1.119        0.586      103.247       36.303        0.124      349.209       29.469      862.131
08/10/2014  16:20:00       41.077     -246.022       -4.803       79.821      130.182       57.281     6371.470    16947.356     3281.072        4.441        1.330      249.428       54.584        0.048      349.132       29.332      862.142
08/10/2014  16:21:00        7.800     -291.417      -11.312      112.912      105.361       58.772    12749.130    11101.016     3454.095        5.620        1.365      291.522       46.683        0.026      349.081       29.243      862.163
08/10/2014  16:22:00       40.930     -153.637      -15.431       92.517       81.444       55.945     8559.460     6633.174     3129.897        2.192        0.916      158.996       32.510        0.042      349.024       29.146      862.163
08/10/2014  16:23:00       10.233     -125.820        7.592       87.142       74.205       51.137     7593.643     5506.414     2614.963        1.585        0.786      126.236       38.743        0.094      349.073       29.231      862.174
08/10/2014  16:24:00        1.505     -171.288        7.375       96.089       96.570       64.142     9233.012     9325.787     4114.168        2.603        1.134      171.295       40.304        0.055      349.071       29.228      862.174
08/10/2014  16:25:00      -64.622      -96.545       -2.264       56.946       74.130       49.101     3242.794     5495.272     2410.863        1.232        0.557      116.176       44.779        0.149      349.092       29.265      862.170
08/10/2014  16:26:00      -38.205      -68.277       -1.587       52.075       39.364       23.313     2711.792     1549.526      543.504        0.546        0.240       78.239       12.489        0.025      349.087       29.257      862.187
08/10/2014  16:27:00      -75.360      -51.684      -10.619       60.978       50.676       27.570     3718.261     2568.065      760.083        0.775        0.352       91.381       18.230        0.040      349.099       29.277      862.191
08/10/2014  16:28:00     -134.559      -73.159        2.749      103.202       72.167       42.939    10650.740     5208.128     1843.735        2.058        0.885      153.161       54.787        0.128      349.129       29.327      862.191
08/10/2014  16:29:00      -43.491       17.671       20.547       32.018       24.920       23.655     1025.135      620.989      559.557        0.242        0.110       46.944       18.203        0.150      348.828       28.809      862.204
08/10/2014  16:30:00       20.349      -43.680        3.125       27.157       53.164       26.163      737.511     2826.410      684.514        0.329        0.212       48.188       20.160        0.175      349.001       29.107      862.210
08/10/2014  16:31:00       -2.493     -111.041        3.899       47.890       65.603       39.048     2293.423     4303.718     1524.769        1.024        0.406      111.069       36.895        0.110      349.043       29.179      862.206
08/10/2014  16:32:00      -11.604      -87.694       -7.729       36.434       42.215       22.980     1327.457     1782.113      528.083        0.576        0.182       88.459       15.297        0.030      348.995       29.097      862.213
08/10/2014  16:33:00       26.374      -79.620       -2.519       53.735       48.857       33.778     2887.419     2386.984     1140.954        0.673        0.321       83.874       30.813        0.135      348.984       29.079      862.209
08/10/2014  16:34:00      -21.430      -54.076        2.322       33.374       34.518       23.512     1113.804     1191.491      552.832        0.312        0.143       58.168       14.313        0.061      348.940       29.003      862.199
08/10/2014  16:35:00        2.931     -110.907       -5.019       57.926       67.691       36.000     3355.439     4582.052     1296.000        1.078        0.462      110.946       34.134        0.095      348.943       29.007      862.208
08/10/2014  16:36:00       12.681     -130.777       13.764       45.271       64.002       33.771     2049.499     4096.263     1140.491        1.237        0.364      131.390       36.199        0.076      349.051       29.195      862.222
08/10/2014  16:37:00       23.924      -39.938       15.420       26.057       34.175       24.441      678.955     1167.959      597.347        0.242        0.122       46.555       20.220        0.189      349.096       29.272      862.222
08/10/2014  16:38:00      -42.607      -51.276       16.202       74.129       53.810       31.635     5495.083     2895.490     1000.742        0.705        0.470       66.667       43.641        0.429      349.085       29.254      862.232
08/10/2014  16:39:00       17.762      -69.269       -7.418       34.718       44.117       25.833     1205.370     1946.307      667.319        0.449        0.191       71.510       13.298        0.035      349.020       29.143      862.249
08/10/2014  16:40:00      -16.003      -67.767        5.885       34.356       43.013       23.922     1180.349     1850.096      572.269        0.424        0.180       69.631       22.837        0.108      348.994       29.096      862.264
08/10/2014  16:41:00      -15.867     -102.523        0.577       34.318       39.921       21.901     1177.714     1593.653      479.646        0.701        0.163      103.744       11.562        0.012      349.010       29.124      862.294
08/10/2014  16:42:00      -37.167     -102.450      -14.064       60.436       54.679       28.560     3652.499     2989.797      815.650        0.977        0.373      108.983       27.006        0.061      349.083       29.248      862.302
08/10/2014  16:43:00      -86.927     -153.181      -13.830       78.545       83.399       43.832     6169.380     6955.430     1921.233        2.313        0.752      176.127       34.728        0.039      349.063       29.214      862.333
08/10/2014  16:44:00        4.639      -85.738       -8.133       71.531       59.795       39.085     5116.755     3575.482     1527.663        0.883        0.511       85.863       35.722        0.173      348.999       29.106      862.369
08/10/2014  16:45:00      -34.131      -63.096        9.355       38.459       61.592       34.430     1479.057     3793.553     1185.399        0.584        0.323       71.736       33.881        0.223      348.982       29.076      862.401
08/10/2014  16:46:00       28.284      -88.598       -5.317       35.245       41.937       35.465     1242.213     1758.673     1257.764        0.647        0.213       93.004       25.936        0.078      348.959       29.035      862.424
08/10/2014  16:47:00       49.153     -128.075      -17.459       57.155       60.569       40.858     3266.677     3668.577     1669.344        1.386        0.430      137.183       37.577        0.075      348.988       29.085      862.444
08/10/2014  16:48:00      -12.258      -97.923      -10.119       53.935       52.229       37.367     2908.960     2727.840     1396.308        0.844        0.352       98.687       17.408        0.031      349.006       29.118      862.460
08/10/2014  16:49:00       14.959     -111.722       -4.473       68.925       59.274       48.103     4750.675     3513.456     2313.899        1.165        0.529      112.719       33.340        0.087      348.971       29.057      862.500
08/10/2014  16:50:00       27.973      -91.678        2.494       74.012       79.841       49.561     5477.733     6374.621     2456.280        1.175        0.715       95.850       39.356        0.169      348.939       29.001      862.524
08/10/2014  16:51:00       42.850     -201.616       -6.865      100.099      116.218       71.294    10019.843    13506.621     5082.897        3.557        1.430      206.119       48.548        0.055      348.875       28.888      862.529
08/10/2014  16:52:00      -38.722     -256.890      -10.637       88.225      118.945       49.740     7783.694    14147.875     2474.092        4.600        1.220      259.792       43.539        0.028      348.887       28.910      862.535
08/10/2014  16:53:00       75.933     -142.248       14.082      105.693      128.419       67.704    11171.107    16491.522     4583.843        2.922        1.612      161.247       66.138        0.168      348.842       28.832      862.558
08/10/2014  16:54:00      -12.273     -341.002       -8.762      116.724      138.382       70.079    13624.429    19149.508     4911.098        7.709        1.884      341.223       42.059        0.015      348.845       28.833      862.562
08/10/2014  16:55:00       12.880     -189.018        8.349      124.758      114.009       65.870    15564.682    12998.055     4338.916        3.443        1.645      189.457       45.467        0.058      348.834       28.816      862.575
08/10/2014  16:56:00      -42.243     -217.726       -6.088      120.105      158.298       51.291    14425.327    25058.239     2630.731        4.566        2.106      221.787       52.396        0.056      348.845       28.835      862.569
08/10/2014  16:57:00      -45.112     -121.839       -3.976       87.469      114.457       56.374     7650.810    13100.372     3178.021        2.041        1.196      129.922       56.168        0.187      348.825       28.802      862.594
08/10/2014  16:58:00       16.372     -140.191       23.215       99.326      112.881       53.829     9865.642    12742.072     2897.613        2.298        1.275      141.144       44.077        0.098      348.789       28.741      862.596
08/10/2014  16:59:00      -54.576     -256.883       -3.934      111.261      142.914       67.931    12379.118    20424.501     4614.596        5.319        1.871      262.616       40.206        0.023      348.762       28.692      862.621
08/10/2014  17:00:00     -282.562     -216.833      -16.162      174.801      150.111       78.133    30555.243    22533.398     6104.775        9.314        2.960      356.172       67.040        0.035      348.814       28.779      862.634
08/10/2014  17:01:00     -240.579     -191.792        9.989      197.977      145.561       78.261    39195.048    21187.889     6124.807        8.062        3.325      307.673       87.449        0.081      348.701       28.587      862.699
08/10/2014  17:02:00     -244.113     -316.535      -15.716      152.968      190.732       73.618    23399.356    36378.682     5419.568       11.260        3.260      399.732       63.429        0.025      348.456       28.162      862.703
08/10/2014  17:03:00     -304.279     -127.049        4.204      159.203      139.008       74.586    25345.549    19323.321     5563.131        7.948        2.512      329.738       88.033        0.071      348.407       28.077      862.760
08/10/2014  17:04:00     -202.212     -121.689        7.443      147.469      121.260       60.957    21747.001    14704.101     3715.722        4.795        2.008      236.004       66.875        0.080      348.379       28.030      862.767
08/10/2014  17:05:00     -319.524     -224.378       -4.138      217.151      151.210       85.227    47154.591    22864.512     7263.621       11.485        3.864      390.437      110.558        0.080      348.269       27.838      862.752
08/10/2014  17:06:00     -356.579     -160.739        8.196      206.425      157.727       89.185    42611.127    24877.937     7954.021       11.423        3.772      391.134      110.153        0.079      348.262       27.825      862.768
08/10/2014  17:07:00     -405.703     -100.644       -7.398      222.347      178.544       83.997    49438.189    31877.844     7055.555       13.156        4.419      418.000       91.588        0.048      348.275       27.847      862.794
08/10/2014  17:08:00     -553.198     -301.895      -24.384      246.513      206.687      110.570    60768.884    42719.643    12225.633       25.672        5.786      630.213      117.231        0.035      348.216       27.746      862.799
08/10/2014  17:09:00     -521.196     -162.504      -12.896      282.076      192.536      113.769    79566.670    37069.940    12943.333       21.387        6.479      545.942      133.664        0.060      348.174       27.675      862.810
08/10/2014  17:10:00     -415.709     -197.227        5.935      252.074      214.349      113.193    63541.261    45945.561    12812.707       16.700        6.115      460.123      127.988        0.077      348.161       27.652      862.874
08/10/2014  17:11:00     -500.778     -146.216       -7.960      307.894      195.634      128.380    94798.856    38272.677    16481.312       21.086        7.478      521.687      141.028        0.073      348.122       27.583      862.868
08/10/2014  17:12:00     -571.890     -193.495      -34.205      185.419      157.239       94.756    34380.069    24724.011     8978.759       21.686        3.404      603.737       83.101        0.019      348.111       27.562      862.887
08/10/2014  17:13:00     -375.421      -31.964      -19.746      151.378      151.592       73.395    22915.236    22980.000     5386.820        9.681        2.564      376.779       68.361        0.033      348.111       27.563      862.908
08/10/2014  17:14:00     -339.283     -199.025       -1.130      246.145      166.340      102.385    60587.352    27668.879    10482.618       12.671        4.937      393.349      122.603        0.097      348.115       27.571      862.908
08/10/2014  17:15:00     -381.064     -199.321      -12.490      208.665      150.980       97.855    43540.965    22794.986     9575.539       13.049        3.796      430.045      105.355        0.060      348.094       27.536      862.917
08/10/2014  17:16:00     -329.328      -97.464      -18.763      249.411      165.342       81.577    62205.782    27337.978     6654.820       10.723        4.810      343.448       91.018        0.070      348.048       27.457      862.938
08/10/2014  17:17:00     -281.892     -119.783       -4.911      186.438      177.471       90.470    34759.062    31496.077     8184.748        8.412        3.722      306.286       93.412        0.093      348.011       27.392      862.933
08/10/2014  17:18:00     -236.432     -135.690       10.112      188.162      138.352       85.213    35405.013    19141.413     7261.222        6.810        3.090      272.602       97.385        0.128      347.966       27.317      862.962
08/10/2014  17:19:00     -342.044     -254.658      -22.429      174.296      155.209       85.289    30379.227    24089.852     7274.294       12.203        3.087      426.432       98.634        0.053      347.854       27.120      862.972
08/10/2014  17:20:00     -447.978     -208.672      -14.751      258.466      178.464       93.913    66804.756    31849.399     8819.620       17.594        5.374      494.195       90.063        0.033      347.704       26.863      862.950
08/10/2014  17:21:00     -313.688     -109.679        8.861      167.307      145.929       77.553    27991.647    21295.308     6014.545        8.289        2.765      332.310       77.139        0.054      347.715       26.880      862.963
08/10/2014  17:22:00     -454.565     -184.318      -24.800      193.955      166.839       82.349    37618.364    27835.291     6781.304       15.671        3.612      490.513       88.653        0.033      347.688       26.836      862.952
08/10/2014  17:23:00     -416.556     -208.455      -17.735      224.906      149.847       93.413    50582.544    22454.248     8725.912       14.951        4.088      465.803       95.178        0.042      347.685       26.831      862.954
08/10/2014  17:24:00     -279.063     -163.612        2.353      153.330      141.704       78.796    23510.066    20080.091     6208.744        7.721        2.490      323.489       80.989        0.063      347.688       26.835      862.949
08/10/2014  17:25:00     -315.529     -180.228      -14.112      205.053      169.430       93.274    42046.653    28706.561     8699.967       10.583        3.973      363.374      108.121        0.089      347.675       26.812      862.967
08/10/2014  17:26:00     -432.043     -205.163      -16.092      194.903      173.306       73.579    37987.161    30034.896     5413.877       15.121        3.672      478.281       90.603        0.036      347.642       26.755      862.962
08/10/2014  17:27:00     -269.772     -109.054      -22.631      148.278      127.136       69.362    21986.352    16163.671     4811.072        6.406        2.148      290.981       76.278        0.069      347.670       26.804      862.952
08/10/2014  17:28:00     -314.939     -210.746       10.658      207.934      147.940       86.685    43236.557    21886.258     7514.329       10.816        3.632      378.946      110.432        0.085      347.666       26.799      862.949
08/10/2014  17:29:00     -341.854     -221.596      -22.948      164.721      138.643       90.701    27133.098    19221.863     8226.757       11.053        2.729      407.393       95.427        0.055      347.652       26.774      862.930
08/10/2014  17:30:00     -220.627     -128.899       13.412      141.265      101.230       72.082    19955.664    10247.583     5195.818        5.043        1.770      255.521       71.221        0.078      347.641       26.753      862.939
08/10/2014  17:31:00     -292.487     -195.348       -6.291      178.778      123.862       67.592    31961.493    15341.914     4568.706        8.780        2.594      351.723       65.845        0.035      347.586       26.661      862.893
08/10/2014  17:32:00     -198.477      -52.885        3.317      126.714       94.381       58.151    16056.324     8907.705     3381.580        3.527        1.417      205.402       59.992        0.085      347.658       26.785      862.880
08/10/2014  17:33:00     -358.538      -69.987      -30.501      156.277      108.722       60.769    24422.596    11820.503     3692.870        8.715        1.997      365.305       65.570        0.032      347.662       26.788      862.866
08/10/2014  17:34:00     -154.448     -104.646       12.804      135.613       95.320       63.018    18391.016     9085.857     3971.315        3.320        1.572      186.561       70.017        0.141      347.677       26.817      862.838
08/10/2014  17:35:00     -186.337      -51.628       18.333      127.904      111.190       64.124    16359.385    12363.273     4111.884        3.527        1.642      193.357       62.187        0.103      347.686       26.833      862.820
08/10/2014  17:36:00     -247.263     -127.279      -11.262      150.133      107.965       62.745    22539.809    11656.459     3936.878        5.779        1.907      278.099       65.564        0.056      347.688       26.835      862.774
08/10/2014  17:37:00     -294.710     -159.873      -16.006      128.763      135.390       63.289    16579.954    18330.545     4005.547        7.578        1.946      335.281       61.077        0.033      347.702       26.858      862.748
08/10/2014  17:38:00     -223.625      -97.917        7.759      176.408      105.287       61.285    31119.672    11085.251     3755.848        5.280        2.298      244.123       75.029        0.094      347.727       26.903      862.717
08/10/2014  17:39:00     -221.855     -109.515       12.161      200.103      125.227       74.891    40041.089    15681.681     5608.669        6.133        3.067      247.413       98.555        0.159      347.732       26.911      862.682
08/10/2014  17:40:00     -219.537      -42.490        4.428      140.383      102.015       64.841    19707.299    10407.109     4204.302        4.216        1.716      223.611       69.739        0.097      347.750       26.942      862.648
08/10/2014  17:41:00     -381.107     -113.788       -4.757      151.262      139.759       74.738    22880.285    19532.610     5585.740       10.310        2.400      397.732       68.802        0.030      347.762       26.964      862.615
08/10/2014  17:42:00     -244.733      -55.503       -4.721      195.434       94.932       66.585    38194.431     9012.084     4433.535        5.731        2.582      250.948       87.211        0.121      347.789       27.011      862.602
08/10/2014  17:43:00     -120.966      -78.141        5.802      160.184       91.160       67.968    25658.791     8310.184     4619.702        2.967        1.929      144.010       78.258        0.295      347.802       27.035      862.607
08/10/2014  17:44:00     -410.103      -89.524      -14.693      178.549      158.888       86.280    31879.582    25245.245     7444.293       12.048        3.228      419.761       89.700        0.046      347.794       27.019      862.612
08/10/2014  17:45:00     -377.047     -125.531      -20.638      205.827      176.369       84.775    42364.645    31105.895     7186.768       11.949        4.033      397.395       81.423        0.042      347.785       27.005      862.574
08/10/2014  17:46:00     -379.449      -47.344      -10.189      169.570       97.781       72.241    28753.958     9561.142     5218.742        9.492        2.177      382.391       87.547        0.052      347.789       27.011      862.577
08/10/2014  17:47:00     -293.707       24.673        7.239      176.755      142.062       78.548    31242.431    20181.637     6169.792        7.225        2.880      294.741       84.292        0.082      347.767       26.972      862.568
08/10/2014  17:48:00     -571.545     -138.611      -16.453      254.975      152.860      107.940    65012.502    23366.096    11651.073       22.307        5.001      588.113      130.296        0.049      347.735       26.914      862.547
08/10/2014  17:49:00     -500.381     -128.489      -19.336      181.109      145.652       81.319    32800.435    21214.614     6612.730       16.393        3.031      516.615       90.690        0.031      347.743       26.931      862.550
08/10/2014  17:50:00     -336.728      -95.658      -18.869      182.364      134.219       74.530    33256.717    18014.732     5554.732        8.985        2.841      350.052       77.444        0.049      347.731       26.909      862.570
08/10/2014  17:51:00     -331.256      -70.496       -2.687      174.464      167.224       84.240    30437.648    27963.767     7096.371        9.009        3.275      338.674       89.497        0.070      347.711       26.874      862.558
08/10/2014  17:52:00     -178.407      -65.385       24.036      158.394      130.938       77.315    25088.540    17144.641     5977.536        4.244        2.411      190.011       82.482        0.188      347.710       26.874      862.571
08/10/2014  17:53:00     -378.945      -48.206      -22.474      209.171      147.624       89.059    43752.671    21792.747     7931.563       10.994        3.674      381.999       84.234        0.049      347.723       26.895      862.609
08/10/2014  17:54:00     -298.302      -39.207      -14.633      137.979      135.659       74.788    19038.090    18403.263     5593.292        6.688        2.152      300.868       69.900        0.054      347.729       26.904      862.605
08/10/2014  17:55:00     -386.423      -77.606      -10.137      199.592      188.605       84.442    39837.053    35571.902     7130.502       11.898        4.127      394.139       92.400        0.055      347.732       26.910      862.562
08/10/2014  17:56:00     -552.353     -139.414       -2.409      263.402      178.564      108.183    69380.369    31885.184    11703.642       21.873        5.648      569.675      123.036        0.047      347.742       26.928      862.564
08/10/2014  17:57:00     -408.142     -164.436      -18.088      309.122      209.691      109.258    95556.388    43970.114    11937.300       17.268        7.573      440.022      153.313        0.121      347.745       26.935      862.615
08/10/2014  17:58:00     -592.168     -250.044      -26.667      419.821      231.841      123.424   176249.393    53750.319    15233.592       32.952       12.262      642.795      170.142        0.070      347.709       26.872      862.587
08/10/2014  17:59:00     -596.568     -148.958      -27.459      341.180      223.107      111.111   116404.122    49776.571    12345.575       27.865        8.926      614.884      127.856        0.043      347.683       26.827      862.654
08/10/2014  18:00:00     -650.272     -200.911      -19.086      401.259      253.577      132.418   161008.474    64301.507    17534.488       35.317       12.142      680.602      166.675        0.060      347.601       26.685      862.640
08/10/2014  18:01:00     -545.989     -208.744      -19.776      296.769      249.179      124.758    88071.588    62090.403    15564.641       25.386        8.286      584.532      125.825        0.046      347.574       26.639      862.715
08/10/2014  18:02:00     -530.845     -345.195      -11.313      347.882      292.125      162.279   121021.756    85337.117    26334.386       31.684       11.635      633.211      197.277        0.097      347.559       26.612      862.740
08/10/2014  18:03:00     -578.546     -139.799      -14.865      294.177      290.935      126.927    86540.239    84643.391    16110.349       27.085        9.365      595.196      147.852        0.062      347.516       26.537      862.788
08/10/2014  18:04:00     -423.108     -122.915      -11.393      244.578      204.209       88.182    59818.564    41701.134     7775.985       15.176        5.465      440.600       99.043        0.051      347.526       26.556      862.828
08/10/2014  18:05:00     -412.441     -173.242      -29.398      249.384      247.668      122.746    62192.399    61339.601    15066.701       16.976        6.930      447.348      138.178        0.095      347.508       26.526      862.824
08/10/2014  18:06:00     -408.495     -194.703      -17.370      209.538      177.120       90.251    43906.368    31371.452     8145.219       14.423        4.171      452.523       69.769        0.024      347.489       26.491      862.836
08/10/2014  18:07:00     -506.110     -250.190       -4.545      289.440      246.142      103.376    83775.553    60585.803    10686.549       23.687        7.752      564.572      141.058        0.062      347.470       26.458      862.858
08/10/2014  18:08:00     -353.044     -156.880       -5.267      248.479      234.130      112.533    61741.949    54816.861    12663.755       13.922        6.461      386.330      136.018        0.124      347.443       26.412      862.812
08/10/2014  18:09:00     -238.407      -53.880       11.090      227.832      156.733      105.585    51907.476    24565.276    11148.157        7.373        4.381      244.420       99.831        0.167      347.430       26.389      862.834
08/10/2014  18:10:00     -472.007     -196.895      -18.348      378.960      200.761      114.707   143610.762    40305.072    13157.709       22.944        9.854      511.428      158.574        0.096      347.371       26.289      862.838
08/10/2014  18:11:00     -658.492     -144.480      -37.431      327.772      205.974      107.609   107434.791    42425.372    11579.633       30.863        8.072      674.156      140.062        0.043      347.306       26.176      862.858
08/10/2014  18:12:00     -454.474       -2.304       -9.578      199.983      174.287       86.890    39993.158    30375.896     7549.862       14.227        3.896      454.480       87.297        0.037      347.317       26.195      862.899
08/10/2014  18:13:00     -419.639     -145.267      -13.742      289.332      180.789      110.901    83713.074    32684.515    12298.995       16.302        6.435      444.072      132.408        0.089      347.276       26.125      862.872
08/10/2014  18:14:00     -450.244     -157.877      -12.953      250.012      169.564       92.365    62505.958    28751.833     8531.318       16.378        4.989      477.121      105.852        0.049      347.262       26.101      862.876
08/10/2014  18:15:00     -572.970     -135.728      -43.098      303.175      177.090      111.145    91915.188    31360.899    12353.197       24.207        6.781      588.826      134.839        0.052      347.234       26.051      862.873
08/10/2014  18:16:00     -446.099      -94.252      -20.434      262.334      154.559       92.219    68819.160    23888.617     8504.325       15.474        5.061      455.947      109.885        0.058      347.238       26.058      862.882
08/10/2014  18:17:00     -433.656     -164.267       -8.432      285.215      226.135      101.954    81347.672    51136.889    10394.656       17.897        7.144      463.725       93.534        0.041      347.207       26.005      862.862
08/10/2014  18:18:00     -535.450     -213.519      -34.172      336.841      226.143      130.426   113461.527    51140.650    17011.053       25.750        9.081      576.452      158.293        0.075      347.139       25.888      862.856
08/10/2014  18:19:00     -492.660     -171.412       -7.254      293.194      271.056      126.047    85962.756    73471.564    15887.938       22.370        8.766      521.628      159.835        0.094      347.129       25.872      862.896
08/10/2014  18:20:00     -394.586     -208.516      -24.242      255.252      173.782       96.909    65153.408    30200.238     9391.378       15.223        5.237      446.293      104.950        0.055      347.128       25.870      862.886
08/10/2014  18:21:00     -408.352     -149.868        7.600      277.782      175.514      119.469    77162.989    30805.053    14272.888       15.573        6.112      434.985      145.819        0.112      347.128       25.869      862.873
08/10/2014  18:22:00     -317.400     -194.617        1.972      245.769      208.594      123.151    60402.448    43511.254    15166.216       12.883        5.954      372.315      136.735        0.135      347.174       25.950      862.866
08/10/2014  18:23:00     -312.444     -267.924        2.254      245.825      232.737      119.954    60429.755    54166.413    14388.988       14.917        6.449      411.588      119.351        0.084      347.207       26.005      862.852
08/10/2014  18:24:00     -320.020       -2.675       16.274      268.448      133.768      100.296    72064.220    17893.868    10059.386       10.133        5.001      320.031      121.850        0.145      347.248       26.077      862.849
08/10/2014  18:25:00     -435.293      -23.544      -27.133      182.929      129.057       78.704    33463.018    16655.616     6194.255       12.353        2.816      435.929       70.395        0.026      347.282       26.134      862.841
08/10/2014  18:26:00     -415.880     -197.849       -1.838      219.156      211.460      111.898    48029.342    44715.455    12521.227       15.866        5.263      460.543      120.225        0.068      347.299       26.164      862.815
08/10/2014  18:27:00     -280.557     -218.811        9.834      175.801      167.960       86.702    30905.958    28210.678     7517.215        9.665        3.332      355.796       92.345        0.067      347.336       26.229      862.836
08/10/2014  18:28:00     -376.907     -160.256       -6.320      129.147      147.115       66.381    16678.979    21642.840     4406.395       10.525        2.136      409.562       60.142        0.022      347.344       26.243      862.861
08/10/2014  18:29:00     -494.529      -42.586      -12.793      194.385      138.196       79.061    37785.553    19098.223     6250.575       15.482        3.157      496.360       84.635        0.029      347.344       26.242      862.864
08/10/2014  18:30:00     -430.527     -118.269       -5.809      229.391      155.092       93.582    52620.010    24053.485     8757.577       14.239        4.272      446.476      102.065        0.052      347.322       26.204      862.881
08/10/2014  18:31:00     -454.721     -120.749      -11.143      217.488      188.825       94.789    47301.174    35654.742     8984.908       15.669        4.597      470.480       90.527        0.037      347.275       26.122      862.875
08/10/2014  18:32:00     -373.134     -109.812      -31.077      174.019      137.225       77.098    30282.726    18830.796     5944.053       10.364        2.753      388.957       72.513        0.035      347.274       26.121      862.881
08/10/2014  18:33:00     -472.879     -160.065      -29.177      246.215      190.888       89.846    60621.722    36438.095     8072.292       17.759        5.257      499.234       92.310        0.034      347.262       26.100      862.875
08/10/2014  18:34:00     -337.164      -93.727       -4.392      264.933      205.398      104.812    70189.478    42188.148    10985.541       12.290        6.168      349.949      123.643        0.125      347.275       26.122      862.840
08/10/2014  18:35:00     -596.752     -128.001      -33.235      250.108      182.015       83.881    62553.767    33129.387     7035.989       23.814        5.136      610.326       89.646        0.022      347.271       26.115      862.831
08/10/2014  18:36:00     -422.455      -94.212        5.434      266.172      224.252      110.607    70847.650    50289.179    12233.897       16.035        6.669      432.832      125.227        0.084      347.297       26.160      862.822
08/10/2014  18:37:00     -345.580     -188.820      -16.724      216.685      210.308       90.213    46952.185    44229.635     8138.460       12.732        4.966      393.800      102.393        0.068      347.321       26.202      862.830
08/10/2014  18:38:00     -404.964      -57.898        3.796      277.162      148.412       96.997    76818.935    22026.024     9408.497       13.779        5.413      409.082      116.008        0.080      347.355       26.261      862.840
08/10/2014  18:39:00     -421.647     -131.042      -33.033      204.107      166.562       98.700    41659.545    27742.860     9741.642       13.758        3.957      441.541       94.933        0.046      347.366       26.281      862.805
08/10/2014  18:40:00     -303.467     -183.858       -3.919      202.326      174.657       95.125    40935.698    30505.183     9048.752       10.318        4.024      354.818      104.660        0.087      347.364       26.277      862.841
08/10/2014  18:41:00     -176.060      -91.302       17.686      144.933      155.471       76.058    21005.546    24171.359     5784.744        4.529        2.548      198.326       85.801        0.187      347.346       26.245      862.829
08/10/2014  18:42:00     -235.545      -87.453       -7.803      160.330      116.884       66.197    25705.800    13661.759     4382.017        5.346        2.187      251.256       74.928        0.089      347.333       26.224      862.807
08/10/2014  18:43:00     -369.946     -156.677      -13.729      246.771      166.313       83.292    60896.055    27660.044     6937.636       12.853        4.775      401.756       94.249        0.055      347.280       26.131      862.807
08/10/2014  18:44:00     -258.570     -142.527       -6.421      163.473      126.076       87.772    26723.268    15895.131     7704.006        6.876        2.516      295.250       86.708        0.086      347.273       26.117      862.785
08/10/2014  18:45:00     -204.434      -80.717       23.493      183.440      166.803       91.246    33650.235    27823.147     8325.765        5.932        3.490      219.792      104.752        0.227      347.243       26.068      862.734
08/10/2014  18:46:00     -458.241      -97.672      -17.949      202.223      133.701       71.048    40893.979    17875.991     5047.882       14.182        3.191      468.534       78.005        0.028      347.230       26.045      862.703
08/10/2014  18:47:00     -494.270     -159.983      -30.669      168.052      165.115       84.548    28241.346    27263.064     7148.281       16.673        3.133      519.516       78.533        0.023      347.216       26.021      862.680
08/10/2014  18:48:00     -549.884      -72.679      -36.711      217.885      151.933       87.369    47473.741    23083.523     7633.288       19.358        3.910      554.667      105.765        0.036      347.205       26.003      862.637
08/10/2014  18:49:00     -321.253      -66.288       -2.181      192.107      134.834       74.512    36904.984    18180.303     5552.094        8.411        3.032      328.021       86.876        0.070      347.212       26.015      862.619
08/10/2014  18:50:00     -456.280      -49.807      -41.509      194.115      156.687       84.697    37680.665    24550.754     7173.581       14.089        3.470      458.991       87.785        0.037      347.209       26.009      862.606
08/10/2014  18:51:00     -401.869     -123.425      -26.343      185.257      166.450       78.645    34320.134    27705.643     6185.068       12.280        3.411      420.395       76.296        0.033      347.226       26.039      862.571
08/10/2014  18:52:00     -393.772     -117.624        2.107      196.577      145.364       85.060    38642.521    21130.660     7235.222       11.794        3.350      410.964       88.430        0.046      347.216       26.022      862.560
08/10/2014  18:53:00     -497.759      -91.561      -18.812      210.735      155.321       79.604    44409.341    24124.686     6336.760       16.567        3.744      506.110       82.845        0.027      347.217       26.022      862.590
08/10/2014  18:54:00     -322.536       12.966      -20.905      180.915      127.244       79.218    32730.286    16190.932     6275.546        7.990        2.760      322.797       88.653        0.075      347.217       26.024      862.573
08/10/2014  18:55:00     -182.130      -24.357       -5.150       97.635       78.385       49.035     9532.645     6144.234     2404.451        2.593        0.904      183.751       51.689        0.079      347.215       26.021      862.519
08/10/2014  18:56:00     -180.629       11.337      -14.505       88.721       46.467       33.997     7871.395     2159.179     1155.825        2.207        0.559      180.984       41.341        0.052      347.214       26.019      862.472
08/10/2014  18:57:00     -290.512       -2.486      -35.765      119.756       86.669       46.801    14341.595     7511.440     2190.304        5.486        1.202      290.523       53.158        0.033      347.235       26.053      862.466
08/10/2014  18:58:00     -325.449      -13.467      -11.466      240.279      160.599       79.937    57734.189    25792.035     6389.949        9.806        4.496      325.728       90.244        0.077      347.268       26.111      862.439
08/10/2014  18:59:00     -491.610      -63.717      -25.036      193.818      155.429       99.695    37565.582    24158.019     9939.145       15.900        3.583      495.722      104.497        0.044      347.337       26.228      862.401
08/10/2014  19:00:00     -436.105      -48.617      -21.763      209.542      160.404       82.500    43907.997    25729.512     6806.171       13.472        3.822      438.807      100.426        0.052      347.383       26.309      862.405
08/10/2014  19:01:00     -517.232     -141.561      -23.261      203.282      175.474       99.196    41323.740    30791.082     9839.830       18.502        4.098      536.254       93.630        0.030      347.448       26.419      862.353
08/10/2014  19:02:00     -450.974     -123.218      -11.704      186.895      171.877       75.327    34929.838    29541.709     5674.212       14.441        3.507      467.504       89.821        0.037      347.461       26.443      862.371
08/10/2014  19:03:00     -493.769      -48.007      -30.058      212.671      176.269       97.914    45229.069    31070.693     9587.062       16.643        4.294      496.098      105.957        0.046      347.485       26.484      862.347
08/10/2014  19:04:00     -500.456     -104.606      -37.466      199.881      159.672       91.486    39952.542    25495.112     8369.756       16.830        3.691      511.272      101.555        0.039      347.494       26.501      862.333
08/10/2014  19:05:00     -282.599       -5.235       -3.067      193.317      132.388       85.061    37371.332    17526.454     7235.369        7.100        3.107      282.648       79.435        0.079      347.479       26.475      862.295
08/10/2014  19:06:00     -478.038      -20.534       -8.789      341.393      173.642      104.533   116549.187    30151.495    10927.221       19.329        7.881      478.479      128.618        0.072      347.556       26.608      862.267
08/10/2014  19:07:00     -410.431      -69.207      -24.143      172.614      146.624       69.221    29795.546    21498.708     4791.613       11.494        2.804      416.225       81.195        0.038      347.606       26.693      862.258
08/10/2014  19:08:00     -354.080      -17.345      -20.393      235.347      115.923       71.402    55388.350    13438.101     5098.225        9.999        3.696      354.504       86.011        0.059      347.613       26.706      862.242
08/10/2014  19:09:00     -398.741      -90.107       -7.267      198.750      144.404       78.530    39501.618    20852.516     6166.967       11.683        3.326      408.795       85.093        0.043      347.679       26.818      862.236
08/10/2014  19:10:00     -402.425      -68.308       -9.259      183.407      150.719       77.287    33637.978    22716.349     5973.213       11.450        3.116      408.181       81.029        0.039      347.725       26.899      862.249
08/10/2014  19:11:00     -389.513     -133.212      -16.395      151.110      138.100       72.873    22834.291    19071.727     5310.455       10.847        2.361      411.663       57.533        0.020      347.772       26.980      862.245
08/10/2014  19:12:00     -390.857      -25.515      -26.882      156.957      125.731       68.517    24635.408    15808.168     4694.625        9.963        2.257      391.689       66.833        0.029      347.776       26.988      862.243
08/10/2014  19:13:00     -291.620      -56.964      -19.592      199.989      138.517       64.089    39995.463    19186.981     4107.430        7.597        3.164      297.132       83.467        0.079      347.818       27.060      862.240
08/10/2014  19:14:00     -479.924      -54.617      -31.663      163.740      166.113       74.156    26810.683    27593.490     5499.183       14.710        2.995      483.022       80.972        0.028      347.883       27.171      862.238
08/10/2014  19:15:00     -241.659      -58.830       -6.037      117.829      118.087       62.477    13883.719    13944.424     3903.354        4.681        1.587      248.717       68.988        0.077      347.840       27.096      862.261
08/10/2014  19:16:00     -346.053      -84.984       -6.519      125.193      125.478       72.550    15673.197    15744.756     5263.531        8.184        1.834      356.336       72.919        0.042      347.859       27.129      862.267
08/10/2014  19:17:00     -230.110      -32.828       -2.415      138.021       71.794       48.422    19049.851     5154.448     2344.682        4.029        1.327      232.439       57.983        0.062      347.828       27.077      862.270
08/10/2014  19:18:00     -252.253      -61.876      -16.905      115.273      107.453       58.421    13287.762    11546.184     3413.000        4.799        1.412      259.731       61.952        0.057      347.854       27.122      862.256
08/10/2014  19:19:00     -373.551      -83.992      -24.842      112.131       97.299       59.905    12573.255     9467.161     3588.655        8.642        1.281      382.877       46.881        0.015      347.939       27.269      862.255
08/10/2014  19:20:00     -251.522      -22.743       -5.683      163.269      109.979       68.060    26656.875    12095.329     4632.136        5.359        2.169      252.548       81.263        0.104      347.918       27.231      862.251
08/10/2014  19:21:00     -269.041      -87.988        6.277      133.501      122.277       67.745    17822.465    14951.620     4589.397        5.876        1.868      283.063       72.387        0.065      347.918       27.232      862.272
08/10/2014  19:22:00     -373.921      -37.715      -25.631      103.220      110.796       63.530    10654.445    12275.840     4036.042        8.443        1.348      375.819       55.796        0.022      347.955       27.296      862.292
08/10/2014  19:23:00     -309.211      -74.713      -11.501      120.733       91.476       69.313    14576.424     8367.941     4804.351        6.453        1.387      318.109       62.915        0.039      347.971       27.323      862.294
08/10/2014  19:24:00     -268.656      -77.309       -9.996      119.032       94.642       50.473    14168.651     8957.184     2547.511        5.196        1.284      279.558       62.653        0.050      347.947       27.282      862.288
08/10/2014  19:25:00     -259.504     -106.616       -6.162      140.333      105.854       63.156    19693.390    11204.985     3988.634        5.681        1.744      280.552       75.149        0.072      347.956       27.299      862.282
08/10/2014  19:26:00     -249.983      -33.494       -2.489      145.521       82.164       52.176    21176.238     6750.886     2722.333        4.713        1.532      252.217       69.281        0.075      347.933       27.259      862.280
08/10/2014  19:27:00     -226.513      -29.121       -4.988      113.489       60.783       45.713    12879.702     3694.588     2089.656        3.542        0.933      228.377       50.143        0.048      347.915       27.228      862.284
08/10/2014  19:28:00     -244.521      -22.709       -5.236      100.780       70.102       47.194    10156.577     4914.267     2227.277        3.881        0.865      245.573       48.628        0.039      347.922       27.239      862.289
08/10/2014  19:29:00     -289.740      -60.356      -21.713       91.345       66.392       37.342     8343.964     4407.847     1394.448        5.110        0.707      295.960       38.516        0.017      347.954       27.294      862.294
08/10/2014  19:30:00     -246.946     -129.346       -7.495      104.155       54.141       43.723    10848.187     2931.293     1911.732        4.673        0.785      278.770       40.384        0.021      347.971       27.324      862.306
08/10/2014  19:31:00     -221.498      -99.233      -12.254       81.054       48.764       30.764     6569.815     2377.903      946.434        3.447        0.495      242.711       30.175        0.015      347.968       27.319      862.311
08/10/2014  19:32:00     -173.950      -86.258      -16.249       75.214       61.228       36.995     5657.122     3748.924     1368.655        2.437        0.539      194.163       29.786        0.024      347.938       27.268      862.307
08/10/2014  19:33:00     -165.146     -107.115        5.044       74.680       61.729       37.651     5577.165     3810.475     1417.584        2.479        0.540      196.842       37.064        0.035      347.989       27.355      862.315
08/10/2014  19:34:00     -162.819     -100.167       -8.777       61.784       60.055       32.112     3817.237     3606.570     1031.195        2.254        0.423      191.163       22.151        0.013      347.961       27.307      862.312
08/10/2014  19:35:00     -184.148     -122.232       -5.370       63.778       51.634       37.667     4067.610     2666.102     1418.783        2.851        0.408      221.023       31.829        0.021      347.993       27.360      862.319
08/10/2014  19:36:00     -131.032     -116.218        1.595       83.112       70.552       46.936     6907.654     4977.598     2203.013        2.238        0.704      175.145       46.573        0.071      347.940       27.271      862.325
08/10/2014  19:37:00     -184.232      -93.281        1.563       71.218       57.297       34.702     5071.939     3282.903     1204.219        2.610        0.478      206.501       37.446        0.033      347.912       27.221      862.330
08/10/2014  19:38:00     -188.127     -162.984       -8.198       67.359       62.704       42.397     4537.288     3931.813     1797.477        3.614        0.513      248.909       36.407        0.021      347.931       27.253      862.326
08/10/2014  19:39:00     -139.767      -80.399        9.114       69.611       57.535       42.051     4845.692     3310.238     1768.287        1.800        0.496      161.241       42.968        0.071      347.912       27.223      862.343
08/10/2014  19:40:00     -159.366      -91.616        4.989       69.912       64.193       30.670     4887.677     4120.712      940.647        2.188        0.497      183.824       32.569        0.031      347.935       27.262      862.352
08/10/2014  19:41:00     -214.870     -100.544      -14.363       93.651       77.646       37.392     8770.601     6028.907     1398.149        3.634        0.810      237.230       47.916        0.041      347.952       27.292      862.388
08/10/2014  19:42:00     -173.352      -50.830        6.338       95.193       66.838       43.986     9061.780     4467.255     1934.772        2.407        0.773      180.651       46.628        0.067      347.869       27.149      862.442
08/10/2014  19:43:00     -227.408      -30.310      -15.857       89.379       55.512       34.036     7988.623     3081.627     1158.443        3.255        0.611      229.419       32.892        0.021      347.914       27.225      862.513
08/10/2014  19:44:00     -167.548      -14.530      -15.164       88.616       68.977       38.375     7852.819     4757.852     1472.661        2.130        0.704      168.177       44.228        0.069      347.846       27.108      862.607
08/10/2014  19:45:00      -36.497       95.179       -5.109       35.160       52.782       25.684     1236.257     2785.967      659.655        0.755        0.234      101.936       23.000        0.051      347.712       26.880      862.638
08/10/2014  19:46:00      -60.598       76.169       -5.062       54.362       61.924       34.982     2955.243     3834.557     1223.751        0.875        0.401       97.333       33.336        0.117      347.677       26.822      862.677
08/10/2014  19:47:00     -136.428      -81.496       -7.250       96.031       60.431       33.060     9221.968     3651.853     1092.933        1.963        0.698      158.916       42.733        0.072      347.650       26.770      862.711
08/10/2014  19:48:00     -122.045      117.118       -0.031      105.662       90.567       65.582    11164.366     8202.321     4301.032        2.613        1.183      169.150       53.527        0.100      347.458       26.440      862.735
08/10/2014  19:49:00     -175.403       72.335      -11.981      147.127      153.715       66.920    21646.348    23628.402     4478.267        4.294        2.488      189.733       56.113        0.087      347.250       26.079      862.730
08/10/2014  19:50:00     -212.688       35.043      -19.798      158.097      175.037       56.632    24994.552    30637.871     3207.141        5.284        2.942      215.556       49.779        0.053      347.140       25.891      862.733
08/10/2014  19:51:00      -92.095       54.148       -9.185      122.384       96.968       59.582    14977.836     9402.750     3549.974        1.971        1.397      106.834       45.081        0.178      347.059       25.754      862.743
08/10/2014  19:52:00      -69.459      133.452       -4.242       91.153      106.696       56.747     8308.933    11383.958     3220.273        2.278        1.146      150.446       46.342        0.095      346.966       25.590      862.756
08/10/2014  19:53:00     -117.536       81.374      -16.638       79.782       98.707       49.326     6365.216     9743.023     2433.064        1.962        0.927      142.956       46.058        0.104      346.871       25.429      862.740
08/10/2014  19:54:00     -162.297       44.674      -15.690       97.529       70.739       45.826     9511.961     5004.071     2100.000        2.260        0.831      168.333       44.599        0.070      346.840       25.375      862.736
08/10/2014  19:55:00     -106.491       -8.847       -0.799      100.150       79.458       46.750    10029.946     6313.536     2185.545        1.497        0.926      106.858       43.953        0.169      346.831       25.360      862.730
08/10/2014  19:56:00     -289.229      -35.495      -30.701      130.045      127.463       57.838    16911.785    16246.730     3345.189        6.117        1.825      291.398       55.675        0.037      346.776       25.264      862.718
08/10/2014  19:57:00     -353.692      -91.387      -35.588      147.163      116.040       78.988    21656.886    13465.344     6239.145        8.803        2.068      365.308       74.487        0.042      346.750       25.220      862.674
08/10/2014  19:58:00     -309.227      -60.324      -32.694      158.327      134.287       61.125    25067.571    18033.005     3736.251        7.357        2.342      315.056       57.105        0.033      346.749       25.216      862.658
08/10/2014  19:59:00     -417.692      -71.426      -32.143      155.760      129.424       71.071    24261.187    16750.594     5051.128       11.332        2.303      423.755       66.661        0.025      346.749       25.217      862.634
08/10/2014  20:00:00     -269.014      -81.185       -4.372      197.706      146.717       82.590    39087.497    21525.757     6821.083        7.319        3.372      280.997      110.944        0.156      346.710       25.148      862.602
08/10/2014  20:01:00     -360.724     -100.444      -26.794      210.860      162.020       82.549    44461.764    26250.573     6814.312       10.921        3.876      374.447       93.070        0.062      346.695       25.123      862.573
08/10/2014  20:02:00     -450.304      -65.343      -29.947      236.146      131.637       78.591    55765.058    17328.269     6176.503       14.359        3.963      455.020       83.836        0.034      346.716       25.158      862.558
08/10/2014  20:03:00     -377.256     -112.625      -22.518      161.938      148.700       73.481    26223.780    22111.720     5399.503       10.461        2.687      393.709       77.347        0.039      346.708       25.145      862.530
08/10/2014  20:04:00     -404.676     -169.108      -18.626      162.963      155.310       76.267    26556.881    24121.173     5816.610       12.459        2.825      438.589       84.474        0.037      346.734       25.191      862.533
08/10/2014  20:05:00     -461.058      -49.727      -12.811      208.042      142.874       90.251    43281.486    20412.961     8145.325       14.351        3.592      463.732      100.364        0.047      346.764       25.241      862.514
08/10/2014  20:06:00     -375.750     -101.732      -13.566      205.278      147.807       85.863    42139.053    21846.926     7372.481       11.153        3.568      389.279       84.970        0.048      346.811       25.324      862.513
08/10/2014  20:07:00     -462.612      -12.983      -26.967      246.036      157.065       93.441    60533.682    24669.568     8731.224       15.440        4.697      462.795      118.927        0.066      346.868       25.421      862.523
08/10/2014  20:08:00     -393.791       21.782      -25.215      160.196      111.942       66.733    25662.786    12531.011     4453.233        9.941        2.132      394.393       73.123        0.034      346.867       25.421      862.536
08/10/2014  20:09:00     -241.307      -28.912       -3.749      131.725      187.782       68.642    17351.490    35262.017     4711.669        5.819        2.866      243.033       64.506        0.070      346.855       25.400      862.527
08/10/2014  20:10:00     -323.851      -53.896        0.928      220.481      170.761      100.491    48611.985    29159.418    10098.381        9.781        4.393      328.306      117.105        0.127      346.872       25.429      862.547
08/10/2014  20:11:00     -381.080      -52.538      -12.406      155.003      117.386       68.652    24025.994    13779.505     4713.094        9.532        2.126      384.685       71.574        0.035      346.883       25.447      862.547
08/10/2014  20:12:00     -422.337      -56.580      -18.033      191.232      143.946       71.985    36569.622    20720.547     5181.847       12.217        3.124      426.110       78.742        0.034      346.881       25.442      862.540
08/10/2014  20:13:00     -218.530      -42.005      -11.495      151.313      136.991       79.828    22895.686    18766.573     6372.512        4.883        2.402      222.530       58.459        0.069      346.848       25.388      862.532
08/10/2014  20:14:00     -483.367      -40.629      -24.909      232.674      145.791       88.182    54137.331    21255.122     7776.048       15.953        4.158      485.072      104.168        0.046      346.854       25.397      862.550
08/10/2014  20:15:00     -322.437       12.870       -4.937      208.606      156.843       87.543    43516.527    24599.828     7663.828        8.995        3.789      322.694       97.307        0.091      346.811       25.322      862.543
08/10/2014  20:16:00     -353.743     -129.004      -11.907      219.998      190.461      103.922    48399.092    36275.486    10799.794       11.868        4.774      376.531      100.437        0.071      346.793       25.293      862.519
08/10/2014  20:17:00     -209.406     -131.325        0.550      235.932      146.531      121.946    55664.062    21471.220    14870.812        7.653        4.600      247.179      137.123        0.308      346.789       25.285      862.524
08/10/2014  20:18:00     -311.273     -132.478       -3.646      260.086      166.067      100.490    67644.612    27578.395    10098.327       10.987        5.266      338.291      124.354        0.135      346.767       25.249      862.532
08/10/2014  20:19:00     -498.664      -65.388      -30.220      289.259      138.270       92.459    83670.816    19118.727     8548.713       18.257        5.567      502.933      112.952        0.050      346.751       25.220      862.545
08/10/2014  20:20:00     -469.627     -200.628      -32.835      220.066      186.324      101.194    48429.179    34716.715    10240.128       17.761        4.669      510.687      114.444        0.050      346.730       25.185      862.548
08/10/2014  20:21:00     -376.331     -148.199        0.312      231.037      214.194       97.258    53378.155    45879.073     9459.073       13.613        5.436      404.460      112.884        0.078      346.701       25.132      862.548
08/10/2014  20:22:00     -274.480     -150.981        6.598      196.042      153.978      109.679    38432.270    23709.086    12029.589        8.616        3.709      313.264      102.556        0.107      346.710       25.150      862.566
08/10/2014  20:23:00     -406.347     -167.256       13.400      191.832      193.594       94.418    36799.702    37478.610     8914.710       13.822        4.160      439.423      105.138        0.057      346.684       25.105      862.596
08/10/2014  20:24:00     -132.173      -63.940        6.709      165.076      113.431       94.266    27250.243    12866.701     8886.089        3.529        2.450      146.826       67.942        0.214      346.651       25.050      862.633
08/10/2014  20:25:00     -240.335     -114.457        8.612      120.366      101.800       61.428    14488.009    10363.185     3773.377        4.977        1.431      266.198       51.376        0.037      346.634       25.019      862.683
08/10/2014  20:26:00     -367.473     -109.601      -20.614      138.486      120.521       68.275    19178.423    14525.206     4661.409        9.291        1.918      383.469       67.684        0.031      346.638       25.028      862.707
08/10/2014  20:27:00     -242.565      -51.598      -11.569      177.417      113.393       76.638    31476.650    12857.926     5873.450        5.591        2.510      247.993       84.521        0.116      346.606       24.973      862.730
08/10/2014  20:28:00     -217.241       -7.977       -9.323      126.210       99.966       61.321    15929.075     9993.209     3760.249        3.851        1.484      217.387       71.128        0.107      346.586       24.938      862.773
08/10/2014  20:29:00     -175.855       14.136       -5.783       67.709       70.891       44.461     4584.475     5025.589     1976.743        2.137        0.579      176.422       36.122        0.042      346.600       24.964      862.798
08/10/2014  20:30:00     -282.731      -81.829      -17.033      111.558      103.233       52.695    12445.185    10657.035     2776.741        5.640        1.294      294.335       35.980        0.015      346.626       25.005      862.826
08/10/2014  20:31:00     -252.051     -154.685       -8.205      121.519      113.893       67.757    14766.759    12971.554     4591.013        5.992        1.616      295.732       58.419        0.039      346.627       25.008      862.850
08/10/2014  20:32:00     -113.104      -22.261        6.259       62.934       49.176       35.262     3960.737     2418.233     1243.385        1.047        0.381      115.274       24.120        0.044      346.577       24.923      862.866
08/10/2014  20:33:00     -110.673       22.151      -12.772       52.064       44.617       31.285     2710.680     1990.679      978.732        0.929        0.284      112.868       32.311        0.082      346.557       24.890      862.886
08/10/2014  20:34:00     -132.862      -62.598       -7.180       60.291       52.472       30.064     3635.058     2753.361      903.854        1.446        0.365      146.870       27.301        0.035      346.578       24.926      862.895
08/10/2014  20:35:00       -6.911        3.004       21.913       57.351       63.144       28.985     3289.172     3987.109      840.108        0.433        0.406        7.535       30.111       15.969      346.436       24.682      862.910
08/10/2014  20:36:00       -5.205      -20.821       -3.660       18.682       35.858       22.352      349.025     1285.814      499.612        0.130        0.107       21.462       13.800        0.413      346.458       24.719      862.940
08/10/2014  20:37:00       29.335      -36.094       15.384       23.602       25.579       24.264      557.064      654.294      588.741        0.210        0.090       46.511       16.256        0.122      346.521       24.828      862.966
08/10/2014  20:38:00      -18.931      -49.324       14.820       61.091       34.468       34.729     3732.128     1188.071     1206.127        0.457        0.306       52.832       37.952        0.516      346.471       24.742      862.976
08/10/2014  20:39:00      -90.035      -29.055      -21.085       92.664       61.573       27.401     8586.661     3791.211      750.830        1.126        0.656       94.607       25.708        0.074      346.535       24.852      862.986
08/10/2014  20:40:00     -197.332       13.984      -30.200       69.861       66.627       33.741     4880.577     4439.151     1138.440        2.525        0.523      197.827       30.804        0.024      346.517       24.820      862.994
08/10/2014  20:41:00      -89.421      -61.124       12.939       40.670       41.143       26.958     1654.036     1692.727      726.728        0.799        0.204      108.316       22.619        0.044      346.421       24.658      863.005
08/10/2014  20:42:00      -76.878      -50.830        0.469       54.513       49.222       33.502     2971.715     2422.811     1122.357        0.750        0.326       92.162       24.670        0.072      346.457       24.718      863.025
08/10/2014  20:43:00     -109.689     -142.227      -11.427       65.769       80.304       48.298     4325.497     6448.767     2332.696        2.275        0.655      179.612       41.969        0.055      346.505       24.801      863.029
08/10/2014  20:44:00      -42.793      -70.254        9.285       38.582       46.053       31.917     1488.568     2120.878     1018.691        0.574        0.231       82.261       24.779        0.091      346.443       24.693      863.046
08/10/2014  20:45:00      -48.829      -18.036        8.074       85.211       56.872       42.073     7260.981     3234.473     1770.109        0.752        0.613       52.053       49.695        0.911      346.385       24.593      863.060
08/10/2014  20:46:00      -45.917      -70.791      -18.414       88.342       63.954       37.565     7804.365     4090.076     1411.123        1.038        0.665       84.379       46.342        0.302      346.397       24.613      863.064
08/10/2014  20:47:00      -66.148        2.418       12.669       93.969       65.359       40.391     8830.198     4271.847     1631.410        0.963        0.737       66.193       44.796        0.458      346.363       24.554      863.082
08/10/2014  20:48:00       14.568      -28.539        5.428       33.314       52.230       42.740     1109.790     2727.945     1826.742        0.336        0.283       32.042       31.417        0.961      346.408       24.635      863.088
08/10/2014  20:49:00      -33.855      -57.957       13.987       52.217       45.751       30.328     2726.596     2093.151      919.793        0.522        0.287       67.121       30.466        0.206      346.376       24.578      863.109
08/10/2014  20:50:00      -33.925       19.215        4.258       31.970       34.718       28.552     1022.099     1205.317      815.194        0.229        0.152       38.989       13.869        0.127      346.402       24.622      863.132
08/10/2014  20:51:00      -40.326       66.602        6.906       42.300       48.584       38.332     1789.301     2360.428     1469.306        0.586        0.281       77.859       32.929        0.179      346.284       24.421      863.146
08/10/2014  20:52:00      -75.134        3.314       -0.893       53.136       36.882       21.417     2823.382     1360.263      458.668        0.515        0.232       75.207       20.034        0.071      346.323       24.489      863.169
08/10/2014  20:53:00      -40.382      -38.628        9.782       58.028       46.949       35.045     3367.226     2204.177     1228.159        0.501        0.340       55.882       35.455        0.403      346.344       24.523      863.185
08/10/2014  20:54:00      -92.726       -6.508       -7.919       50.940       46.759       26.768     2594.900     2186.381      716.548        0.710        0.275       92.954       29.179        0.099      346.395       24.613      863.203
08/10/2014  20:55:00      -20.892       44.137      -12.645       17.173       19.115       16.544      294.912      365.373      273.700        0.174        0.047       48.832        6.710        0.019      346.299       24.446      863.235
08/10/2014  20:56:00       48.775       43.374       14.082       27.257       27.400       16.902      742.927      750.766      285.667        0.312        0.089       65.271        8.685        0.018      346.182       24.245      863.253
08/10/2014  20:57:00       16.758      -38.940        1.743       31.840       60.327       21.487     1013.788     3639.316      461.695        0.346        0.256       42.393       23.408        0.305      346.207       24.287      863.294
08/10/2014  20:58:00       -3.288      -17.583       11.831       35.498       41.887       16.968     1260.102     1754.546      287.909        0.188        0.165       17.888       17.376        0.944      346.173       24.230      863.338
08/10/2014  20:59:00       74.298       37.208       19.797       23.242       19.914       19.365      540.174      396.576      375.012        0.430        0.066       83.094       13.321        0.026      346.120       24.141      863.352
08/10/2014  21:00:00       55.482      -43.312        9.865       66.900       53.196       34.862     4475.602     2829.785     1215.373        0.678        0.426       70.386       34.098        0.235      345.999       23.930      863.373
08/10/2014  21:01:00       -1.751      -70.480       -4.213       67.169       34.985       24.986     4511.690     1223.973      624.319        0.567        0.318       70.502       17.254        0.060      346.188       24.256      863.413
08/10/2014  21:02:00      -19.350      -39.126       11.770       35.864       33.016       19.904     1286.245     1090.072      396.184        0.241        0.139       43.649       22.017        0.254      346.221       24.312      863.444
08/10/2014  21:03:00       15.340      -14.804       10.877       26.853       15.884       20.873      721.108      252.306      435.691        0.099        0.070       21.318       19.976        0.878      346.106       24.115      863.481
08/10/2014  21:04:00       73.663       51.542        9.276       52.039       46.681       33.070     2708.008     2179.088     1093.643        0.707        0.299       89.905       33.534        0.139      346.177       24.236      863.496
08/10/2014  21:05:00       33.040       12.073       27.974       21.664       33.855       27.997      469.312     1146.155      783.807        0.221        0.120       35.177       20.430        0.337      346.193       24.264      863.523
08/10/2014  21:06:00       18.439       -0.881       19.609       19.785       25.660       17.761      391.436      658.434      315.441        0.105        0.068       18.460       19.714        1.140      346.088       24.084      863.544
08/10/2014  21:07:00      -33.969       -8.568       10.417       28.170       22.050       18.708      793.544      486.187      349.978        0.148        0.081       35.033       18.582        0.281      345.952       23.849      863.577
08/10/2014  21:08:00       49.576      -55.496      -14.221       48.038       39.175       24.515     2307.631     1534.691      600.982        0.509        0.222       74.415       24.524        0.109      346.144       24.179      863.605
08/10/2014  21:09:00       28.420      -15.580       24.383       30.556       43.788       30.042      933.678     1917.386      902.548        0.270        0.188       32.411       29.991        0.856      346.073       24.058      863.612
08/10/2014  21:10:00      -93.331      -81.231      -15.326       65.685       41.671       20.834     4314.550     1736.465      434.042        1.101        0.324      123.730       11.676        0.009      346.159       24.205      863.634
08/10/2014  21:11:00      -48.331     -106.889       -0.784       36.038       48.465       23.137     1298.704     2348.901      535.315        0.897        0.209      117.308       21.970        0.035      346.195       24.267      863.645
08/10/2014  21:12:00      -70.735      -68.946        4.428       43.493       56.286       29.669     1891.639     3168.116      880.252        0.786        0.297       98.777       31.769        0.103      346.088       24.085      863.638
08/10/2014  21:13:00      -68.330      -89.742        0.959       59.244       74.603       28.389     3509.838     5565.607      805.935        1.130        0.494      112.794       25.835        0.052      346.152       24.193      863.638
08/10/2014  21:14:00     -109.547     -120.358       -5.965       96.388       84.408       40.316     9290.672     7124.689     1625.400        2.228        0.902      162.747       30.475        0.035      346.159       24.201      863.640
08/10/2014  21:15:00     -172.933      -21.424      -11.579       77.098       42.908       23.676     5944.132     1841.060      560.555        1.942        0.417      174.255       15.615        0.008      345.916       23.787      863.665
08/10/2014  21:16:00     -168.676      -86.468       -6.025       64.612       51.554       37.457     4174.752     2657.783     1403.028        2.210        0.412      189.548       39.424        0.043      346.043       24.005      863.668
08/10/2014  21:17:00     -212.931      -65.092      -15.173       75.684       48.816       29.954     5728.105     2382.957      897.272        2.941        0.450      222.658       32.375        0.021      346.104       24.107      863.672
08/10/2014  21:18:00     -142.236       24.008      -16.244       47.424       75.501       22.006     2249.007     5700.408      484.256        1.475        0.422      144.247       23.142        0.026      346.052       24.022      863.682
08/10/2014  21:19:00     -155.855      107.882      -29.477       39.220       50.747       31.304     1538.246     2575.307      979.924        2.094        0.255      189.550       29.075        0.024      346.089       24.082      863.690
08/10/2014  21:20:00     -123.354       44.075       -3.673       70.720       49.658       36.626     5001.302     2465.962     1341.475        1.299        0.440      130.992       37.940        0.084      346.039       23.999      863.695
08/10/2014  21:21:00     -149.607       -8.882      -11.379       40.138       37.686       27.625     1611.087     1420.236      763.159        1.319        0.190      149.870       20.900        0.019      346.002       23.934      863.710
08/10/2014  21:22:00      -49.000      -12.287        1.928       33.212       25.259       21.925     1103.008      637.999      480.712        0.239        0.111       50.517       16.883        0.112      345.833       23.648      863.734
08/10/2014  21:23:00      -89.130      -24.859       -4.252       39.554       29.134       20.325     1564.488      848.794      413.115        0.570        0.141       92.532       20.282        0.048      345.916       23.788      863.735
08/10/2014  21:24:00      -79.534      -65.623        1.812       68.987       58.528       34.387     4759.186     3425.520     1182.451        1.000        0.468      103.112       37.070        0.129      345.954       23.853      863.728
08/10/2014  21:25:00     -223.065      -41.071       -6.775       87.676       75.359       39.191     7687.034     5679.044     1535.935        3.319        0.745      226.814       38.069        0.028      345.957       23.855      863.711
08/10/2014  21:26:00     -233.619      -33.173        0.396      108.306       76.502       51.606    11730.235     5852.594     2663.187        3.796        1.012      235.963       61.346        0.068      345.980       23.895      863.680
08/10/2014  21:27:00     -248.788      -75.051       -3.448       84.143       88.083       44.893     7080.074     7758.635     2015.389        4.219        0.843      259.862       44.385        0.029      345.910       23.775      863.658
08/10/2014  21:28:00     -285.472      -94.287       -3.280       90.675       74.168       51.758     8221.924     5500.955     2678.882        5.340        0.820      300.640       45.868        0.023      345.860       23.689      863.632
08/10/2014  21:29:00     -209.205      -64.434      -13.841      104.900       74.183       40.885    11003.918     5503.066     1671.605        3.314        0.909      218.903       47.534        0.047      345.802       23.591      863.601
08/10/2014  21:30:00     -247.446      -47.819      -12.601      114.673       72.644       43.078    13149.933     5277.163     1855.742        4.197        1.014      252.024       56.076        0.050      345.809       23.601      863.563
08/10/2014  21:31:00     -252.991      -68.189       -5.453      100.796      105.699       56.017    10159.769    11172.314     3137.863        4.657        1.223      262.020       53.079        0.041      345.788       23.565      863.530
08/10/2014  21:32:00     -327.310      -83.952      -16.341      102.551       91.285       57.896    10516.737     8332.939     3351.934        6.832        1.110      337.905       53.063        0.025      345.810       23.603      863.519
08/10/2014  21:33:00     -179.290      -50.961        4.852       88.427       65.368       47.635     7819.359     4272.976     2269.092        2.456        0.718      186.392       49.411        0.070      345.735       23.475      863.522
08/10/2014  21:34:00     -210.788      -72.191        7.186      104.244       70.615       48.263    10866.750     4986.521     2329.337        3.393        0.909      222.807       52.650        0.056      345.813       23.609      863.518
08/10/2014  21:35:00     -282.685      -82.730       -2.422      148.304       93.465       62.712    21994.148     8735.759     3932.823        6.070        1.733      294.542       64.018        0.047      345.916       23.786      863.523
08/10/2014  21:36:00     -232.249     -139.783        9.826      144.145      107.907       58.924    20777.714    11643.819     3472.038        5.473        1.795      271.070       73.316        0.073      345.976       23.889      863.532
08/10/2014  21:37:00     -197.267      -86.017       -4.422       87.159       96.971       57.034     7596.630     9403.349     3252.903        3.329        1.013      215.205       48.862        0.052      345.931       23.811      863.525
08/10/2014  21:38:00     -299.674       -3.109       -6.522      116.083       82.354       56.279    13475.286     6782.111     3167.282        5.664        1.171      299.690       55.083        0.034      345.930       23.810      863.526
08/10/2014  21:39:00     -333.860      -64.118      -15.040      113.126      102.423       54.608    12797.438    10490.470     2982.052        7.103        1.313      339.961       56.858        0.028      346.029       23.979      863.552
08/10/2014  21:40:00     -202.854      -71.252       -9.209       96.711       75.941       51.536     9352.989     5766.993     2655.984        3.204        0.889      215.004       38.107        0.031      345.976       23.890      863.571
08/10/2014  21:41:00     -141.470      -90.926       -5.114       58.172       66.456       34.637     3383.962     4416.353     1199.739        1.865        0.450      168.171       24.681        0.022      345.998       23.928      863.596
08/10/2014  21:42:00      -62.611      -39.603        6.787       79.639       41.879       35.565     6342.315     1753.810     1264.835        0.745        0.468       74.085       36.138        0.238      346.041       24.003      863.619
08/10/2014  21:43:00     -185.000      -62.888        0.137       62.385       61.616       39.411     3891.899     3796.476     1553.209        2.371        0.462      195.396       35.792        0.034      346.092       24.088      863.634
08/10/2014  21:44:00     -114.871      -51.454        3.997       62.176       59.644       32.342     3865.813     3557.414     1046.016        1.216        0.423      125.869       30.640        0.059      346.081       24.070      863.625
08/10/2014  21:45:00     -169.555      -81.600       -4.511       46.047       64.240       30.946     2120.327     4126.741      957.673        2.131        0.360      188.169       24.276        0.017      346.060       24.035      863.623
08/10/2014  21:46:00     -188.771     -102.127      -11.729       98.813       68.362       40.075     9764.095     4673.389     1606.033        3.112        0.802      214.626       30.986        0.021      346.047       24.012      863.640
08/10/2014  21:47:00     -134.563      -63.472        2.395       81.571       70.155       32.151     6653.861     4921.669     1033.696        1.737        0.630      148.781       30.576        0.042      346.025       23.974      863.679
08/10/2014  21:48:00     -168.094     -167.784      -16.369       90.558       80.774       44.247     8200.778     6524.395     1957.829        3.668        0.834      237.502       43.392        0.033      346.249       24.355      863.700
08/10/2014  21:49:00     -197.692     -117.016       -3.901       95.657       87.630       46.277     9150.325     7678.945     2141.600        3.588        0.949      229.728       45.804        0.040      346.263       24.382      863.726
08/10/2014  21:50:00     -179.415     -145.670        1.402      125.143       74.842       47.860    15660.674     5601.357     2290.622        3.848        1.178      231.105       60.439        0.068      346.194       24.262      863.756
08/10/2014  21:51:00     -213.600     -131.156      -13.847       82.517       72.149       40.772     6809.011     5205.510     1662.316        3.834        0.684      250.652       28.108        0.013      346.192       24.259      863.780
08/10/2014  21:52:00     -154.251      -80.968       -3.784       94.237       51.849       39.210     8880.545     2688.315     1537.430        2.173        0.655      174.210       38.849        0.050      346.166       24.215      863.791
08/10/2014  21:53:00     -181.013     -101.943        2.143       76.202       58.322       40.446     5806.727     3401.471     1635.845        2.700        0.542      207.745       41.478        0.040      346.178       24.235      863.806
08/10/2014  21:54:00     -119.070      -58.657        9.960       67.137       60.674       35.448     4507.317     3681.318     1256.586        1.358        0.472      132.734       30.014        0.051      346.195       24.267      863.837
08/10/2014  21:55:00      -36.820      -15.834       12.677       37.294       40.983       22.004     1390.874     1679.643      484.162        0.266        0.178       40.080       18.313        0.209      346.104       24.111      863.869
08/10/2014  21:56:00      -73.379      -78.715       -2.635       57.870       71.586       32.245     3348.930     5124.591     1039.752        1.055        0.476      107.613       28.172        0.069      346.144       24.181      863.887
08/10/2014  21:57:00     -149.639      -71.300      -11.070       63.383       53.520       34.989     4017.443     2864.414     1224.256        1.785        0.405      165.757       38.158        0.053      346.129       24.153      863.909
08/10/2014  21:58:00     -132.647      -43.009        6.569       64.024       41.410       28.465     4099.096     1714.806      810.228        1.305        0.331      139.446       28.766        0.043      346.057       24.029      863.931
08/10/2014  21:59:00      -81.058      -50.945        3.110       66.530       33.438       31.979     4426.294     1118.113     1022.643        0.787        0.328       95.738       35.978        0.141      346.096       24.098      863.954
08/10/2014  22:00:00       -3.291      -23.786        6.812       24.518       29.151       21.443      601.118      849.772      459.817        0.127        0.096       24.012       13.239        0.304      346.071       24.055      863.979
08/10/2014  22:01:00        4.589      -15.097        6.271       14.707       19.024       16.725      216.307      361.924      279.729        0.057        0.043       15.779       15.697        0.990      346.008       23.948      863.998
08/10/2014  22:02:00      -25.089      -10.769        6.953       31.185       18.740       16.880      972.496      351.179      284.930        0.120        0.080       27.302       10.444        0.146      345.980       23.899      864.001
08/10/2014  22:03:00      -44.976       -3.556       -1.710       36.095       20.776       16.529     1302.880      431.628      273.217        0.202        0.100       45.116       20.001        0.197      346.038       23.997      863.997
08/10/2014  22:04:00      -10.683       -3.433       13.745       19.293       17.440       12.525      372.229      304.165      156.884        0.057        0.042       11.221       10.213        0.828      345.947       23.842      863.978
08/10/2014  22:05:00        9.569      -32.246        9.814       29.439       28.435       16.622      866.673      808.553      276.286        0.159        0.098       33.636       10.990        0.107      345.924       23.803      863.957
08/10/2014  22:06:00      -82.944      -27.403      -11.732       23.538       25.241       17.376      554.038      637.127      301.914        0.463        0.075       87.354       11.558        0.018      345.996       23.926      863.943
08/10/2014  22:07:00      -46.316      -11.365        2.717       26.483       12.067       11.445      701.368      145.614      130.994        0.163        0.049       47.690       11.896        0.062      345.959       23.863      863.925
08/10/2014  22:08:00      -96.355      -41.118       -6.563       29.320       27.012       13.503      859.673      729.656      182.340        0.639        0.089      104.762       15.133        0.021      345.951       23.852      863.914
08/10/2014  22:09:00      -83.353      -65.446       -1.115       83.880       43.698       24.799     7035.855     1909.532      615.001        1.039        0.478      105.976       37.377        0.124      346.115       24.131      863.914
08/10/2014  22:10:00      -77.553      -23.928       -6.140      100.485       57.398       30.425    10097.155     3294.569      925.651        1.047        0.716       81.161       23.960        0.087      346.146       24.183      863.889
08/10/2014  22:11:00     -120.829      -44.408       17.115      101.464       64.523       46.531    10295.043     4163.224     2165.168        1.674        0.831      128.731       43.803        0.116      346.047       24.012      863.874
08/10/2014  22:12:00      -99.186      -58.671        2.691       61.067       56.689       28.516     3729.142     3213.682      813.181        1.052        0.388      115.240       22.661        0.039      346.074       24.060      863.848
08/10/2014  22:13:00     -216.994      -37.585       -1.910      101.796       81.050       53.128    10362.338     6569.178     2822.549        3.412        0.988      220.225       60.081        0.074      346.139       24.167      863.821
08/10/2014  22:14:00     -229.432      -19.601       -7.845      103.943       72.795       51.662    10804.142     5299.170     2669.007        3.592        0.939      230.268       56.440        0.060      346.138       24.168      863.774
08/10/2014  22:15:00     -245.236      -51.078       -7.919      102.092       69.569       50.442    10422.870     4839.797     2544.391        4.031        0.890      250.499       57.106        0.052      346.171       24.222      863.728
08/10/2014  22:16:00     -229.213      -56.785       -6.004       71.423       66.665       43.641     5101.313     4444.226     1904.500        3.362        0.573      236.142       33.364        0.020      346.101       24.103      863.682
08/10/2014  22:17:00     -343.613      -49.033      -23.067      122.904       98.609       60.033    15105.392     9723.693     3603.958        7.471        1.422      347.094       67.954        0.038      346.264       24.381      863.632
08/10/2014  22:18:00     -212.868      -63.515      -20.447       68.901       62.898       49.395     4747.305     3956.102     2439.911        3.045        0.557      222.141       44.590        0.040      346.169       24.221      863.593
08/10/2014  22:19:00     -279.996      -16.384      -28.155      127.940       92.920       45.145    16368.614     8634.079     2038.050        5.324        1.352      280.475       48.767        0.030      346.168       24.218      863.544
08/10/2014  22:20:00     -278.498      -38.552      -19.252       83.993       63.783       43.278     7054.867     4068.320     1872.990        4.620        0.650      281.153       45.624        0.026      346.155       24.195      863.525
08/10/2014  22:21:00     -280.050      -86.755       -6.903       96.757       90.311       48.668     9361.863     8156.157     2368.550        5.294        0.994      293.180       48.126        0.027      346.175       24.230      863.503
08/10/2014  22:22:00     -307.719      -16.863      -23.696       71.131       71.833       40.755     5059.644     5159.910     1660.979        5.371        0.594      308.181       35.476        0.013      346.160       24.205      863.504
08/10/2014  22:23:00     -295.396      -56.145      -14.340      110.236       86.975       47.634    12152.047     7564.618     2268.968        5.630        1.099      300.685       49.148        0.027      346.207       24.284      863.510
08/10/2014  22:24:00     -169.324      -22.259       -3.151       84.241       74.344       39.499     7096.600     5527.091     1560.195        2.168        0.709      170.781       41.031        0.058      346.138       24.168      863.544
08/10/2014  22:25:00     -210.137      -62.891       -4.922       81.292       86.264       41.966     6608.410     7441.503     1761.134        3.197        0.791      219.347       32.552        0.022      346.168       24.218      863.586
08/10/2014  22:26:00      -92.810      -46.258        3.014       94.047       85.653       42.033     8844.775     7336.406     1766.766        1.435        0.897      103.699       43.789        0.178      346.179       24.239      863.649
08/10/2014  22:27:00     -133.396      -95.023      -13.285       92.070      108.336       36.774     8476.960    11736.725     1352.314        2.428        1.078      163.780       30.092        0.034      346.188       24.253      863.736
08/10/2014  22:28:00      -62.904      -84.028        1.988       54.032       38.650       26.708     2919.504     1493.828      713.321        0.807        0.256      104.965       17.854        0.029      346.223       24.316      863.828
08/10/2014  22:29:00      -65.679     -147.684        1.669       45.192       57.896       26.579     2042.292     3351.899      706.438        1.611        0.305      161.630       23.810        0.022      346.240       24.346      863.905
08/10/2014  22:30:00        4.234      -67.980        2.922       37.812       73.178       40.465     1429.712     5355.041     1637.437        0.653        0.421       68.112       23.025        0.114      346.131       24.158      863.954
08/10/2014  22:31:00       47.427      -55.406       -8.637       41.312       65.340       34.297     1706.649     4269.369     1176.261        0.627        0.358       72.932       36.061        0.244      346.106       24.114      863.994
08/10/2014  22:32:00      -18.254      -37.621       -2.403       46.259       44.758       37.537     2139.882     2003.298     1409.005        0.365        0.278       41.816       32.363        0.599      346.078       24.066      864.025
08/10/2014  22:33:00      -69.918     -123.569       -9.980       50.420       44.762       35.250     2542.191     2003.617     1242.552        1.302        0.289      141.978       25.727        0.033      346.100       24.103      864.042
08/10/2014  22:34:00        1.210      -73.491       12.042       58.672       60.856       42.076     3442.427     3703.470     1770.371        0.723        0.446       73.501       42.168        0.329      346.102       24.106      864.039
08/10/2014  22:35:00      -76.750     -181.653      -10.934       51.182       52.049       29.021     2619.578     2709.084      842.196        2.259        0.309      197.201       11.135        0.003      346.173       24.229      864.012
08/10/2014  22:36:00     -131.155     -134.754       -6.383       65.343       71.004       38.252     4269.771     5041.585     1463.201        2.309        0.539      188.044       40.968        0.047      346.109       24.115      863.996
08/10/2014  22:37:00     -129.749     -109.323       -3.060       48.276       56.061       28.523     2330.582     3142.836      813.569        1.754        0.314      169.665       17.051        0.010      346.154       24.196      863.974
08/10/2014  22:38:00     -163.579     -134.256       -7.331       64.468       80.109       35.459     4156.094     6417.425     1257.322        2.833        0.592      211.620       41.224        0.038      346.150       24.187      863.961
08/10/2014  22:39:00     -131.073     -171.692       -0.918       91.534       82.479       49.754     8378.477     6802.720     2475.497        3.215        0.883      216.005       47.737        0.049      346.156       24.198      863.955
08/10/2014  22:40:00      -71.470     -131.596        0.615       65.992       67.729       33.340     4354.913     4587.158     1111.542        1.624        0.503      149.752       42.407        0.080      346.158       24.202      863.952
08/10/2014  22:41:00      -54.426     -146.034        1.620       40.419       43.618       32.749     1633.700     1902.554     1072.496        1.445        0.230      155.846       26.538        0.029      346.141       24.175      863.976
08/10/2014  22:42:00      -43.729     -128.403       -4.403       57.400       67.914       39.294     3294.724     4612.366     1544.001        1.393        0.473      135.645       19.578        0.021      346.134       24.159      863.990
08/10/2014  22:43:00      -31.329     -107.586       -9.057       41.073       52.454       32.820     1686.967     2751.412     1077.172        0.908        0.276      112.055        2.154        0.000      346.148       24.186      864.016
08/10/2014  22:44:00      -69.745     -153.892      -14.027       61.253       72.078       29.005     3751.869     5195.234      841.299        1.926        0.489      168.959       12.322        0.005      346.121       24.138      864.025
08/10/2014  22:45:00      -65.519      -75.650       -4.610       76.281       48.697       36.408     5818.781     2371.402     1325.575        0.977        0.476      100.078       27.347        0.075      346.096       24.096      864.034
08/10/2014  22:46:00     -123.829     -118.576       -7.501       55.487       44.670       23.547     3078.801     1995.431      554.476        1.754        0.281      171.447       18.467        0.012      346.111       24.121      864.035
08/10/2014  22:47:00     -112.986     -121.979       -8.720       48.823       63.392       33.188     2383.681     4018.512     1101.439        1.761        0.375      166.267       21.859        0.017      346.078       24.067      864.038
08/10/2014  22:48:00     -129.888      -90.211       -4.002       63.865       58.090       39.796     4078.705     3374.396     1583.720        1.703        0.452      158.142       36.588        0.054      346.120       24.138      864.045
08/10/2014  22:49:00      -59.071      -19.367       18.744       60.856       51.774       31.307     3703.470     2680.539      980.120        0.579        0.368       62.165       21.739        0.122      346.058       24.031      864.056
08/10/2014  22:50:00      -74.168      -72.681        0.966       58.938       55.647       28.672     3473.723     3096.610      822.078        0.909        0.370      103.843       26.023        0.063      346.046       24.011      864.087
08/10/2014  22:51:00      -95.172     -128.771       -2.137       42.518       43.450       25.394     1807.785     1887.916      644.841        1.499        0.217      160.124       19.871        0.015      346.043       24.007      864.139
08/10/2014  22:52:00      -27.186      -80.135       -2.945       35.603       37.880       23.490     1267.552     1434.881      551.758        0.521        0.163       84.621       21.228        0.063      346.053       24.026      864.193
08/10/2014  22:53:00        2.522      -26.197       12.404       14.792       36.058       14.141      218.806     1300.174      199.970        0.128        0.086       26.318       20.301        0.595      346.057       24.034      864.260
08/10/2014  22:54:00       13.988       52.983       48.792       24.197       40.294       29.264      585.516     1623.638      856.380        0.422        0.153       54.799       23.455        0.183      346.022       23.970      864.316
08/10/2014  22:55:00       94.811       65.513       44.633       65.527       37.766       44.196     4293.809     1426.282     1953.262        1.147        0.384      115.244       42.171        0.134      345.950       23.848      864.381
08/10/2014  22:56:00      170.850       74.298       14.983       50.396       35.671       40.123     2539.720     1272.412     1609.839        2.018        0.271      186.306       25.016        0.018      345.891       23.743      864.449
08/10/2014  22:57:00      147.781       58.384       37.230       65.517       49.851       44.499     4292.471     2485.090     1980.138        1.769        0.438      158.896       38.327        0.058      345.851       23.675      864.513
08/10/2014  22:58:00      126.909       64.647       35.520       79.125       56.339       53.300     6260.830     3174.110     2840.889        1.691        0.614      142.426       47.318        0.110      345.820       23.624      864.591
08/10/2014  22:59:00      154.720       94.153       61.520       74.597       67.325       62.230     5564.683     4532.651     3872.541        2.528        0.698      181.116       49.899        0.076      345.790       23.569      864.673
08/10/2014  23:00:00      152.097       74.857       73.657       91.707       72.735       48.969     8410.148     5290.428     2398.004        2.513        0.805      169.520       35.223        0.043      345.834       23.646      864.745
08/10/2014  23:01:00      122.256       92.025       84.836       83.470       72.202       64.461     6967.161     5213.189     4155.181        2.347        0.817      153.020       44.490        0.085      345.862       23.694      864.801
08/10/2014  23:02:00      173.610       72.743       75.255       79.777       87.712       57.912     6364.397     7693.326     3353.843        2.925        0.871      188.234       48.022        0.065      345.918       23.788      864.851
08/10/2014  23:03:00       87.798       86.164       87.973       70.554       56.700       43.704     4977.818     3214.844     1910.077        1.649        0.505      123.015       29.596        0.058      345.916       23.788      864.904
08/10/2014  23:04:00       69.100       71.451       86.673       74.744       61.453       45.705     5586.599     3776.414     2088.988        1.442        0.573       99.399       37.628        0.143      345.933       23.818      864.969
08/10/2014  23:05:00       58.567       19.658       79.814       66.194       59.220       53.861     4381.602     3507.035     2901.030        1.049        0.539       61.778       51.077        0.684      345.912       23.781      865.080
08/10/2014  23:06:00       45.006      -18.443       87.398       60.302       86.836       74.254     3636.307     7540.433     5513.683        1.334        0.835       48.638       61.821        1.616      345.915       23.787      865.205
08/10/2014  23:07:00       65.043       19.586      109.288      115.432      143.881       84.995    13324.596    20701.767     7224.167        2.890        2.063       67.928      106.646        2.465      345.981       23.899      865.306
08/10/2014  23:08:00      139.142     -194.640       -1.975       83.175      116.975       62.035     6918.123    13683.040     3848.332        4.084        1.222      239.260       67.615        0.080      346.025       23.974      865.359
08/10/2014  23:09:00      148.375     -183.825      -30.025       81.302       84.426       51.711     6610.074     7127.716     2673.986        3.656        0.821      236.234       39.227        0.028      346.023       23.970      865.375
08/10/2014  23:10:00       92.835      -81.807        2.716       84.139       64.305       56.077     7079.330     4135.152     3144.599        1.484        0.718      123.737       55.313        0.200      346.036       23.991      865.381
08/10/2014  23:11:00       93.995     -140.384        0.861       54.423       68.211       52.777     2961.811     4652.709     2785.371        1.947        0.520      168.945       48.451        0.082      346.070       24.051      865.355
08/10/2014  23:12:00      110.137      -68.637        7.043       47.702       56.271       37.680     2275.461     3166.457     1419.773        1.187        0.343      129.773       26.006        0.040      346.078       24.067      865.334
08/10/2014  23:13:00       97.451      -30.846       28.505       53.682       44.466       37.260     2881.727     1977.244     1388.282        0.875        0.312      102.216       33.113        0.105      346.095       24.096      865.319
08/10/2014  23:14:00       52.759      -29.908       13.057       35.796       25.804       18.374     1281.343      665.838      337.602        0.307        0.114       60.647       15.998        0.070      346.092       24.091      865.295
08/10/2014  23:15:00       49.272       32.079       15.298       25.035       23.919       21.526      626.753      572.129      463.358        0.268        0.083       58.794       12.508        0.045      346.078       24.067      865.263
08/10/2014  23:16:00       56.422       59.543        0.940       30.723       27.787       23.880      943.910      772.143      570.275        0.451        0.114       82.029       20.176        0.060      346.082       24.074      865.233
08/10/2014  23:17:00       68.273       63.499        8.718       35.455       21.576       23.931     1257.029      465.511      572.681        0.553        0.115       93.238       15.505        0.028      346.123       24.143      865.228
08/10/2014  23:18:00       48.608       70.246      -10.030       45.738       46.222       33.422     2091.957     2136.499     1117.044        0.637        0.267       85.424       34.271        0.161      345.918       23.791      865.271
08/10/2014  23:19:00        9.943       29.348       -5.904       61.701       47.719       35.239     3806.960     2277.149     1241.780        0.416        0.366       30.987       26.640        0.739      345.726       23.467      865.264
08/10/2014  23:20:00      -79.359       53.969      -21.124       35.703       58.855       23.063     1274.670     3463.946      531.924        0.746        0.264       95.971       25.412        0.070      345.656       23.341      865.189
08/10/2014  23:21:00      -38.148      124.338      -28.757       59.978       39.024       17.449     3597.406     1522.901      304.464        1.158        0.271      130.059       11.757        0.008      345.615       23.272      865.046
08/10/2014  23:22:00      -67.539       75.597      -13.304       43.607       35.262       24.132     1901.583     1243.406      582.333        0.709        0.186      101.373       21.708        0.046      345.557       23.172      864.909
08/10/2014  23:23:00      -91.500      116.591      -33.511       38.124       47.883       26.912     1453.417     2292.823      724.263        1.378        0.224      148.209       24.894        0.028      345.590       23.228      864.801
08/10/2014  23:24:00     -145.064       91.116      -29.149       51.938       58.243       32.436     2697.592     3392.194     1052.105        1.867        0.357      171.306       30.053        0.031      345.563       23.182      864.724
08/10/2014  23:25:00     -140.160      175.398      -28.011       81.727       91.512       54.824     6679.365     8374.359     3005.640        3.462        0.903      224.520       54.212        0.058      345.599       23.239      864.659
08/10/2014  23:26:00      -93.016      228.219      -20.762       55.493       51.013       39.611     3079.486     2602.336     1569.022        3.421        0.363      246.446       24.581        0.010      345.647       23.324      864.598
08/10/2014  23:27:00       13.326      257.784      -37.492       66.455       94.729       50.189     4416.214     8973.633     2518.975        4.197        0.795      258.128       55.076        0.046      345.693       23.403      864.546
08/10/2014  23:28:00       30.320      207.267      -13.275       57.993       78.022       58.978     3363.137     6087.476     3478.402        2.849        0.646      209.473       52.365        0.062      345.672       23.367      864.490
08/10/2014  23:29:00      148.341      174.625       -5.891      115.667       97.510       71.527    13378.894     9508.117     5116.093        4.026        1.400      229.127       46.678        0.042      345.661       23.349      864.453
08/10/2014  23:30:00      239.174      176.967       20.380      140.849       90.445       92.538    19838.554     8180.386     8563.319        6.275        1.829      297.525       52.604        0.031      345.647       23.323      864.418
08/10/2014  23:31:00      116.135      190.930        1.834      128.248      134.784       89.063    16447.476    18166.717     7932.138        4.624        2.127      223.476       86.391        0.149      345.675       23.372      864.404
08/10/2014  23:32:00       77.101      326.522      -23.685      112.866      184.288       99.094    12738.822    33962.084     9819.672        8.481        2.826      335.502      103.040        0.094      345.688       23.393      864.376
08/10/2014  23:33:00       76.399      212.336       -2.256      120.549      132.551       80.892    14532.049    17569.677     6543.539        4.478        1.932      225.662       67.988        0.091      345.622       23.280      864.373
08/10/2014  23:34:00       87.489      230.913      -24.575       94.162      167.012       79.499     8866.561    27892.972     6320.043        5.232        2.154      246.932       96.858        0.154      345.578       23.206      864.388
08/10/2014  23:35:00       34.152      260.843      -17.047       80.026      168.599       82.759     6404.159    28425.739     6849.032        5.558        2.084      263.069       92.647        0.124      345.552       23.162      864.401
08/10/2014  23:36:00       49.625      347.038      -46.742       71.905      111.594       59.052     5170.272    12453.254     3487.129        7.309        1.056      350.568       59.576        0.029      345.514       23.094      864.431
08/10/2014  23:37:00      126.999      189.569       -4.369      107.933      145.758       81.665    11649.563    21245.465     6669.138        4.582        1.978      228.178       87.021        0.145      345.479       23.035      864.470
08/10/2014  23:38:00      143.143      184.508        9.308      107.545       98.036       83.894    11565.924     9611.061     7038.139        4.141        1.411      233.524       69.618        0.089      345.424       22.941      864.486
08/10/2014  23:39:00       74.905      141.610       27.141      103.775      105.436       86.979    10769.152    11116.764     7565.316        2.792        1.473      160.200       69.729        0.189      345.416       22.927      864.488
08/10/2014  23:40:00       71.034      221.222      -10.361       96.963      177.404       95.571     9401.754    31472.174     9133.840        5.204        2.500      232.347      102.367        0.194      345.455       22.995      864.479
08/10/2014  23:41:00      131.046      276.466      -28.095      116.717      137.992       96.789    13622.744    19041.774     9368.130        6.821        2.102      305.952       86.728        0.080      345.469       23.017      864.485
08/10/2014  23:42:00      134.080      209.854      -15.597      115.329      129.108       92.482    13300.728    16668.769     8552.859        5.038        1.926      249.030       80.076        0.103      345.465       23.009      864.511
08/10/2014  23:43:00       95.986      252.090      -17.861      104.918      142.925       85.537    11007.707    20427.530     7316.581        5.591        1.938      269.746       86.189        0.102      345.486       23.048      864.548
08/10/2014  23:44:00      121.624      264.000       -1.372      133.377      204.388      106.240    17789.518    41774.475    11286.931        7.766        3.543      290.669      115.111        0.157      345.581       23.209      864.571
08/10/2014  23:45:00      125.681      197.347       -3.091      130.720      110.650       75.834    17087.732    12243.371     5750.868        4.491        1.754      233.970       64.584        0.076      345.585       23.218      864.587
08/10/2014  23:46:00      122.703      153.103      -10.158       91.502       80.498       58.211     8372.624     6479.999     3388.542        2.842        0.912      196.205       42.899        0.048      345.520       23.105      864.604
08/10/2014  23:47:00      167.716      223.345       16.547      168.724      138.986      120.721    28467.897    19317.179    14573.600        7.031        3.118      279.306       98.480        0.124      345.543       23.145      864.610
08/10/2014  23:48:00      155.938      239.935      -12.143      139.713      168.648      112.951    19519.702    28442.228    12758.033        7.136        3.036      286.156       99.494        0.121      345.473       23.024      864.614
08/10/2014  23:49:00       78.641      276.877      -29.838      103.466      180.541       76.862    10705.202    32594.934     5907.773        6.646        2.460      287.829       88.995        0.096      345.415       22.925      864.611
08/10/2014  23:50:00      106.728      273.794       -8.138      167.405      183.083      119.406    28024.565    33519.301    14257.825        8.110        3.790      293.860      114.313        0.151      345.372       22.854      864.638
08/10/2014  23:51:00       76.315      222.522        1.143      108.306      136.728       89.045    11730.132    18694.421     7929.020        4.684        1.918      235.245       84.343        0.129      345.345       22.804      864.659
08/10/2014  23:52:00       78.213      292.930        6.421      162.694      235.551      128.435    26469.301    55484.334    16495.611        9.519        4.922      303.192      121.071        0.159      345.242       22.628      864.678
08/10/2014  23:53:00      127.473      232.996        2.542      181.653      119.936      103.522    32997.965    14384.571    10716.731        6.431        2.905      265.587       80.531        0.092      345.189       22.537      864.709
08/10/2014  23:54:00      104.826      143.221       -3.087       95.456       95.294       68.462     9111.880     9081.004     4687.004        2.719        1.144      177.484       40.794        0.053      345.149       22.472      864.736
08/10/2014  23:55:00      143.885      167.360       18.195      137.456      140.139       70.818    18894.208    19638.932     5015.249        4.629        2.177      220.709       68.200        0.095      345.118       22.418      864.756
08/10/2014  23:56:00      117.118      262.139        1.696      164.091      186.735       92.271    26925.756    34870.146     8513.846        7.636        3.515      287.113      104.431        0.132      345.089       22.368      864.804
08/10/2014  23:57:00      130.497      253.950      -17.846      152.571      170.649       86.050    23277.759    29121.033     7404.648        7.081        2.990      285.517       77.319        0.073      345.028       22.264      864.820
08/10/2014  23:58:00      302.526      215.312       22.955      167.201      113.434       89.674    27956.330    12867.177     8041.416        9.363        2.443      371.324       49.359        0.018      345.001       22.217      864.837
08/10/2014  23:59:00      171.245      219.118       10.658      128.853      149.542       85.334    16603.018    22362.940     7281.920        6.184        2.312      278.096       80.281        0.083      344.996       22.208      864.855
